     2              OBSERVATION DATA    GPS                 RINEX VERSION / TYPE
teqc 2000Feb29 Ken Austin CWU Geolo20000719 21:20:25UTC     PGM / RUN BY / DATE
                                                            COMMENT
teqc windowed: delta = 86400.000 sec                        COMMENT
teqc windowed: delta = 86400.000 sec                        COMMENT
teqc windowed: delta = 86400.000 sec                        COMMENT
teqc windowed: delta = 86400.000 sec                        COMMENT
teqc windowed: delta = 86400.000 sec                        COMMENT
teqc windowed: delta = 86400.000 sec                        COMMENT
teqc windowed: delta = 86400.000 sec                        COMMENT
teqc windowed: delta = 86400.000 sec                        COMMENT
teqc windowed: delta = 86400.000 sec                        COMMENT
teqc windowed: delta = 86400.000 sec                        COMMENT
teqc windowed: delta = 86400.000 sec                        COMMENT
teqc windowed: delta = 86400.000 sec                        COMMENT
teqc windowed: delta = 86400.000 sec                        COMMENT
teqc windowed: delta = 86400.000 sec                        COMMENT
teqc windowed: delta = 86400.000 sec                        COMMENT
teqc windowed: delta = 86400.000 sec                        COMMENT
teqc windowed: delta = 86400.000 sec                        COMMENT
Original Marker Name: FUNE FUNERAL                          COMMENT
Campaign Name: CWU 2000 Post-Hector                         COMMENT
4-Character Station Name: FUNE                              COMMENT
6-Character Antenna Code: DMRCHT                            COMMENT
Vertical Measurement Point: BCR                             COMMENT
Vertical Offset to Rinex Ref. Point: 0.0348                 COMMENT
Radial Measurement Point: ECF                               COMMENT
Radial Offset to Rinex Ref. Point: 0.1897                   COMMENT
Antenna Height from Field Measurement: 1.0730 m             COMMENT
Additional Antenna Identification Info.:                    COMMENT
Turborogue and Ashtech Choke Ring                           COMMENT
Original XYZ: -2291700.7314 -4601406.6495 3764189.8280      COMMENT
New XYZ position is based on association with SCEC monument COMMENT
E1F4X5P0+0011. Position of that monument is believed to be  COMMENT
valid to within 1 m horizontally; vertical accuracy         COMMENT
should be no worse than 3-times this value.                 COMMENT
                                                            COMMENT
Revised Rinex header created by UCSD GPS archive for        COMMENT
GSAC on 10-Aug-2000 (2000:223) 02:28:51 GMT                 COMMENT
For assistance contact dagnew@ucsd.edu                      COMMENT
or anderson@python.ucsd.edu                                 COMMENT
                                                            COMMENT
3058-S                                                      MARKER NAME
FUNE                                                        MARKER NUMBER
KA CENTRAL WASHINGTON UNIVERSITY                            OBSERVER / AGENCY
24489 TRIMBLE 4000 SSI NP 7.19; SP 3.04                     REC # / TYPE / VERS
138191 DORNE-MARGOL. TYPE T                                 ANT # / TYPE
 -2291700.7994 -4601401.8040  3764184.6809                  APPROX POSITION XYZ
        1.0213        0.0000        0.0000                  ANTENNA: DELTA H/E/N
     1     1     0                                          WAVELENGTH FACT L1/2
     9    L1    L2    C1    P2    P1    D1    D2    S1    S2# / TYPES OF OBSERV
    30                                                      INTERVAL
  2000     7     1    21    49    0.000000                  TIME OF FIRST OBS
  2000     7     1    23    59    0.000000                  TIME OF LAST OBS
                                                            END OF HEADER
 00  7  1 21 49  0.0000000  0  8G 3G 9G15G17G21G23G29G31
   1177041.83257    904150.12356  22002298.0944   22002304.1644
     -2230.7664      -1738.2594         21.2504         17.5004
    769208.09055    591489.83655  23588872.2194   23588877.4224
     -1530.4224      -1192.5374          9.7504          8.2504
   -714617.16157   -556844.13956  20864256.5084   20864262.3444
      1168.4534        910.4834         27.5004         22.5004
   2219271.65955   1702865.67355  23424577.4534   23424584.8404
     -3988.3124      -3107.7764         10.5004          9.2504
    264420.86058    206041.86857  21132989.3284   21132994.8834
      -512.2504       -399.1564         31.2504         26.7504
   1451628.55856   1131138.15856  22332173.8134   22332179.9774
     -2577.7814      -2008.6614         19.5004         15.7504
   -120951.64258    -94247.77957  20486885.0084   20486889.9774
        63.2664         49.2984         29.0004         27.5004
     -3419.00656      -350.37656  22855851.0084   22855857.7464
      -167.7034       -130.6784         13.7504         12.0004
 00  7  1 21 49 30.0000000  0  8G 3G 9G15G17G21G23G29G31
   1244169.93247    956457.69246  22015072.1644   22015078.2114
     -2244.3754      -1748.8644         21.0004         17.0004
    815360.21445    627452.52645  23597654.5784   23597662.1764
     -1546.2974      -1204.9074         10.5004          9.2504
   -749560.85248   -584072.95546  20857607.0704   20857613.1414
      1161.1724        904.8094         28.2504         22.5004
   2339006.52345   1796165.43045  23447362.6174   23447370.1094
     -3993.9534      -3112.1714         11.5004         10.0004
    279822.43648    218043.10947  21135920.2114   21135925.7424
      -514.4534       -400.8734         31.7504         26.7504
   1528956.25647   1191393.47346  22346888.8054   22346894.5594
     -2577.3444      -2008.3204         20.0004         16.2504
   -122652.07048    -95572.75047  20486561.3594   20486566.2584
        50.1414         39.0714         28.7504         27.5004
      1849.80346      3755.21246  22856853.2034   22856860.0234
      -183.5004       -142.9874         13.2504         12.0004
 00  7  1 21 50  0.0000000  0  8G 3G 9G15G17G21G23G29G31
   1311703.41647   1009081.14346  22027923.1954   22027929.1024
     -2257.7504      -1759.2864         20.5004         17.0004
    861987.30345    663785.29245  23606527.0314   23606532.4344
     -1562.0164      -1217.1554         10.5004          8.0004
   -784287.37848   -611132.56646  20850998.8054   20851004.6644
      1154.0164        899.2334         28.7504         23.2504
   2458907.17445   1889594.37045  23470178.7034   23470186.4414
     -3999.3284      -3116.3604         11.5004         10.0004
    295287.22048    230093.58147  21138863.0554   21138868.9494
      -516.4534       -402.4314         31.0004         26.7504
   1606268.42247   1251636.66446  22361600.7034   22361606.5044
     -2576.7034      -2007.8214         20.2504         16.2504
   -123960.56648    -96592.34747  20486312.4694   20486317.3094
        37.1884         28.9774         28.7504         27.7504
      7589.90446      8228.02346  22857945.9924   22857952.6484
      -199.1094       -155.1504         14.0004         12.2504
 00  7  1 21 50 30.0000000  0  8G 3G 9G15G17G21G23G29G31
   1379632.78447   1062013.07846  22040849.7584   22040855.8284
     -2270.8444      -1769.4894         20.2504         16.7504
    909081.18645    700481.86445  23615488.6564   23615495.1954
     -1577.5004      -1229.2214         10.0004          8.5004
   -818802.48748   -638027.42046  20844430.7664   20844436.6604
      1147.0164        893.7784         28.2504         22.7504
   2578964.54945   1983145.42745  23493024.6094   23493033.5664
     -4004.4534      -3120.3534         10.7504         10.0004
    310807.59748    242187.39647  21141816.4534   21141822.1604
      -518.2194       -403.8074         30.5004         26.2504
   1683556.83446   1311861.38046  22376308.3914   22376314.1454
     -2575.8444      -2007.1514         19.5004         16.0004
   -124884.79448    -97312.49047  20486136.6884   20486141.7154
        24.4534         19.0544         29.0004         27.5004
     13793.73846     13062.19146  22859126.3364   22859132.2774
      -214.4844       -167.1314         14.2504         12.5004
 00  7  1 21 51  0.0000000  0  8G 3G 9G15G17G21G23G29G31
   1447951.56646   1115248.43446  22053850.5554   22053856.5434
     -2283.7664      -1779.5584         19.5004         15.7504
    956637.43746    737538.63745  23624538.7114   23624546.0514
     -1592.8914      -1241.2134         12.0004          9.7504
   -853108.26046   -664759.15046  20837902.4774   20837908.3834
      1140.1414        888.4214         19.2504         16.0004
   2699173.21045   2076814.38045  23515899.6804   23515907.9224
     -4009.4064      -3124.2134          9.7504          9.5004
    326379.20247    254321.11146  21144779.8594   21144785.6024
      -519.8444       -405.0734         23.7504         20.7504
   1760817.03347   1372064.07346  22391010.2504   22391016.3324
     -2574.8284      -2006.3604         21.0004         16.2504
   -125429.09448    -97736.60447  20486032.7894   20486037.8874
        11.8284          9.2174         30.7504         28.2504
     20457.71446     18254.89246  22860394.2584   22860400.0474
      -229.7504       -179.0264         12.5004         13.0004
 00  7  1 21 51 30.0000000  0  8G 3G 9G15G17G21G23G29G31
   1516653.04947   1168782.02646  22066924.0634   22066930.0984
     -2296.5474      -1789.5174         20.2504         17.0004
   1004651.00145    774951.81445  23633675.0394   23633682.5314
     -1608.2504      -1253.1824          8.5004          7.0004
   -887207.48848   -691329.96246  20831413.8364   20831419.8014
      1133.0314        882.8814         28.7504         23.0004
   2819527.14745   2170596.54845  23538802.6564   23538810.6994
     -4014.3444      -3128.0604         10.5004         10.0004
    341997.46048    266491.19147  21147751.6644   21147757.2774
      -521.5164       -406.3764         30.7504         26.2504
   1838043.89446   1432240.81946  22405706.2894   22405712.3364
     -2573.8284      -2005.5804         19.7504         16.0004
   -125598.32248    -97868.43547  20486000.6024   20486005.4064
        -0.7664         -0.5974         29.0004         27.5004
     27577.12046     23802.51046  22861749.2504   22861755.8714
      -245.0474       -190.9464         14.2504         12.2504
 00  7  1 21 52  0.0000000  0  8G 3G 9G15G17G21G23G29G31
   1585740.65647   1222616.48746  22080070.9844   22080076.9494
     -2308.9534      -1799.1844         20.2504         16.7504
   1053127.14945    812725.43645  23642900.3284   23642906.1884
     -1623.1874      -1264.8214          9.7504          8.7504
   -921092.46048   -717733.80546  20824965.6414   20824971.4884
      1126.2814        877.6224         28.7504         23.0004
   2940030.52545   2264495.13845  23561733.6724   23561742.1844
     -4018.8444      -3131.5674          9.7504          9.2504
    357667.37248    278701.52547  21150733.4924   21150739.0594
      -522.7974       -407.3744         31.2504         26.5004
   1915242.52546   1492395.56246  22420396.8204   22420402.8324
     -2572.4374      -2004.4974         19.2504         15.5004
   -125387.02748    -97703.75947  20486041.0234   20486045.7704
       -12.9844        -10.1184         29.2504         27.5004
     35157.72646     29709.50146  22863192.1414   22863198.7274
      -259.9844       -202.5854         14.7504         12.0004
 00  7  1 21 52 30.0000000  0  8G 3G 9G15G17G21G23G29G31
   1655200.24047   1276740.80446  22093288.9384   22093295.0554
     -2321.6564      -1809.0834         20.2504         16.7504
   1102053.52245    850849.89145  23652210.3834   23652217.3834
     -1638.5314      -1276.7784          9.5004          7.2504
   -954772.92848   -743978.28746  20818556.4454   20818562.3754
      1119.0944        872.0214         28.5004         23.0004
   3060670.08845   2358499.85645  23584690.3984   23584698.2074
     -4023.7344      -3135.3774          8.5004          8.7504
    373376.33648    290942.28647  21153722.9454   21153728.7234
      -524.4374       -408.6534         30.7504         26.2504
   1992400.28546   1552518.47646  22435079.4304   22435085.5124
     -2571.4064      -2003.6934         18.7504         15.2504
   -124807.44148    -97252.09547  20486151.1884   20486155.9694
       -25.6094        -19.9554         29.5004         27.7504
     43187.56746     35966.52346  22864719.8674   22864725.7154
      -275.3124       -214.5294         14.5004         12.2504
 00  7  1 21 53  0.0000000  0  8G 3G 9G15G17G21G23G29G31
   1725033.04547   1331155.94146  22106577.4454   22106583.3054
     -2333.8594      -1818.5924         20.0004         16.2504
   1151432.72445    889327.17245  23661606.6024   23661613.3874
     -1653.4374      -1288.3934          9.2504          8.7504
   -988243.59048   -770059.29846  20812187.1024   20812193.1024
      1112.2504        866.6884         28.2504         22.7504
   3181447.75944   2452612.18645  23607673.5864   23607682.7774
     -4028.0944      -3138.7744          7.2504          8.2504
    389127.62948    303216.02047  21156720.3444   21156726.0634
      -525.6564       -409.6024         30.7504         26.2504
   2069520.41146   1612612.03446  22449755.1724   22449761.1954
     -2569.9374      -2002.5494         19.2504         15.5004
   -123856.28248    -96510.90547  20486332.2424   20486337.0824
       -37.7974        -29.4524         29.5004         27.7504
     51670.39246     42576.53746  22866334.3984   22866340.7974
      -290.2344       -226.1574         14.5004         12.0004
 00  7  1 21 53 30.0000000  0  8G 3G 9G15G17G21G23G29G31
   1795230.62746   1385855.28946  22119935.5234   22119941.7814
     -2346.0004      -1828.0524         19.5004         16.0004
   1201258.37645    928152.38245  23671088.1644   23671096.6414
     -1668.3284      -1299.9964          9.2504          8.5004
  -1021508.63548   -795980.08446  20805856.8444   20805862.8794
      1105.3594        861.3194         28.2504         22.7504
   3302355.90744   2546826.18745  23630681.2664   23630691.2664
     -4032.4694      -3142.1834          7.0004          7.2504
    404915.20648    315518.02547  21159724.7194   21159730.2854
      -526.8754       -410.5524         31.0004         26.2504
   2146596.24346   1672671.07646  22464422.0704   22464427.9534
     -2568.4694      -2001.4044         19.0004         15.5004
   -122540.27048    -95485.41647  20486582.5554   20486587.4884
       -49.9844        -38.9494         29.0004         27.7504
     60600.23446     49534.85845  22868033.2274   22868039.2734
      -305.1414       -237.7724         14.2504         11.7504
 00  7  1 21 54  0.0000000  0  8G 3G 9G15G17G21G23G29G31
   1865782.13247   1440830.44546  22133361.3594   22133367.2664
     -2357.5004      -1837.0134         20.0004         16.0004
   1251521.60545    967318.49845  23680653.1954   23680659.5124
     -1682.6254      -1311.1364          9.0004          8.0004
  -1054574.20648   -821745.43946  20799564.6024   20799570.4964
      1098.9384        856.3154         28.2504         23.0004
   3423384.86845   2641134.27345  23653714.0084   23653720.3714
     -4036.2194      -3145.1064          8.0004          7.5004
    420730.04348    327841.26947  21162733.9454   21162739.7234
      -527.5004       -411.0394         30.5004         26.0004
   2223619.06546   1732688.82646  22479079.1254   22479084.9734
     -2566.4534      -1999.8344         19.0004         15.5004
   -120867.54948    -94181.97247  20486900.8984   20486905.8914
       -61.5944        -47.9954         29.2504         28.0004
     69968.63346     56834.91046  22869816.2114   22869822.6564
      -319.4844       -248.9494         14.5004         12.0004
 00  7  1 21 54 30.0000000  0  8G 3G 9G15G17G21G23G29G31
   1936689.03847   1496082.53746  22146854.4534   22146860.5704
     -2369.2974      -1846.2054         20.0004         16.2504
   1302225.16445   1006827.72945  23690301.7114   23690308.6054
     -1697.3124      -1322.5814          9.2504          8.2504
  -1087434.80648   -847351.07746  20793311.4924   20793317.2704
      1092.0784        850.9704         28.7504         23.2504
   3544536.78845   2735538.17545  23676768.6724   23676778.0164
     -4040.2814      -3148.2714          8.2504          6.7504
    436575.25348    340188.19347  21165749.2584   21165755.0234
      -528.5164       -411.8304         30.2504         26.0004
   2300591.94346   1792667.65746  22493726.3674   22493732.2504
     -2564.7664      -1998.5194         18.7504         15.5004
   -118835.32048    -92598.39547  20487287.7424   20487292.5704
       -73.5784        -57.3344         29.5004         28.0004
     79779.07646     64479.41746  22871683.2894   22871689.7934
      -334.2344       -260.4424         14.7504         12.5004
 00  7  1 21 55  0.0000000  0  8G 3G 9G15G17G21G23G29G31
   2007940.22247   1551602.89046  22160413.4224   22160419.5394
     -2380.6414      -1855.0454         20.0004         16.2504
   1353359.63745   1046672.75545  23700031.9304   23700038.8244
     -1711.5474      -1333.6734          9.2504          8.2504
  -1120097.24048   -872802.29046  20787096.2194   20787102.1134
      1085.5314        845.8694         29.0004         23.5004
   3665801.19745   2830029.80945  23699843.2894   23699850.2074
     -4043.8914      -3151.0844          8.0004          7.5004
    452442.36248    352552.17647  21168768.5784   21168774.2974
      -529.1414       -412.3174         30.5004         26.0004
   2377505.75646   1852600.45746  22508363.0474   22508369.0124
     -2562.6874      -1996.8994         18.7504         15.0004
   -116452.53848    -90741.65947  20487741.0474   20487745.9574
       -85.1564        -66.3564         29.5004         27.7504
     90022.67146     72461.40646  22873632.5084   22873638.8714
      -348.5624       -271.6074         15.0004         12.0004
 00  7  1 21 55 30.0000000  0  8G 3G 9G15G17G21G23G29G31
   2079529.20746   1607386.47746  22174036.2974   22174042.4614
     -2392.0164      -1863.9084         19.7504         16.0004
   1404920.36045   1086849.93945  23709844.2664   23709850.9224
     -1725.9064      -1344.8624          9.2504          7.7504
  -1152563.70848   -898100.80746  20780917.7664   20780923.6484
      1078.8134        840.6334         28.7504         23.7504
   3787172.47845   2924604.70745  23722940.3444   23722948.9964
     -4047.5784      -3153.9574          9.0004          8.2504
    468326.57648    364929.49247  21171791.3284   21171796.9304
      -529.8594       -412.8774         30.5004         26.0004
   2454355.78346   1912483.55946  22522986.8754   22522992.7114
     -2560.7034      -1995.3534         18.7504         15.0004
   -113723.70348    -88615.26947  20488260.3524   20488264.9804
       -96.8284        -75.4504         29.7504         28.0004
    100695.50746     80777.90746  22875663.3984   22875669.2344
      -363.0314       -282.8814         14.7504         12.5004
 00  7  1 21 56  0.0000000  0  8G 3G 9G15G17G21G23G29G31
   2151463.11146   1663438.82646  22187724.7504   22187730.7974
     -2403.6254      -1872.9554         19.7504         16.0004
   1456916.43945   1127366.36345  23719738.9224   23719745.6604
     -1740.5624      -1356.2824          9.5004          8.0004
  -1184822.36548   -923237.39546  20774779.3674   20774785.3204
      1071.6884        835.0814         29.2504         23.7504
   3908659.08245   3019269.41145  23746059.1174   23746066.8204
     -4051.5624      -3157.0624          9.5004          8.2504
    484237.06448    377327.27547  21174818.7814   21174824.6054
      -530.9064       -413.6934         30.2504         26.2504
   2531151.21446   1972324.11746  22537600.6804   22537606.5274
     -2559.0474      -1994.0624         18.5004         15.0004
   -110639.53448    -86212.00247  20488847.1954   20488851.8954
      -108.8284        -84.8014         30.0004         28.2504
    111807.18246     89436.36546  22877777.3914   22877783.6954
      -377.8124       -294.3994         14.2504         12.7504
 00  7  1 21 56 30.0000000  0  8G 3G 9G15G17G21G23G29G31
   2223742.11746   1719760.07046  22201478.8594   22201484.7664
     -2414.7344      -1881.6114         19.0004         16.0004
   1509349.73145   1168223.46645  23729716.4614   23729722.6954
     -1754.7664      -1367.3504          9.5004          8.7504
  -1216868.80048   -948208.62946  20768681.1644   20768687.1884
      1064.9384        829.8214         29.2504         23.5004
   4030262.11745   3114024.86345  23769199.0554   23769206.7814
     -4055.0624      -3159.7894          9.7504          8.7504
    500176.16548    389747.34547  21177852.1094   21177858.0514
      -531.4844       -414.1444         30.7504         26.2504
   2607894.53646   2032124.06546  22552204.3674   22552210.1684
     -2556.9534      -1992.4314         18.2504         15.2504
   -107197.83248    -83530.14547  20489502.3134   20489506.9534
      -120.3914        -93.8114         29.7504         28.0004
    123360.08146     98438.61546  22879976.1564   22879982.5554
      -392.1564       -305.5764         14.5004         13.0004
 00  7  1 21 57  0.0000000  0  8G 3G 9G15G17G21G23G29G31
   2296355.62546   1776341.97146  22215296.9224   22215303.4144
     -2426.2034      -1890.5484         18.7504         16.2504
   1562211.09045   1209414.12645  23739775.6094   23739781.3164
     -1769.3594      -1378.7224          9.5004          7.7504
  -1248709.37848   -973019.45046  20762622.0394   20762627.9694
      1057.7034        824.1844         29.5004         24.0004
   4151971.47745   3208863.18545  23792359.5704   23792366.3324
     -4058.9374      -3162.8084          9.5004          8.5004
    516135.53248    402183.21647  21180889.1644   21180895.0594
      -532.5164       -414.9474         30.7504         26.2504
   2684576.77346   2091876.41246  22566796.2504   22566802.1804
     -2555.2504      -1991.1044         18.0004         14.5004
   -103407.42248    -80576.56347  20490223.4454   20490228.3794
      -132.3594       -103.1374         29.5004         28.2504
    135345.61446    107777.98946  22882257.0944   22882263.2114
      -406.9224       -317.0824         14.7504         12.5004
 00  7  1 21 57 30.0000000  0  8G 3G 9G15G17G21G23G29G31
   2369299.63746   1833181.40246  22229177.4924   22229183.8204
     -2436.6414      -1898.6814         18.7504         15.7504
   1615498.10445   1250936.45545  23749915.8834   23749922.8714
     -1783.0314      -1389.3754          9.5004          8.5004
  -1280343.71348   -997669.56946  20756602.1884   20756608.0944
      1051.3284        819.2174         29.7504         24.2504
   4273784.06745   3303781.90945  23815540.5554   23815549.1024
     -4061.8124      -3165.0494          9.2504          9.2504
    532113.30148    414633.42347  21183929.4924   21183935.3054
      -532.5944       -415.0084         30.7504         26.2504
   2761195.81046   2151579.52446  22581376.7584   22581382.8754
     -2552.6094      -1989.0464         18.0004         14.5004
    -99270.42548    -77352.91047  20491010.6414   20491015.5164
      -143.3594       -111.7094         29.2504         28.2504
    147761.83246    117452.94846  22884619.6484   22884625.7894
      -420.7344       -327.8454         15.0004         13.0004
 00  7  1 21 58  0.0000000  0  8G 3G 9G15G17G21G23G29G31
   2442568.60146   1890274.04446  22243120.5234   22243126.2074
     -2447.6564      -1907.2654         18.7504         15.5004
   1669207.21145   1292787.69745  23760135.9304   23760142.6804
     -1797.2814      -1400.4794          9.7504          9.0004
  -1311772.60948  -1022159.59746  20750621.4534   20750627.3484
      1044.2194        813.6774         30.0004         24.2504
   4395695.55145   3398777.69945  23838738.5474   23838748.5124
     -4065.3124      -3167.7764          8.7504          8.7504
    548106.04648    427095.29647  21186972.9064   21186978.6604
      -533.2974       -415.5564         31.0004         26.5004
   2837748.46446   2211230.90846  22595944.0704   22595950.0704
     -2550.5944      -1987.4764         18.2504         14.5004
    -94790.27348    -73861.86747  20491863.1564   20491868.0784
      -155.0164       -120.7914         29.0004         28.0004
    160606.03246    127461.41446  22887064.1484   22887070.0084
      -435.2194       -339.1314         15.2504         12.5004
 00  7  1 21 58 30.0000000  0  8G 3G 9G15G17G21G23G29G31
   2516161.54846   1947619.13946  22257124.6174   22257130.6294
     -2458.3284      -1915.5804         19.2504         15.5004
   1723338.94045   1334968.22345  23770437.0784   23770444.0664
     -1811.2974      -1411.4004          9.7504          8.7504
  -1342992.83248  -1046487.02846  20744680.5164   20744686.4924
      1037.3134        808.2954         29.7504         24.5004
   4517705.97445   3493850.58545  23861957.0554   23861967.2424
     -4068.5004      -3170.2604          8.2504          8.7504
    564115.08548    439569.86847  21190019.3834   21190025.2304
      -533.7814       -415.9334         31.0004         26.5004
   2914235.61946   2270831.24646  22610499.5004   22610505.3954
     -2548.3444      -1985.7224         18.7504         14.7504
    -89965.93948    -70102.63347  20492781.1094   20492785.9264
      -166.4064       -129.6674         29.0004         28.2504
    173879.28346    137804.20846  22889589.6484   22889596.1524
      -449.4534       -350.2234         14.7504         12.7504
 00  7  1 21 59  0.0000000  0  8G 3G 9G15G17G21G23G29G31
   2590074.67146   2005213.72846  22271189.7504   22271195.8554
     -2469.4844      -1924.2744         19.2504         15.5004
   1777891.17745   1377476.47545  23780818.2114   23780824.2704
     -1825.7974      -1422.6994         10.0004          8.5004
  -1374003.61248  -1070651.24946  20738779.2424   20738785.2544
      1029.7974        802.4394         29.5004         24.2504
   4639812.43845   3588998.29745  23885193.7504   23885201.4654
     -4072.1874      -3173.1334          7.7504          8.5004
    580138.91548    452055.97147  21193068.5394   21193074.3284
      -534.7664       -416.7004         30.7504         26.5004
   2990655.76046   2330379.37646  22625042.0554   22625047.8324
     -2546.6094      -1984.3714         19.0004         15.0004
    -84799.01848    -66076.43947  20493764.4144   20493769.4654
      -178.3284       -138.9574         29.5004         28.0004
    187580.33346    148480.37046  22892196.9144   22892203.1954
      -464.2194       -361.7294         14.7504         12.7504
 00  7  1 21 59 30.0000000  0  8G 3G 9G15G17G21G23G29G31
   2664308.53346   2063058.24546  22285316.3204   22285322.2384
     -2479.8124      -1932.3214         19.0004         15.5004
   1832865.93645   1420313.93145  23791279.5004   23791287.0274
     -1839.5624      -1433.4254          9.7504          9.0004
  -1404800.08248  -1094648.47846  20732918.9064   20732924.8364
      1022.9224        797.0824         29.5004         24.7504
   4762016.28745   3684221.88545  23908448.3754   23908456.9104
     -4075.0944      -3175.3984          7.5004          8.5004
    596180.06948    464555.57247  21196121.0164   21196126.9454
      -535.0004       -416.8834         30.5004         26.2504
   3067011.30346   2389877.16146  22639571.8364   22639577.3324
     -2544.1414      -1982.4474         19.2504         15.2504
    -79287.39148    -61781.64147  20494813.1724   20494817.9654
      -189.5004       -147.6624         29.5004         28.0004
    201711.72746    159491.84446  22894886.2274   22894892.2384
      -478.2344       -372.6504         15.2504         13.0004
 00  7  1 22  0  0.0000000  0  8G 3G 9G15G17G21G23G29G31
   2738857.99246   2121148.67246  22299502.5164   22299508.2584
     -2490.3284      -1940.5154         18.5004         15.5004
   1888260.30245   1463478.34645  23801820.4694   23801826.0704
     -1853.5784      -1444.3474          9.7504          8.7504
  -1435382.78148  -1118479.12746  20727099.1884   20727105.0354
      1015.7034        791.4574         30.0004         24.5004
   4884313.52845   3779518.29145  23931721.2664   23931730.4804
     -4078.2194      -3177.8334          7.5004          8.2504
    612235.81348    477066.54447  21199176.4844   21199182.2034
      -535.5624       -417.3214         30.7504         26.2504
   3143299.68246   2449322.61946  22654089.3134   22654095.1374
     -2541.9374      -1980.7314         18.7504         14.7504
    -73433.64148    -57220.25947  20495927.1334   20495931.9024
      -200.9374       -156.5754         29.5004         28.0004
    216270.82846    170836.60646  22897656.6484   22897662.8244
      -492.5624       -383.8154         15.2504         12.7504
 00  7  1 22  0 30.0000000  0  8G 3G 9G15G17G21G23G29G31
   2813722.90346   2179484.92646  22313748.8674   22313755.2074
     -2500.7344      -1948.6244         18.0004         15.5004
   1944075.43645   1506970.65445  23812441.7344   23812448.9574
     -1867.5164      -1455.2074         10.0004          9.7504
  -1465747.14748  -1142139.64246  20721321.1414   20721326.9534
      1008.4844        785.8324         30.0004         24.7504
   5006704.79044   3874887.89745  23955010.8674   23955020.5634
     -4081.2664      -3180.2074          7.2504          7.7504
    628308.45748    489590.69247  21202234.9774   21202240.6604
      -536.0474       -417.6994         30.7504         26.2504
   3219522.85046   2508717.27646  22668593.9064   22668600.0704
     -2539.6874      -1978.9774         18.5004         14.5004
    -67236.18848    -52391.04947  20497106.4844   20497111.2074
      -212.3124       -165.4384         29.5004         28.2504
    231259.46646    182516.08446  22900509.1954   22900515.7814
      -506.7814       -394.8944         15.2504         13.0004
 00  7  1 22  1  0.0000000  0  8G 3G 9G15G17G21G23G29G31
   2888900.12446   2238064.51046  22328054.7194   22328060.9884
     -2511.0624      -1956.6724         18.0004         15.0004
   2000309.76945   1550789.61245  23823142.6954   23823150.3164
     -1881.4224      -1466.0434         10.0004          9.2504
  -1495891.98448  -1165629.10346  20715584.6564   20715590.6454
      1001.1564        780.1224         30.2504         24.7504
   5129187.87244   3970329.10845  23978318.6954   23978327.7704
     -4084.2504      -3182.5324          7.0004          7.5004
    644397.12648    502127.32047  21205296.6564   21205302.4804
      -536.5164       -418.0644         30.5004         26.2504
   3295679.60246   2568060.16146  22683085.7664   22683091.9534
     -2537.4224      -1977.2124         18.0004         15.0004
    -60696.30948    -47295.01247  20498350.9144   20498355.8244
      -223.6724       -174.2904         29.0004         28.2504
    246676.66746    194529.49346  22903442.6024   22903448.4144
      -521.0004       -405.9744         15.0004         13.0004
 00  7  1 22  1 30.0000000  0  8G 3G 9G15G17G21G23G29G31
   2964381.58946   2296881.15646  22342418.3914   22342424.5434
     -2521.0164      -1964.4284         17.5004         15.0004
   2056956.56245   1594929.91045  23833922.4774   23833929.0864
     -1895.0164      -1476.6364         10.7504          9.2504
  -1525820.92648  -1188950.36446  20709889.3364   20709895.1374
       994.0784        774.6064         30.2504         24.7504
   5251755.59444   4065836.21445  24001642.3364   24001649.1954
     -4086.9064      -3184.6024          7.2504          6.7504
    660495.80948    514671.71947  21208360.0704   21208365.6844
      -536.7034       -418.2104         31.0004         26.2504
   3371763.81846   2627346.49746  22697564.1884   22697570.2234
     -2534.8754      -1975.2274         17.7504         14.7504
    -53820.18848    -41937.00747  20499659.3834   20499664.2584
      -234.7194       -182.8984         29.0004         28.0004
    262516.28646    206872.04646  22906457.0164   22906461.5744
      -534.9534       -416.8474         14.5004         12.2504
 00  7  1 22  2  0.0000000  0  8G 3G 9G15G17G21G23G29G31
   3040167.48546   2355935.03746  22356840.0234   22356845.9304
     -2531.2664      -1972.4154         17.7504         15.5004
   2114017.91245   1639393.28245  23844781.0784   23844788.2544
     -1908.9844      -1487.5204         11.0004          9.2504
  -1555529.33948  -1212099.75946  20704236.0474   20704241.8244
       986.5314        768.7264         30.2504         24.7504
   5374409.17945   4161410.25945  24024982.9304   24024993.5744
     -4089.9064      -3186.9404          7.5004          6.7504
    676606.78948    527225.72547  21211425.7734   21211431.4224
      -537.2814       -418.6614         31.0004         26.5004
   3447778.05946   2686578.32246  22712029.3364   22712035.2194
     -2532.6724      -1973.5114         17.7504         14.7504
    -46605.74548    -36315.33947  20501032.3444   20501037.3364
      -246.1564       -191.8104         29.2504         28.2504
    278780.81946                  22909552.0554
      -549.2814                         14.7504
 00  7  1 22  2 30.0000000  0  8G 3G 9G15G17G21G23G29G31
   3116256.24046   2415224.92946  22371319.5164   22371325.5744
     -2541.3444      -1980.2684         17.7504         15.2504
   2171493.87345   1684179.76045  23855718.8834   23855724.8014
     -1922.8124      -1498.2954         11.7504         10.2504
  -1585013.94348  -1235074.75546  20698625.2894   20698631.1254
       979.0314        762.8814         30.2504         24.7504
   5497148.42945   4257051.05445  24048340.0394   24048350.1214
     -4092.7664      -3189.1684          8.2504          6.2504
    692731.34148    539790.30847  21214494.3054   21214499.9064
      -537.7504       -419.0264         31.0004         26.2504
   3523723.20046   2745756.31246  22726481.2974   22726487.1454
     -2530.3914      -1971.7334         17.5004         14.5004
    -39052.26248    -30429.48947  20502469.8204   20502474.6024
      -257.4694       -200.6254         29.5004         28.2504
    295471.32046      9569.28956  22912727.6254   22912734.0004
      -563.4844       -439.0794         14.5004         12.7504
 00  7  1 22  3  0.0000000  0  8G 3G 9G15G17G21G23G29G31
   3192649.03446   2474751.72946  22385856.5704   22385862.8874
     -2551.2504      -1987.9874         17.7504         15.0004
   2229386.76345   1729291.03345  23866735.2974   23866741.5084
     -1936.5164      -1508.9734         11.7504          9.7504
  -1614269.43948  -1257871.22946  20693058.1484   20693063.9024
       971.5474        757.0504         30.5004         25.2504
   5619975.07745   4352759.97045  24071712.7034   24071721.5084
     -4095.4534      -3191.2624          8.7504          7.0004
    708873.00848    552368.22547  21217566.0554   21217571.8324
      -538.1414       -419.3304         30.7504         26.2504
   3599602.30746   2804882.85046  22740920.3914   22740925.9574
     -2528.0004      -1969.8704         17.5004         14.2504
    -31157.07448    -24277.37747  20503972.0704   20503976.7934
      -268.6564       -209.3434         29.0004         28.2504
    312590.56946     22908.96746  22915985.2344   22915991.4344
      -577.5624       -450.0494         14.2504         13.2504
 00  7  1 22  3 30.0000000  0  8G 3G 9G15G17G21G23G29G31
   3269341.16946   2534511.78146  22400450.3754   22400456.7854
     -2561.2974      -1995.8164         17.2504         14.7504
   2287693.88945   1774725.17645  23877830.6174   23877837.3554
     -1950.3914      -1519.7854         11.5004         10.2504
  -1643295.63548  -1280489.02946  20687534.5784   20687540.4734
       963.7664        750.9864         30.5004         25.2504
   5742885.67945   4448534.31845  24095101.9774   24095112.9384
     -4098.3124      -3193.4904          9.2504          7.0004
    725029.58348    564957.76447  21220640.4224   21220645.9184
      -538.7344       -419.7934         31.0004         26.2504
   3675413.33246   2863956.33046  22755346.9844   22755353.2194
     -2525.8284      -1968.1784         17.5004         14.2504
    -22922.50548    -17860.81847  20505539.0004   20505543.7934
      -280.0624       -218.2314         28.7504         28.2504
    330136.18146     36580.85746  22919324.2734   22919330.5784
      -591.8914       -461.2134         14.2504         13.0004
 00  7  1 22  4  0.0000000  0  8G 3G 9G15G17G21G23G29G31
   3346331.51746   2594504.19246  22415101.1724   22415107.4774
     -2571.2344      -2003.5594         17.5004         14.7504
   2346415.88845   1820482.54545  23889004.9534   23889012.3164
     -1964.2344      -1530.5724         11.7504         10.2504
  -1672088.93648  -1302925.34646  20682055.3914   20682061.2974
       955.9224        744.8744         30.7504         25.2504
   5865880.15345   4544373.97345  24118507.4534   24118513.3364
     -4101.1414      -3195.6944          9.5004          7.0004
    741202.40148    577559.96847  21223718.0164   21223723.7584
      -539.3124       -420.2444         31.2504         26.2504
   3751157.48646   2922977.70646  22769760.6954   22769767.0124
     -2523.6414      -1966.4734         17.0004         13.5004
    -14347.64948    -11179.09847  20507170.7114   20507175.5274
      -291.4374       -227.0944         28.7504         28.0004
    348109.49646     50586.03346  22922744.8914   22922751.4064
      -606.1724       -472.3424         14.2504         12.7504
 00  7  1 22  4 30.0000000  0  8G 3G 9G15G17G21G23G29G31
   3423616.51246   2654726.20746  22429808.0944   22429814.2234
     -2581.2034      -2011.3274         16.7504         14.7504
   2405550.45645   1866561.42445  23900258.2424   23900264.0314
     -1978.1724      -1541.4334         11.5004         10.2504
  -1700648.44148  -1325179.48646  20676620.6804   20676626.6214
       947.9064        738.6284         30.7504         25.2504
   5988956.04945   4640277.10545  24141928.5864   24141939.9574
     -4104.0004      -3197.9224          9.7504          6.2504
    757390.07548    590173.74647  21226798.3754   21226804.0004
      -539.9844       -420.7674         31.2504         26.2504
   3826833.37746   2981945.88146  22784161.2034   22784167.1334
     -2521.5314      -1964.8304         16.7504         14.0004
     -5434.23048     -4233.56047  20508867.0234   20508871.9694
      -302.9224       -236.0434         29.0004         28.2504
    366509.18046     64923.43946  22926246.1954   22926252.4184
      -620.5624       -483.5554         14.2504         12.5004
 00  7  1 22  5  0.0010000  0  8G 3G 9G15G17G21G23G29G31
   3501199.53846   2715180.44746  22444571.9114   22444578.2284
     -2590.8754      -2018.8644         17.0004         14.2504
   2465101.84645   1912965.09545  23911589.9034   23911595.5284
     -1991.8444      -1552.0864         11.7504         10.5004
  -1728969.84548  -1347248.08946  20671231.3174   20671237.1884
       940.0474        732.5044         30.5004         25.5004
   6112118.86545   4736247.99145  24165365.5674   24165376.3764
     -4106.6254      -3199.9684         10.0004          7.2504
    773596.33948    602802.00447  21229882.3334   21229887.8644
      -540.4534       -421.1324         31.2504         26.2504
   3902446.41646   3040865.10746  22798549.8884   22798556.0754
     -2519.2194      -1963.0284         16.5004         13.7504
      3820.66648      2978.06547  20510628.1534   20510632.8884
      -314.1414       -244.7854         29.0004         28.2504
    385338.41246     79595.56146  22929829.2244   22929835.5284
      -634.7344       -494.5984         14.2504         12.2504
 00  7  1 22  5 30.0010000  0  8G 3G 9G15G17G21G23G29G31
   3579067.77346   2775856.93046  22459389.3494   22459395.5014
     -2600.3444      -2026.2424         16.5004         14.5004
   2525060.03245   1959685.74545  23923000.1064   23923006.6464
     -2005.3754      -1562.6304         11.5004         10.0004
  -1757054.26248  -1369132.02546  20665886.8724   20665892.8254
       932.2194        726.4044         30.7504         25.2504
   6235353.78445   4832275.02345  24188816.5914   24188823.5914
     -4109.0624      -3201.8674          9.7504          7.0004
    789814.97648    615439.91247  21232968.7864   21232974.3064
      -540.7974       -421.4004         31.5004         26.5004
   3977986.44546   3099727.42946  22812924.7084   22812930.9424
     -2516.8124      -1961.1534         16.5004         13.7504
     13410.69948     10450.83947  20512453.0364   20512457.7944
      -325.2344       -253.4294         29.5004         28.2504
    404590.42046     94597.12646  22933492.6614   22933498.6614
      -648.7664       -505.5324         14.5004         12.2504
 00  7  1 22  6  0.0010000  0  8G 3G 9G15G17G21G23G29G31
   3657220.77046   2836755.32946  22474261.7474   22474268.2394
     -2609.6414      -2033.4864         16.7504         14.2504
   2585425.92245   2006724.10645  23934487.7004   23934493.2434
     -2018.8124      -1573.1014         11.5004         10.0004
  -1784900.46948  -1390830.33547  20660588.0444   20660594.0094
       924.3914        720.3044         30.7504         26.0004
   6358663.50645   4928360.35445  24212281.2554   24212288.8534
     -4111.3754      -3203.6694          9.2504          7.7504
    806046.50148    628087.86547  21236057.5674   21236063.2394
      -541.0784       -421.6194         31.7504         26.5004
   4053455.85546   3158534.73246  22827286.2944   22827293.0094
     -2514.2814      -1959.1804         16.2504         13.5004
     23335.56448     18184.52347  20514341.7244   20514346.4234
      -336.2344       -262.0014         29.5004         28.5004
    424265.34746    109928.23246  22937236.5914   22937242.7674
      -662.7034       -516.3924         14.2504         12.2504
 00  7  1 22  6 30.0010000  0  8G 3G 9G15G17G21G23G29G31
   3735661.67046   2897878.04146  22489188.3804   22489194.7084
     -2619.3284      -2041.0354         16.5004         14.5004
   2646204.02445   2054083.60745  23946052.9894   23946059.3294
     -2032.6724      -1583.9004         11.0004          9.5004
  -1812500.83548  -1412337.09647  20655335.9424   20655341.7674
       916.0314        713.7914         31.2504         26.0004
   6482052.00445   5024507.03345  24235761.6144   24235771.9544
     -4114.1254      -3205.8124          8.7504          7.2504
    822296.50148    640750.20147  21239149.8334   21239155.2474
      -541.8444       -422.2164         31.7504         27.0004
   4128859.98546   3217291.15146  22841634.8884   22841640.9704
     -2512.2504      -1957.5974         16.2504         13.5004
     33600.12048     26182.89247  20516294.7164   20516299.3214
      -347.7034       -270.9374         29.7504         28.5004
    444368.10546    125592.71846  22941061.8804   22941067.8214
      -677.0944       -527.6064         14.0004         12.2504
 00  7  1 22  7  0.0010000  0  8G 3G 9G15G17G21G23G29G31
   3814382.37546   2959218.78946  22504168.9274   22504175.2784
     -2628.6724      -2048.3164         16.7504         14.2504
   2707387.55545   2101759.06545  23957695.8564   23957702.4194
     -2046.2194      -1594.4564         10.7504         10.2504
  -1839859.00848  -1433655.13647  20650129.8104   20650135.5634
       907.8594        707.4234         31.7504         26.5004
   6605512.13645   5120709.54745  24259255.6694   24259263.3494
     -4116.5624      -3207.7114          8.0004          6.7504
    838559.30148    653422.51447  21242244.3564   21242249.7124
      -542.3444       -422.6064         31.2504         26.5004
   4204192.86346   3275992.05246  22855970.3494   22855976.4784
     -2509.9374      -1955.7954         16.2504         13.2504
     44198.05548     34441.03647  20518311.5444   20518316.1734
      -358.8444       -279.6194         29.5004         28.5004
    464892.70746    141585.90546  22944968.0754   22944974.9354
      -691.2194       -538.6124         14.2504         12.5004
 00  7  1 22  7 30.0010000  0  8G 3G 9G15G17G21G23G29G31
   3893385.01446   3020779.23346  22519202.3964   22519208.8414
     -2638.0004      -2055.5844         16.7504         14.2504
   2768980.66245   2149753.66745  23969416.3564   23969422.8494
     -2059.7974      -1605.0374         10.7504          9.2504
  -1866967.91348  -1454778.93847  20644971.1694   20644977.0994
       899.5634        700.9584         32.0004         26.7504
   6729047.22045   5216970.44945  24282764.0444   24282773.2004
     -4118.9694      -3209.5864          7.5004          7.0004
    854839.82548    666108.63447  21245342.4814   21245348.3294
      -542.8444       -422.9954         31.0004         26.2504
   4279459.34646   3334641.21946  22870293.2084   22870299.2674
     -2507.6724      -1954.0304         16.2504         13.5004
     55133.82648     42962.43147  20520392.7004   20520397.3884
      -370.0474       -288.3484         29.2504         28.5004
    485843.87846    157911.47746  22948954.9274   22948960.6574
      -705.3754       -549.6434         14.5004         12.5004
 00  7  1 22  8  0.0010000  0  8G 3G 9G15G17G21G23G29G31
   3972664.38646   3082555.30446  22534289.0364   22534295.3534
     -2647.2194      -2062.7684         17.0004         14.5004
   2830978.93845   2198063.96045  23981214.6384   23981221.0364
     -2073.3444      -1615.5934         10.5004          8.7504
  -1893828.41548  -1475709.17847  20639859.6694   20639865.5994
       891.1884        694.4324         31.7504         26.5004
   6852652.93744   5313286.38045  24306285.5994   24306295.0834
     -4121.3754      -3211.4614          6.7504          6.5004
    871134.66748    678805.91247  21248443.2944   21248449.0244
      -543.4224       -423.4464         31.0004         26.2504
   4354656.35046   3393236.24646  22884603.1384   22884609.3724
     -2505.4064      -1952.2654         16.7504         13.2504
     66403.78648     51744.23147  20522537.0994   20522541.8104
      -381.2344       -297.0664         29.2504         28.2504
    507217.91746    174566.57846  22953022.1384   22953028.4194
      -719.5164       -560.6624         14.2504         12.2504
 00  7  1 22  8 30.0010000  0  8G 3G 9G15G17G21G23G29G31
   4052215.52946   3144543.13746  22549426.7944   22549433.2164
     -2656.4224      -2069.9394         16.7504         14.0004
   2893378.92945   2246687.32345  23993088.4194   23993096.1104
     -2086.8914      -1626.1494          9.7504          8.5004
  -1920440.73248  -1496446.02847  20634795.4504   20634801.3104
       882.7034        687.8214         31.5004         26.7504
   6976325.78344   5409654.63045  24329819.7714   24329831.3294
     -4123.7504      -3213.3124          6.5004          7.0004
    887442.05548    691512.97347  21251546.5284   21251552.2004
      -544.0164       -423.9084         31.0004         26.2504
   4429781.74746   3451775.46546  22898898.7164   22898904.4584
     -2503.2034      -1950.5484         16.5004         13.2504
     78005.03048     60784.18147  20524744.8804   20524749.3334
      -392.4374       -305.7954         29.5004         28.7504
    529012.01346    191548.98946  22957169.1464   22957175.1924
      -733.6874       -571.7054         14.0004         12.0004
 00  7  1 22  9  0.0010000  0  8G 3G 9G15G17G21G23G29G31
   4132041.00946   3206744.75046  22564617.4354   22564623.8564
     -2665.2504      -2076.8184         17.0004         13.7504
   2956184.70945   2295626.88145  24005040.3964   24005048.5444
     -2100.1414      -1636.4734          9.5004          8.7504
  -1946797.58848  -1516983.81647  20629780.0914   20629786.0914
       874.4224        681.3684         31.5004         26.7504
   7100068.95944   5506077.62945  24353366.7394   24353374.1854
     -4125.7974      -3214.9074          6.2504          6.7504
    903767.46048    704234.07647  21254653.1384   21254658.8684
      -544.3444       -424.1644         30.7504         26.2504
   4504840.44346   3510262.72846  22913182.2394   22913188.1574
     -2500.7034      -1948.6004         16.5004         13.5004
     89941.79248     70085.57247  20527016.2944   20527021.0054
      -403.3444       -314.2944         29.5004         28.7504
    551230.61346    208862.17246  22961397.3884   22961403.7044
      -747.5474       -582.5044         13.5004         12.0004
 00  7  1 22  9 30.0010000  0  8G 3G 9G15G17G21G23G29G31
   4212133.29046   3269154.26446  22579858.5444   22579864.8724
     -2674.2194      -2083.8074         17.5004         14.0004
   3019390.51045   2344878.09845  24017067.7164   24017074.3724
     -2113.5784      -1646.9444          9.2504          8.0004
  -1972901.46948  -1537324.48847  20624812.6924   20624818.4814
       865.8284        674.6714         31.7504         26.7504
   7223876.62644   5602550.90845  24376927.5674   24376938.9624
     -4128.0314      -3216.6484          6.2504          6.5004
    920105.70748    716965.17847  21257762.1224   21257767.9934
      -544.8914       -424.5904         30.7504         26.2504
   4579827.63746   3568694.26646  22927451.6534   22927457.9934
     -2498.4374      -1946.8344         16.5004         13.5004
    102209.07448     79644.50947  20529350.8964   20529355.5484
      -414.4694       -322.9634         29.5004         28.7504
    573868.50746    226502.08746  22965704.8564   22965710.6104
      -761.6414       -593.4864         13.5004         12.2504
 00  7  1 22 10  0.0010000  0  8G 3G 9G15G17G21G23G29G31
   4292495.21446   3331773.87046  22595150.7784   22595157.0014
     -2683.0944      -2090.7224         17.5004         14.0004
   3083000.53245   2394444.32945  24029172.7394   24029179.0674
     -2126.9694      -1657.3784          9.5004          8.5004
  -1998745.24448  -1557462.47447  20619894.6464   20619900.4584
       857.2034        667.9504         31.7504         26.5004
   7347752.43444   5699077.30945  24400500.2164   24400509.5134
     -4130.1874      -3218.3284          6.2504          6.7504
    936462.43248    729710.68047  21260874.6534   21260880.3254
      -545.4224       -425.0044         30.7504         26.2504
   4654748.41646   3627074.04746  22941708.4504   22941714.3454
     -2496.1564      -1945.0574         16.2504         13.7504
    114811.32848     89464.46347  20531748.7864   20531753.2744
      -425.5474       -331.5954         29.5004         28.5004
    596930.32846    244472.31946  22970093.6694   22970099.6344
      -775.6874       -604.4324         13.5004         12.0004
 00  7  1 22 10 30.0010000  0  8G 3G 9G15G17G21G23G29G31
   4373121.25046   3394599.29646  22610493.7864   22610499.7864
     -2691.9064      -2097.5894         18.0004         13.7504
   3147010.49745   2444322.17645  24041352.6224   24041359.3964
     -2140.3124      -1667.7764          9.0004          7.7504
  -2024329.83348  -1577398.49647  20615026.1464   20615032.0754
       848.4844        661.1574         31.7504         26.5004
   7471691.52844   5795652.96945  24424085.5214   24424095.3564
     -4132.3124      -3219.9844          6.5004          6.5004
    952834.63348    742468.24347  21263990.2944   21263996.0364
      -546.0004       -425.4554         30.5004         26.0004
   4729599.74546   3685399.70446  22955952.4114   22955958.5994
     -2493.8754      -1943.2794         16.2504         13.5004
    127744.63948     99542.38747  20534209.7084   20534214.5014
      -436.6254       -340.2274         29.0004         28.5004
    620412.54346    262770.12346  22974561.9114   22974567.8294
      -789.7194       -615.3654         13.5004         12.2504
 00  7  1 22 11  0.0010000  0  8G 3G 9G15G17G21G23G29G31
   4454006.00646   3457626.33146  22625885.9114   22625891.8644
     -2700.5624      -2104.3344         18.0004         14.0004
   3211416.33645   2494508.51345  24053609.8334   24053615.1654
     -2153.5784      -1678.1134          8.7504          8.0004
  -2049655.81648  -1597133.01347  20610206.8174   20610212.4194
       839.7344        654.3384         32.0004         27.0004
   7595689.72444   5892274.73545  24447681.9354   24447691.1494
     -4134.3594      -3221.5794          6.5004          7.2504
    969219.51048    755235.68047  21267108.1924   21267114.0404
      -546.5004       -425.8444         30.7504         26.2504
   4804378.89146   3743669.12546  22970182.3724   22970188.0564
     -2491.5624      -1941.4774         16.0004         13.5004
    141005.71448    109875.70747  20536733.2314   20536737.9784
      -447.6094       -348.7874         29.0004         28.5004
    644311.81146    281392.92545  22979110.0444   22979115.9384
      -803.7344       -626.2874         14.0004         11.7504
 00  7  1 22 11 30.0010000  0  8G 3G 9G15G17G21G23G29G31
   4535149.53546   3520854.99246  22641327.0994   22641332.8994
     -2708.9534      -2110.8734         17.5004         13.5004
   3276219.69345   2545004.61645  24065940.7314   24065949.0444
     -2166.6254      -1688.2794          7.7504          8.5004
  -2074718.33748  -1616662.23647  20605437.4114   20605443.2594
       831.1094        647.6184         32.0004         27.0004
   7719748.38944   5988943.55645  24471289.1384   24471298.2594
     -4136.1564      -3222.9794          6.2504          7.2504
    985619.74548    768015.08447  21270228.9974   21270234.7284
      -546.8284       -426.1004         30.7504         26.0004
   4879088.53646   3801884.38646  22984398.9114   22984405.3564
     -2489.0784      -1939.5414         15.7504         13.0004
    154596.66548    120466.07147  20539319.5994   20539324.2744
      -458.4064       -357.2004         29.2504         28.7504
    668630.45646    300342.50446  22983737.7314   22983743.2744
      -817.4844       -637.0014         14.5004         12.0004
 00  7  1 22 12  0.0010000  0  8G 3G 9G15G17G21G23G29G31
   4616547.77646   3584282.13146  22656816.4664   22656822.5604
     -2717.4064      -2117.4594         16.5004         13.5004
   3341418.05445   2595808.50745  24078348.2944   24078356.5364
     -2179.7664      -1698.5194          8.0004          7.5004
  -2099516.57148  -1635985.52047  20600718.6384   20600724.5214
       822.2664        640.7264         32.0004         27.2504
   7843864.68344   6085657.37345  24494908.2554   24494916.6964
     -4138.0624      -3224.4644          6.5004          6.7504
   1002034.51348    780805.80347  21273352.7244   21273358.2204
      -547.3284       -426.4894         30.7504         26.5004
   4953727.48946   3860044.56846  22998602.7864   22998608.6224
     -2486.7034      -1937.6914         15.5004         13.5004
    168515.36048    131311.82647  20541968.4034   20541972.8684
      -469.3124       -365.6984         29.5004         28.5004
    693366.15446    319617.06946  22988445.1924   22988451.1694
      -831.3754       -647.8254         14.7504         12.2504
 00  7  1 22 12 30.0010000  0  8G 3G 9G15G17G21G23G29G31
   4698197.47646   3647905.23246  22672353.4744   22672359.6144
     -2725.8444      -2124.0344         16.5004         13.2504
   3407009.72245   2646918.86245  24090829.1144   24090836.1264
     -2192.9534      -1708.7954          8.0004          7.5004
  -2124048.94248  -1655101.63647  20596050.0134   20596055.9424
       813.2664        633.7134         31.7504         27.2504
   7968036.37744   6182414.29045  24518536.2634   24518547.5994
     -4140.0004      -3225.9744          6.5004          7.0004
   1018463.69148    793607.76347  21276479.1774   21276484.7904
      -547.9064       -426.9404         30.7504         26.2504
   5028294.96346   3918149.04446  23012792.4424   23012798.3254
     -2484.4224      -1935.9134         15.7504         13.0004
    182760.52048    142411.96447  20544679.2164   20544683.8804
      -480.3124       -374.2694         29.5004         28.5004
    718517.73446    339215.69746  22993231.3724   22993237.2434
      -845.3444       -658.7094         14.7504         12.7504
 00  7  1 22 13  0.0010000  0  8G 3G 9G15G17G21G23G29G31
   4780093.56946   3711720.29946  22687938.0134   22687944.3064
     -2733.9064      -2130.3174         16.0004         13.5004
   3472990.85345   2698332.67345  24103385.7474   24103394.8804
     -2205.7974      -1718.8034          8.0004          7.2504
  -2148316.01848  -1674011.03247  20591432.1854   20591437.9854
       804.5004        626.8834         32.0004         27.5004
   8092259.36044   6279211.18145  24542176.8104   24542190.1964
     -4141.5624      -3227.1924          6.7504          6.7504
   1034904.23548    806418.57347  21279607.5444   21279613.2864
      -548.1564       -427.1354         31.0004         26.5004
   5102788.59946   3976195.99246  23026968.1854   23026974.3844
     -2481.8444      -1933.9044         15.7504         13.0004
    197328.78648    153763.86847  20547451.2244   20547455.7244
      -490.9374       -382.5494         29.2504         28.5004
    744082.07246    359135.92246  22998095.9194   22998101.8374
      -858.9694       -669.3264         14.5004         12.5004
 00  7  1 22 13 30.0010000  0  8G 3G 9G15G17G21G23G29G31
   4862236.21046   3775727.48246  22703569.2784   22703575.5364
     -2741.9694      -2136.5994         15.7504         13.0004
   3539362.96445   2750051.18445  24116016.0444   24116022.4894
     -2218.6874      -1728.8474          8.2504          7.0004
  -2172313.03448  -1692709.99247  20586865.7714   20586871.6654
       795.5784        619.9314         32.2504         27.5004
   8216535.02244   6376049.09745  24565825.9114   24565839.4624
     -4143.1724      -3228.4464          6.7504          6.2504
   1051359.07848    819240.52947  21282739.0674   21282744.7044
      -548.5474       -427.4394         31.2504         26.5004
   5177210.94146   4034187.38646  23041130.1224   23041136.1464
     -2479.3594      -1931.9684         15.2504         13.0004
    212222.12748    165369.08047  20550285.3724   20550289.9424
      -501.6564       -390.9014         29.5004         28.5004
    770060.96146    379379.21146  23003039.4114   23003045.2354
      -872.6564       -679.9924         14.2504         12.0004
 00  7  1 22 14  0.0010000  0  8G 3G 9G15G17G21G23G29G31
   4944617.49446   3839920.63846  22719246.2864   22719252.4624
     -2749.9694      -2142.8334         16.0004         12.7504
   3606119.52245   2802069.28645  24128719.3414   24128725.4814
     -2231.5944      -1738.9044          8.5004          6.5004
  -2196042.82048  -1711200.72347  20582350.2474   20582355.8604
       786.5474        612.8944         32.2504         27.5004
   8340856.59544   6472922.82345  24589482.6224   24589494.3334
     -4144.7974      -3229.7124          6.7504          6.5004
   1067823.35048    832069.82847  21285871.8804   21285877.7284
      -548.9224       -427.7314         30.7504         26.5004
   5251556.93746   4092119.29146  23055277.6534   23055283.5954
     -2476.8914      -1930.0454         15.0004         13.0004
    227434.71048    177223.05147  20553180.2394   20553184.8214
      -512.3754       -399.2534         29.2504         28.5004
    796448.33446    399940.78546  23008060.8964   23008067.1534
      -886.3594       -690.6704         14.0004         12.2504
 00  7  1 22 14 30.0010000  0  8G 3G 9G15G17G21G23G29G31
   5027240.96346   3904302.47646  22734968.7714   22734974.8294
     -2758.1254      -2149.1884         15.7504         13.0004
   3673265.42345   2854390.70045  24141496.3254   24141503.1694
     -2244.6874      -1749.1074          8.2504          8.0004
  -2219496.98548  -1729476.68447  20577887.0364   20577892.8134
       777.1884        605.6014         32.2504         27.5004
   8465229.05244   6569836.21245  24613150.3494   24613164.7674
     -4146.5784      -3231.1004          6.5004          6.7504
   1084303.37748    844911.39547  21289008.0444   21289013.6574
      -549.6094       -428.2674         30.7504         26.2504
   5325832.77346   4149996.50446  23069412.1064   23069418.1184
     -2474.6874      -1928.3284         14.7504         13.2504
    242971.86548    189329.93347  20556136.8964   20556141.7244
      -523.3284       -407.7884         29.2504         28.5004
    823250.08446    420825.24046  23013160.7474   23013166.6884
      -900.2974       -701.5304         13.5004         12.2504
 00  7  1 22 15  0.0010000  0  8G 3G 9G15G17G21G23G29G31
   5110104.69146   3968871.54246  22750737.2394   22750743.4504
     -2766.3594      -2155.6054         15.5004         13.5004
   3740800.29645   2907015.21545  24154347.7004   24154353.2434
     -2257.8914      -1759.3954          8.2504          6.7504
  -2242672.59448  -1747535.59147  20573476.8024   20573482.6034
       767.5944        598.1254         32.2504         27.5004
   8589651.64944   6666788.67345  24636827.2714   24636841.4314
     -4148.5004      -3232.5974          6.5004          5.2504
   1100800.63448    857766.39547  21292147.3804   21292152.8534
      -550.4534       -428.9254         31.2504         26.2504
   5400039.31846   4207819.76146  23083533.0284   23083538.8414
     -2472.6724      -1926.7574         14.2504         12.7504
    258833.88048    201689.95447  20559155.3254   20559160.0134
      -534.3914       -416.4084         29.5004         28.5004
    850466.26946    442032.62546  23018339.8334   23018346.1384
      -914.3594       -712.4884         13.0004         12.0004
 00  7  1 22 15 30.0010000  0  8G 3G 9G15G17G21G23G29G31
   5193210.53146   4033629.27046  22766552.1064   22766558.4114
     -2773.9844      -2161.5464         15.7504         13.2504
   3808727.01745   2959945.09545  24167273.7474   24167282.4234
     -2270.5474      -1769.2574          8.2504          6.7504
  -2265563.26548  -1765372.46647  20569120.8644   20569126.3844
       758.4694        591.0154         32.0004         27.5004
   8714127.09244   6763782.25345  24660514.2084   24660527.6654
     -4149.8444      -3233.6444          6.2504          6.2504
   1117319.02148    870637.86547  21295290.7314   21295296.1814
      -550.7664       -429.1684         31.0004         26.5004
   5474181.32946   4265592.71746  23097641.6854   23097648.5564
     -2470.1254      -1924.7734         14.2504         13.0004
    275024.39348    214305.94047  20562236.2084   20562240.8604
      -544.9374       -424.6274         29.5004         28.5004
    878100.42046    463565.69445  23023598.7634   23023604.8214
      -927.8914       -723.0324         13.0004         11.2504
 00  7  1 22 16  0.0010000  0  8G 3G 9G15G17G21G23G29G31
   5276550.12646   4098569.13746  22782411.0674   22782417.8534
     -2782.0474      -2167.8294         15.2504         13.0004
   3877038.74745   3013174.98045  24180273.0914   24180279.2434
     -2283.6564      -1779.4724          8.5004          7.0004
  -2288172.59648  -1782990.11547  20564818.3964   20564824.2904
       748.7504        583.4424         32.0004         27.7504
   8838648.18844   6860811.41645  24684210.5994   24684222.6144
     -4151.6254      -3235.0324          6.2504          5.0004
   1133853.42248    883521.79947  21298437.0054   21298442.9114
      -551.6254       -429.8384         30.7504         26.2504
   5548253.15746   4323310.98146  23111737.1774   23111743.3644
     -2468.0784      -1923.1784         14.2504         13.0004
    291536.68448    227172.67947  20565378.3884   20565382.9704
      -555.9534       -433.2104         29.5004         28.2504
    906145.93946    485419.33445  23028935.3884   23028941.4464
      -941.8914       -733.9414         13.0004         11.7504
 00  7  1 22 16 30.0010000  0  8G 3G 9G15G17G21G23G29G31
   5360124.19646   4163691.70846  22798314.3644   22798320.7634
     -2789.7034      -2173.7954         14.7504         13.0004
   3945737.48145   3066706.43945  24193346.1534   24193353.3174
     -2296.4064      -1789.4074          9.0004          7.2504
  -2310494.91448  -1800384.11847  20560570.7164   20560576.6814
       739.2504        576.0394         32.5004         28.0004
   8963216.86844   6957877.62645  24707914.9504   24707925.1144
     -4153.0784      -3236.1654          6.2504          5.5004
   1150407.59948    896421.16147  21301587.2784   21301593.0674
      -552.1564       -430.2524         31.0004         26.5004
   5622258.04446   4380977.08046  23125819.8104   23125825.7984
     -2465.7344      -1921.3514         14.0004         12.5004
    308373.24848    240292.08247  20568582.0994   20568586.7984
      -566.6564       -441.5504         29.5004         28.7504
    934605.22946    507595.41346  23034351.0994   23034356.6424
      -955.5474       -744.5824         13.2504         12.2504
 00  7  1 22 17  0.0010000  0  8G 3G 9G15G17G21G23G29G31
   5443926.64746   4228992.24746  22814261.6064   22814267.8174
     -2797.2034      -2179.6394         14.7504         13.2504
   4014818.60245   3120535.81245  24206491.9584   24206495.6384
     -2309.0784      -1799.2824          9.0004          6.0004
  -2332531.48848  -1817555.46447  20556377.2784   20556383.1734
       729.7504        568.6364         32.5004         28.2504
   9087828.24144   7054977.15145  24731627.3024   24731636.8334
     -4154.4374      -3237.2244          6.2504          5.5004
   1166978.51148    909333.55747  21304740.7634   21304746.3174
      -552.6564       -430.6414         31.5004         26.2504
   5696193.04146   4438588.72646  23139889.3644   23139895.9154
     -2463.3594      -1919.5014         14.2504         12.5004
    325530.30448    253661.22947  20571847.1774   20571851.9464
      -577.2504       -449.8054         29.5004         28.7504
    963474.55446    530090.97646  23039844.8104   23039850.8454
      -969.1564       -755.1874         13.5004         12.0004
 00  7  1 22 17 30.0010000  0  8G 3G 9G15G17G21G23G29G31
   5527953.94446   4294467.98246  22830251.5284   22830257.7514
     -2804.4534      -2185.2884         15.0004         12.7504
   4084279.80645   3174661.38045  24219710.4194   24219716.1734
     -2321.5314      -1808.9854          9.2504          7.0004
  -2354281.12248  -1834503.22347  20552238.3724   20552244.1614
       720.3594        561.3194         32.5004         28.2504
   9212479.85744   7152108.13445  24755348.4274   24755358.0874
     -4155.5624      -3238.1014          6.2504          5.2504
   1183565.39448    922258.39847  21307896.9974   21307902.6814
      -553.0004       -430.9094         31.0004         26.2504
   5770057.19246   4496145.17346  23153945.0754   23153951.2634
     -2460.7814      -1917.4924         14.5004         13.2504
    343006.06848    267278.71547  20575172.7394   20575177.4624
      -587.6724       -457.9264         29.2504         28.7504
    992752.18546    552904.70846  23045416.3564   23045422.4504
      -982.5314       -765.6094         13.5004         12.5004
 00  7  1 22 18  0.0010000  0  8G 3G 9G15G17G21G23G29G31
   5612204.90746   4360117.98746  22846284.4354   22846290.5874
     -2812.1254      -2191.2664         15.2504         13.5004
   4154121.25445   3229083.25545  24233000.5054   24233006.8924
     -2334.4224      -1819.0304          9.2504          8.0004
  -2375740.13248  -1851224.52147  20548154.9034   20548160.5874
       710.3754        553.5394         32.5004         28.2504
   9337171.93844   7249270.46645  24779077.0214   24779086.4234
     -4157.1254      -3239.3184          6.2504          5.5004
   1200170.00448    935197.05147  21311056.6694   21311062.3644
      -553.8444       -431.5674         31.2504         26.2504
   5843852.20746   4553647.74146  23167988.1384   23167994.0794
     -2458.7344      -1915.8974         14.7504         12.2504
    360801.40248    281145.21547  20578559.0444   20578563.7314
      -598.5474       -466.4004         29.5004         29.0004
   1022438.65546    576037.00446  23051065.8964   23051072.2714
      -996.4064       -776.4204         14.0004         12.5004
 00  7  1 22 18 30.0010000  0  8G 3G 9G15G17G21G23G29G31
   5696679.14246   4425941.98946  22862359.3174   22862365.2594
     -2819.5314      -2197.0374         15.2504         13.5004
   4224343.41145   3283801.79845  24246363.4274   24246370.1304
     -2347.0944      -1828.9044          9.2504          7.7504
  -2396904.36948  -1867716.12947  20544127.5444   20544133.1694
       700.5004        545.8444         32.5004         28.0004
   9461905.06044   7346464.87745  24802813.2944   24802826.6814
     -4158.4534      -3240.3534          6.2504          5.0004
   1216794.81948    948151.44747  21314220.3494   21314226.1034
      -554.5474       -432.1144         31.2504         26.5004
   5917580.28646   4611098.14746  23182018.3564   23182024.5914
     -2456.5164      -1914.1684         14.7504         12.2504
    378917.24048    295261.45947  20582006.3334   20582011.0444
      -609.2344       -474.7284         29.5004         28.7504
   1052535.16346    599488.81646  23056792.7244   23056799.5444
     -1010.0784       -787.0744         14.2504         12.5004
 00  7  1 22 19  0.0010000  0  8G 3G 9G15G17G21G23G29G31
   5781373.62146   4491937.59646  22878476.3254   22878482.3024
     -2826.6724      -2202.6014         15.2504         13.2504
   4294944.74945   3338815.76645  24259797.1924   24259804.9314
     -2359.5944      -1838.6444          9.0004          7.0004
  -2417771.78348  -1883976.44647  20540156.6534   20540162.4194
       690.7194        538.2224         32.5004         28.0004
   9586677.34344   7443689.75845  24826556.3724   24826566.1034
     -4159.5944      -3241.2424          6.2504          5.5004
   1233440.38848    961122.02047  21317387.7554   21317393.3104
      -555.0784       -432.5284         31.2504         26.2504
   5991241.23146   4668496.23146  23196035.6144   23196041.3804
     -2454.1414      -1912.3174         15.0004         13.0004
    397352.63448    309626.70647  20585514.4664   20585519.1774
      -619.7344       -482.9104         29.2504         29.0004
   1083040.48546    623259.19346  23062597.7004   23062603.4424
     -1023.5474       -797.5694         14.5004         12.7504
 00  7  1 22 19 30.0010000  0  8G 3G 9G15G17G21G23G29G31
   5866281.62046   4558099.60046  22894633.7784   22894639.6384
     -2833.7504      -2208.1174         15.2504         13.2504
   4365920.08045   3394121.18545  24273304.2944   24273310.9154
     -2372.0164      -1848.3244          9.0004          7.5004
  -2438344.28248  -1900006.95447  20536241.5834   20536247.4784
       680.8594        530.5404         32.2504         28.0004
   9711483.27244   7540940.77745  24850306.7944   24850320.1464
     -4160.6874      -3242.0944          6.2504          6.2504
   1250102.18648    974105.23547  21320558.5754   21320564.0244
      -555.6414       -432.9674         31.7504         26.5004
   6064831.47746   4725839.23346  23210038.8334   23210044.8454
     -2451.7974      -1910.4914         14.7504         12.0004
    416102.86648    324237.28247  20589082.5994   20589087.2984
      -630.2194       -491.0804         29.2504         28.7504
   1113949.96846    647344.47346  23068479.7004   23068485.7824
     -1037.0004       -808.0524         14.5004         12.2504
 00  7  1 22 20  0.0010000  0  8G 3G 9G15G17G21G23G29G31
   5951403.05646   4624427.89746  22910831.7394   22910838.2904
     -2840.9534      -2213.7304         15.7504         13.7504
   4437270.57345   3449718.91845  24286882.3644   24286890.5014
     -2384.6254      -1858.1494          8.7504          7.5004
  -2458617.39448  -1915804.17647  20532383.7634   20532389.3534
       670.7194        522.6384         32.2504         28.0004
   9836324.03744   7638219.12945  24874063.8024   24874076.1464
     -4161.9694      -3243.0934          6.2504          5.7504
   1266783.69248    987103.80847  21323732.9274   21323738.6224
      -556.4224       -433.5754         31.2504         26.5004
   6138353.71946   4783129.25446  23224030.4194   23224036.6534
     -2449.6414      -1908.8114         15.0004         12.0004
    435169.69848    339094.56347  20592710.9424   20592715.5714
      -640.8754       -499.3834         29.2504         29.0004
   1145265.15446    671745.90846  23074438.4814   23074444.7164
     -1050.6254       -818.6694         14.2504         12.7504
 00  7  1 22 20 30.0010000  0  8G 3G 9G15G17G21G23G29G31
   6036733.91146   4690919.39146  22927069.3174   22927075.5994
     -2847.7814      -2219.0504         15.7504         13.7504
   4508993.31145   3505606.73545  24300530.6304   24300538.0754
     -2396.9064      -1867.7194          9.2504          7.0004
  -2478590.19548  -1931367.38447  20528583.1064   20528588.8494
       660.7664        514.8824         32.2504         28.2504
   9961196.91044   7735522.35945  24897826.5134   24897833.4664
     -4162.9224      -3243.8354          6.2504          6.0004
   1283483.51148   1000116.65447  21326910.8104   21326916.5874
      -556.9374       -433.9774         31.0004         26.5004
   6211806.80546   4840365.35845  23238007.6064   23238013.1854
     -2447.2504      -1906.9484         15.2504         11.7504
    454550.90648    354196.80747  20596399.0754   20596403.5874
      -651.2344       -507.4554         29.2504         29.0004
   1176983.87846    696461.77946  23080474.4034   23080480.2864
     -1063.9844       -829.0794         14.2504         12.2504
 00  7  1 22 21  0.0010000  0  8G 3G 9G15G17G21G23G29G31
   6122272.79346   4757572.97946  22943347.5364   22943353.9704
     -2854.9374      -2224.6274         16.2504         13.2504
   4581088.11245   3561784.45745  24314250.1694   24314258.7984
     -2409.5784      -1877.5934          9.5004          7.5004
  -2498259.19348  -1946693.87047  20524840.2084   20524845.8804
       650.3284        506.7494         32.2504         28.2504
  10086101.64844   7832850.37645  24921595.5674   24921606.5874
     -4164.2194      -3244.8464          6.5004          5.5004
   1300203.89748   1013145.52347  21330092.6464   21330098.3534
      -557.9064       -434.7324         31.0004         26.2504
   6285192.33146   4897548.86145  23251972.8024   23251978.7674
     -2445.2664      -1905.4024         15.2504         11.2504
    474246.87848    369544.32047  20600146.8724   20600151.5134
      -661.9844       -515.8324         29.0004         28.7504
   1209106.60646    721492.44946  23086587.6854   23086593.4034
     -1077.6874       -839.7564         14.2504         12.0004
 00  7  1 22 21 30.0010000  0  8G 3G 9G15G17G21G23G29G31
   6208018.89346   4824388.03346  22959664.3564   22959670.7204
     -2861.2664      -2229.5584         16.5004         13.2504
   4653555.56145   3618252.52345  24328040.0754   24328046.6144
     -2421.4064      -1886.8104          9.7504          8.0004
  -2517620.37648  -1961780.49447  20521155.8414   20521161.6534
       640.5784        499.1524         32.0004         28.2504
  10211038.74144   7930203.71345  24945369.6464   24945382.3764
     -4164.7194      -3245.2354          6.7504          5.2504
   1316946.89948   1026192.01847  21333278.5994   21333284.1534
      -558.1094       -434.8904         31.2504         26.2504
   6358512.53346   4954681.44845  23265925.0834   23265931.0134
     -2442.5624      -1903.2954         15.0004         11.7504
    494258.94448    385138.14347  20603955.1534   20603959.9354
      -671.9534       -523.6004         29.0004         29.0004
   1241634.24146    746838.65146  23092777.5444   23092783.9194
     -1090.6254       -849.8384         14.5004         12.7504
 00  7  1 22 22  0.0010000  0  8G 3G 9G15G17G21G23G29G31
   6293961.67346   4891356.35746  22976018.8024   22976024.7784
     -2868.0944      -2234.8784         17.0004         13.2504
   4726386.03245   3675003.49045  24341899.0444   24341907.4744
     -2433.8124      -1896.4774          9.5004          8.7504
  -2536679.72348  -1976631.92447  20517528.8494   20517534.7674
       630.1724        491.0434         32.0004         28.2504
  10335998.48244   8027574.60045  24969149.2004   24969163.9354
     -4165.7664      -3246.0514          6.7504          6.0004
   1333704.83748   1039250.14447  21336467.6304   21336473.3134
      -558.9224       -435.5244         31.0004         26.2504
   6431759.50546   5011756.92946  23279863.5134   23279869.8414
     -2440.4374      -1901.6404         14.7504         12.0004
    514577.76648    400970.99747  20607821.7084   20607826.4074
      -682.5004       -531.8184         29.0004         28.7504
   1274557.53846    772493.14446  23099042.4114   23099048.5874
     -1104.1254       -860.3574         14.5004         12.5004
 00  7  1 22 22 30.0010000  0  9G 3G 9G15G17G21G23G29G31G25
   6380102.97846   4958479.36446  22992410.9744   22992417.4544
     -2874.6414      -2239.9804         17.0004         13.5004
   4799582.41945   3732039.59945  24355827.6614   24355835.0364
     -2445.9694      -1905.9504          9.5004          8.2504
  -2555430.57948  -1991242.97147  20513960.7314   20513966.6034
       619.8594        483.0074         32.2504         28.2504
  10460984.14144   8124965.78245  24992933.3644   24992948.5444
     -4166.5784      -3246.6844          6.7504          6.5004
   1350482.77948   1052323.86147  21339660.1534   21339665.7314
      -559.5784       -436.0354         30.7504         26.2504
   6504937.98646   5068779.07446  23293788.7084   23293794.7674
     -2438.1414      -1899.8504         14.7504         12.2504
    535207.18548    417045.87347  20611747.2634   20611752.0094
      -692.8124       -539.8544         29.0004         29.0004
   1307880.24246    798458.86846  23105383.6144   23105389.9544
     -1117.3914       -870.6944         14.2504         12.2504
    -45914.43152                  25120978.1694
      2703.0314                          4.2504
 00  7  1 22 23  0.0010000  0  9G 3G 9G15G17G21G23G29G31G25
   6466441.67446   5025756.18846  23008841.0054   23008847.2044
     -2881.4064      -2245.2524         16.7504         13.0004
   4873144.89245   3789360.96145  24369826.4354   24369834.5014
     -2458.3444      -1915.5934          9.5004          7.7504
  -2573869.01048  -2005610.56847  20510452.1224   20510457.7124
       609.2034        474.7044         32.2504         28.2504
  10585995.71944   8222377.05845  25016722.4584   25016737.3334
     -4167.6254      -3247.5004          6.7504          7.0004
   1367282.23348   1065414.33947  21342857.0674   21342862.7744
      -560.5314       -436.7784         30.7504         26.2504
   6578050.00946   5125749.43046  23307701.6384   23307707.9314
     -2436.1414      -1898.2914         15.0004         12.2504
    556148.04848    433363.43147  20615732.3024   20615736.8604
      -703.3914       -548.0974         29.2504         28.7504
   1341602.59546    824735.98446  23111800.5524   23111806.5754
     -1130.9224       -881.2384         14.2504         12.5004
   -127108.72343                  25105527.9504
      2709.7664                          5.0004
 00  7  1 22 23 30.0010000  0  9G 3G 9G15G17G21G23G29G31G25
   6552977.23946   5093186.41446  23025308.1224   23025314.6034
     -2887.7194      -2250.1704         16.2504         12.7504
   4947074.17745   3846968.11945  24383894.9584   24383900.9584
     -2470.3444      -1924.9434          9.2504          8.0004
  -2591990.90048  -2019731.50847  20507003.6774   20507009.4194
       598.8134        466.6074         33.0004         28.7504
  10711033.89144   8319809.09445  25040517.8494   25040528.3534
     -4168.3124      -3248.0364          6.7504          5.7504
   1384106.31848   1078524.01847  21346058.6384   21346064.2744
      -561.1724       -437.2774         30.7504         26.2504
   6651097.83746   5182669.77946  23321602.4664   23321608.6884
     -2433.8124      -1896.4774         15.0004         12.0004
    577401.65248    449924.68847  20619776.6224   20619781.2394
      -713.6254       -556.0714         29.5004         28.7504
   1375725.77246    851325.44046  23118293.7004   23118300.3684
     -1144.0624       -891.4774         14.5004         12.2504
   -208508.46344     -2115.15055  25090038.0214   25090052.9314
      2716.7664       2116.9604          6.2504          5.2504
 00  7  1 22 24  0.0010000  0  9G 3G 9G15G17G21G23G29G31G25
   6639703.81046   5160765.48046  23041811.7394   23041818.6344
     -2894.2344      -2255.2484         16.2504         12.7504
   5021365.61945   3904857.46145  24398032.1774   24398037.9194
     -2482.6094      -1934.5014          8.7504          7.0004
  -2609797.40748  -2033606.69547  20503615.1614   20503620.8104
       588.0634        458.2314         33.0004         28.5004
  10836094.16944   8417258.37545  25064315.7084   25064327.5714
     -4169.2344      -3248.7544          6.7504          6.2504
   1400952.24248   1091650.70947  21349264.3964   21349270.0794
      -562.0784       -437.9834         31.2504         26.5004
   6724078.77446   5239537.99346  23335490.1774   23335496.4814
     -2431.7814      -1894.8944         15.0004         12.0004
    598963.86448    466726.41647  20623879.8174   20623884.3644
      -724.0784       -564.2174         29.5004         29.2504
   1410245.71346    878224.08146  23124863.0054   23124868.9704
     -1157.4694       -901.9244         14.7504         13.0004
   -290113.98144    -65703.66245  25074507.5524   25074520.0714
      2723.4064       2122.1354          7.2504          6.5004
 00  7  1 22 24 30.0010000  0  9G 3G 9G15G17G21G23G29G31G25
   6726615.65046   5228488.90346  23058350.6224   23058357.3134
     -2900.2344      -2259.9234         15.5004         12.2504
   5096014.76845   3963025.59345  24412237.3724   24412245.7784
     -2494.3594      -1943.6574          8.2504          7.7504
  -2627289.31548  -2047236.74147  20500286.6694   20500292.2004
       577.6884        450.1464         33.2504         28.7504
  10961171.87644   8514721.18145  25088117.5284   25088127.7284
     -4169.6254      -3249.0584          7.0004          6.2504
   1417817.00948   1104792.08247  21352473.7314   21352479.3564
      -562.5944       -438.3854         31.2504         26.2504
   6796989.99546   5296351.89146  23349364.9974   23349371.3374
     -2429.3284      -1892.9834         15.0004         12.0004
    620830.84248    483765.62447  20628040.9584   20628045.5054
      -734.0784       -572.0094         29.5004         29.2504
   1445158.36546    905428.72146  23131506.7944   23131512.8534
     -1170.4064       -912.0054         14.5004         12.5004
   -371926.00845   -129453.03745  25058939.6304   25058949.7474
      2730.3594       2127.5534          8.0004          7.2504
 00  7  1 22 25  0.0010000  0  9G 3G 9G15G11G21G23G29G31G25
   6813715.48846   5296358.82145  23074924.9034   23074931.1494
     -2906.4374      -2264.7564         15.0004         11.7504
   5171025.35545   4021475.38945  24426511.5604   24426518.7474
     -2506.3594      -1953.0074          8.2504          7.7504
  -2644459.23948  -2060615.89047  20497019.3804   20497025.0754
       566.9384        441.7694         33.0004         29.0004
    -48268.27254                  25103265.7394
      2840.4224                          6.7504
   1434706.86348   1117952.99847  21355687.7004   21355693.2314
      -563.4374       -439.0424         31.2504         26.2504
   6869837.30946   5353115.99746  23363227.5914   23363233.4974
     -2427.2034      -1891.3274         15.2504         12.0004
    643006.93348    501045.69947  20632260.8964   20632265.5834
      -744.3444       -580.0084         29.5004         29.0004
   1480468.07846    932942.73646  23138226.2084   23138232.4074
     -1183.6094       -922.2934         14.5004         12.2504
   -453936.10945   -193356.75945  25043333.4744   25043345.1734
      2736.9224       2132.6664          9.0004          8.2504
 00  7  1 22 25 30.0010000  0  9G 3G 9G15G11G21G23G29G31G25
   6901000.52146   5364373.04845  23091534.9274   23091540.5174
     -2912.6724      -2269.6144         15.0004         11.5004
   5246395.79245   4080205.49645  24440854.0834   24440858.9584
     -2518.4374      -1962.4194          7.5004          7.2504
  -2661305.26248  -2073742.64747  20493813.5444   20493819.2864
       556.0004        433.2474         32.7504         28.7504
   -133531.20944                  25087041.2474
      2843.6414                          6.7504
   1451622.48948   1131134.00647  21358906.4584   21358912.0834
      -564.3914       -439.7854         30.7504         26.2504
   6942620.60946   5409830.21245  23377077.5284   23377084.1964
     -2425.1724      -1889.7444         14.5004         11.7504
    665491.05048    518565.79847  20636539.4664   20636544.3884
      -754.7034       -588.0804         29.2504         28.7504
   1516173.57446    960765.19546  23145020.3884   23145026.1774
     -1196.8914       -932.6424         14.2504         12.2504
   -536141.55445   -257412.65245  25027689.7784   25027702.2634
      2743.2974       2137.6344          9.0004          8.0004
 00  7  1 22 26  0.0010000  0  9G 3G 9G15G11G21G23G29G31G25
   6988471.93846   5432532.48745  23108180.2944   23108187.2244
     -2919.0164      -2274.5584         14.2504         11.0004
   5322128.24944   4139217.73745  24455265.1224   24455271.0874
     -2530.6414      -1971.9284          7.2504          7.2504
  -2677821.23848  -2086612.22847  20490670.6224   20490676.3994
       544.7974        424.5174         33.0004         28.7504
   -218888.95244    -42132.13155  25070797.6064   25070806.0714
      2846.6094       2218.1374          6.7504          5.5004
   1468567.44748   1144337.85947  21362131.0914   21362136.9384
      -565.5474       -440.6864         30.5004         26.0004
   7015344.25546   5466497.92746  23390916.3334   23390922.6384
     -2423.3444      -1888.3204         14.2504         12.0004
    688286.18648    536328.24847  20640877.2394   20640881.8684
      -765.2504       -596.2994         29.0004         29.0004
   1552277.64246    988898.20246  23151890.6774   23151896.5604
     -1210.3284       -943.1134         14.0004         12.2504
   -618536.30845   -321616.06045  25012010.5364   25012021.6494
      2749.4064       2142.3944          9.2504          8.0004
 00  7  1 22 26 30.0010000  0  9G 3G 9G15G11G21G23G29G31G25
   7076132.83846   5500839.61645  23124861.5834   23124867.9814
     -2925.1874      -2279.3674         14.2504         11.2504
   5398226.92144   4198515.35845  24469746.7944   24469752.8764
     -2542.7034      -1981.3274          6.7504          7.0004
  -2693999.11448  -2099218.35247  20487591.8884   20487597.6064
       533.5944        415.7874         33.0004         29.0004
   -304333.36244   -108712.14645  25054538.5054   25054545.9624
      2849.5474       2220.4264          6.7504          5.7504
   1485548.24248   1157569.64447  21365362.3494   21365368.0674
      -566.6564       -441.5504         30.2504         26.0004
   7088014.40046   5523123.96046  23404744.8414   23404751.1224
     -2421.4694      -1886.8594         14.0004         12.0004
    711397.61048    554337.15547  20645275.1774   20645279.8764
      -775.6414       -604.3954         29.0004         29.0004
   1588785.09146   1017345.54746  23158838.0134   23158844.1304
     -1223.6414       -953.4864         13.7504         12.2504
   -701111.48545   -385960.05245  24996296.5134   24996308.3414
      2755.4694       2147.1194          9.0004          8.2504
 00  7  1 22 27  0.0010000  0  9G 3G 9G15G11G21G23G29G31G25
   7163976.31646   5569288.98145  23141577.7164   23141585.0914
     -2931.0164      -2283.9084         13.5004         11.0004
   5474686.20744   4258093.94945  24484295.5994   24484304.1344
     -2554.5314      -1990.5444          6.7504          7.0004
  -2709841.03848  -2111562.69747  20484577.3884   20484583.2124
       522.5474        407.1794         33.0004         29.0004
   -389866.71244   -175361.39445  25038262.2474   25038271.9894
      2852.6564       2222.8494          6.2504          5.7504
   1502562.11148   1170827.20647  21368599.9194   21368605.7084
      -567.5624       -442.2564         30.2504         26.0004
   7160627.43746   5579705.51845  23418562.9424   23418568.7674
     -2419.3914      -1885.2394         13.7504         11.5004
    734819.91348    572588.30847  20649732.3414   20649736.9584
      -785.7974       -612.3094         29.5004         29.2504
   1625690.72746   1046103.14146  23165860.7394   23165866.5874
     -1236.7194       -963.6774         14.0004         12.5004
   -783868.80645   -450445.97145  24980547.6534   24980557.6534
      2761.7194       2151.9894          7.7504          8.2504
 00  7  1 22 27 30.0010000  0  9G 3G 9G15G11G21G23G29G31G25
   7252004.73646   5637882.45545  23158328.8724   23158335.1654
     -2937.4844      -2288.9494         13.0004         10.7504
   5551509.42044   4317956.08945  24498915.7314   24498922.3064
     -2566.9844      -2000.2484          7.0004          5.0004
  -2725339.82148  -2123639.65947  20481628.0284   20481633.8064
       510.7344        397.9754         33.0004         29.0004
   -475481.61944   -242074.27945  25021969.5364   25021974.2474
      2855.0164       2224.6884          6.2504          5.5004
   1519614.38048   1184114.68447  21371844.9664   21371850.8494
      -569.2034       -443.5354         30.5004         26.0004
   7233188.80246   5636246.79445  23432370.8254   23432377.0484
     -2418.0004      -1884.1564         13.5004         11.7504
    758557.22148    591084.91647  20654249.3884   20654253.8644
      -796.6414       -620.7594         29.7504         29.2504
   1662998.36946   1075173.99246  23172960.3104   23172966.1224
     -1250.4374       -974.3674         14.5004         12.5004
   -866800.10144   -515067.43945  24964765.9814   24964777.3644
      2767.1094       2156.1894          7.0004          7.7504
 00  7  1 22 28  0.0010000  0  9G 3G 9G15G11G21G23G29G31G25
   7340209.45446   5706613.31345  23175113.6534   23175120.5604
     -2942.9534      -2293.2104         12.7504         11.0004
   5628689.13344   4378096.07145  24513602.8564   24513608.8684
     -2578.4844      -2009.2094          7.0004          5.7504
  -2740499.52248  -2135452.40447  20478743.1614   20478748.8564
       499.7664        389.4284         33.2504         29.0004
   -561181.80744   -308853.57045  25005660.8254   25005667.8254
      2858.1724       2227.1474          6.2504          6.0004
   1536699.25548   1197427.57347  21375096.1534   21375101.7084
      -569.9374       -444.1074         30.5004         26.2504
   7305692.66946   5692743.25345  23446167.8334   23446174.1614
     -2415.7344      -1882.3904         13.0004         11.5004
    782602.80748    609821.74647  20658825.2314   20658829.7904
      -806.5474       -628.4784         29.7504         29.2504
   1700700.52246   1104552.27046  23180134.9974   23180140.9744
     -1263.1874       -984.3024         14.7504         12.2504
   -949909.34445   -579827.59445  24948950.9274   24948962.0754
      2773.3444       2161.0474          7.5004          7.0004
 00  7  1 22 28 30.0010000  0  9G 3G 9G15G11G21G23G29G31G25
   7428589.22746   5775480.55345  23191932.1224   23191938.7204
     -2948.9534      -2297.8864         13.2504         11.0004
   5706225.03444   4438513.62045  24528356.4814   24528363.7514
     -2590.5314      -2018.5964          7.2504          7.0004
  -2755316.89348  -2146998.39747  20475923.5674   20475929.3454
       488.1094        380.3454         33.2504         29.2504
   -646963.67344   -375696.51945  24989337.4974   24989343.7084
      2860.6564       2229.0834          6.5004          5.5004
   1553818.80148   1210767.47347  21378353.8494   21378359.4384
      -571.3124       -445.1794         30.5004         25.7504
   7378140.73846   5749196.25046  23459954.0284   23459960.4504
     -2414.0944      -1881.1124         13.0004         12.0004
    806956.81348    628798.90047  20663459.6144   20663464.2084
      -817.0314       -636.6484         29.7504         29.0004
   1738797.46446   1134238.16846  23187384.5054   23187391.0564
     -1276.5474       -994.7124         14.5004         12.0004
  -1033192.35545   -644723.14145  24933103.2004   24933115.7784
      2778.9064       2165.3814          8.5004          7.2504
 00  7  1 22 29  0.0010000  0  9G 3G 9G15G11G21G23G29G31G25
   7517148.06046   5844487.37045  23208784.2394   23208790.7314
     -2954.8124      -2302.4514         13.0004         10.7504
   5784122.11944   4499212.56145  24543180.5524   24543187.1034
     -2602.4694      -2027.8984          7.0004          7.5004
  -2769783.12848  -2158270.77747  20473170.8254   20473176.5094
       476.4384        371.2504         33.2504         29.5004
   -732818.40944   -442596.20945  24973000.1464   24973009.8764
      2863.1254       2231.0064          6.7504          5.0004
   1570980.18748   1224139.96747  21381619.6304   21381625.3024
      -572.6414       -446.2134         30.5004         26.2504
   7450540.31646   5805611.46945  23473731.4504   23473737.4274
     -2412.4064      -1879.7974         13.2504         11.7504
    831625.21548    648021.03547  20668153.8024   20668158.2904
      -827.4064       -644.7324         29.7504         29.2504
   1777294.72846   1164236.00446  23194710.2554   23194716.4544
     -1289.7974      -1005.0374         14.2504         12.2504
  -1116639.46345   -709746.59945  24917222.8964   24917234.3964
      2784.3594       2169.6314          9.2504          8.5004
 00  7  1 22 29 30.0010000  0  9G 3G 9G15G11G21G23G29G31G25
   7605880.38846   5913629.35045  23225669.0674   23225675.1494
     -2960.6874      -2307.0294         13.0004         10.7504
   5862376.07344   4560189.64945  24558071.7004   24558079.6614
     -2614.4844      -2037.2614          7.0004          6.0004
  -2783898.67448  -2169269.89647  20470484.7784   20470490.4744
       464.5634        361.9974         33.5004         29.5004
   -818746.54244   -509553.05445  24956648.3644   24956654.3884
      2865.3914       2232.7724          7.0004          5.5004
   1588181.23548   1237543.37847  21384892.9424   21384898.6264
      -574.1414       -447.3824         30.7504         26.2504
   7522888.82946   5861986.86645  23487498.7864   23487505.3374
     -2410.8594      -1878.5924         13.5004         11.2504
    856604.00448    667485.03447  20672907.1854   20672911.7204
      -837.8754       -652.8904         30.0004         29.5004
   1816188.47046   1194542.76846  23202111.5674   23202117.4974
     -1303.1414      -1015.4344         14.2504         12.2504
  -1200250.34945   -774897.66145  24901312.6694   24901324.4974
      2789.6414       2173.7464          8.2504          8.0004
 00  7  1 22 30  0.0010000  0  9G 3G 9G15G11G21G23G29G31G25
   7694785.50246   5982905.95345  23242587.7084   23242593.8254
     -2966.4224      -2311.4984         13.2504         11.2504
   5940987.08744   4621444.95545  24573030.8724   24573038.9154
     -2626.3594      -2046.5144          7.2504          6.5004
  -2797659.80848  -2179992.85347  20467866.1304   20467871.9544
       452.7034        352.7564         33.2504         29.5004
   -904743.76944   -576563.85445  24940283.8884   24940289.5134
      2867.6254       2234.5134          6.7504          5.2504
   1605424.72748   1250979.86347  21388174.1924   21388180.0754
      -575.5624       -448.4904         30.7504         26.0004
   7595188.66846   5918324.39245  23501257.4114   23501263.3644
     -2409.2664      -1877.3504         13.2504         11.5004
    881894.31448    687191.77547  20677719.6854   20677724.1384
      -848.2664       -660.9864         30.0004         29.2504
   1855479.41846   1225159.08345  23209588.5134   23209594.2084
     -1316.3754      -1025.7474         14.2504         11.7504
  -1284020.99544   -840173.18745  24885371.8644   24885381.9584
      2794.9384       2177.8734          6.7504          8.0004
 00  7  1 22 30 30.0010000  0  9G 3G 9G15G11G21G23G29G31G25
   7783859.16146   6052313.92245  23259537.8174   23259544.7244
     -2972.0944      -2315.9174         13.2504         11.2504
   6019951.68545   4682975.72945  24588056.6224   24588061.6144
     -2638.2194      -2055.7554          7.5004          6.2504
  -2811066.23648  -2190439.41447  20465314.8494   20465320.5444
       440.7504        343.4424         33.2504         29.7504
   -990809.69644   -643628.07745  24923906.0054   24923911.6654
      2869.7814       2236.1934          6.5004          5.7504
   1622708.97848   1264448.11447  21391463.2474   21391469.0714
      -577.0314       -449.6354         31.0004         26.2504
   7667438.54646   5974622.95146  23515006.0834   23515012.7284
     -2407.7034      -1876.1324         13.2504         12.0004
    907493.58048    707139.26447  20682591.2474   20682595.7354
      -858.6414       -669.0714         30.0004         29.2504
   1895164.22346   1256082.26446  23217140.4194   23217147.0174
     -1329.5784      -1036.0354         14.5004         12.0004
  -1367950.38045   -905572.37745  24869399.4664   24869409.0214
      2800.0474       2181.8554          7.5004          7.2504
 00  7  1 22 31  0.0010000  0  9G 3G 9G15G11G21G23G29G31G25
   7873100.52446   6121852.55645  23276519.8644   23276526.5094
     -2977.6094      -2320.2154         13.2504         11.2504
   6099270.40545   4744782.54145  24603151.2554   24603158.5014
     -2649.9694      -2064.9114          8.0004          6.2504
  -2824113.57548  -2200606.16547  20462831.9894   20462837.8134
       428.7974        334.1274         33.0004         29.5004
  -1076939.69044   -710742.32245  24907515.4744   24907521.8724
      2871.9064       2237.8494          6.5004          5.7504
   1640037.08448   1277950.53047  21394760.6534   21394766.2314
      -578.4844       -450.7674         31.2504         26.0004
   7739641.17346   6030884.69345  23528745.7714   23528751.8064
     -2406.0944      -1874.8784         13.2504         11.7504
    933402.78148    727328.25447  20687521.4894   20687526.0244
      -868.9374       -677.0944         30.0004         29.5004
   1935244.25346   1287313.42745  23224767.4354   23224773.6464
     -1342.7034      -1046.2624         14.5004         11.7504
  -1452032.92945   -971090.98745  24853399.4354   24853411.0174
      2805.1414       2185.8244          8.5004          7.2504
 00  7  1 22 31 30.0010000  0  9G 3G 9G15G11G21G23G29G31G25
   7962509.26246   6191521.60645  23293533.8414   23293540.7124
     -2983.0624      -2324.4644         13.2504         11.5004
   6178943.72245   4806865.58345  24618312.6144   24618320.1304
     -2661.6874      -2074.0424          8.7504          6.2504
  -2836797.57348  -2210489.79647  20460418.3024   20460424.1494
       416.7034        324.7044         33.0004         29.5004
  -1163129.52744   -777903.07945  24891114.4194   24891121.3374
      2873.9384       2239.4324          6.5004          5.5004
   1657412.42348   1291489.75747  21398067.2314   21398072.9154
      -579.9694       -451.9244         31.5004         26.2504
   7811799.25746   6087111.72545  23542477.0524   23542483.5214
     -2404.5474      -1873.6734         13.2504         11.7504
    959623.34548    747759.86747  20692511.0054   20692515.5284
      -879.2034       -685.0934         29.7504         29.2504
   1975720.41646   1318853.27746  23232469.4664   23232475.6774
     -1355.7974      -1056.4654         14.2504         12.0004
  -1536263.79745  -1036725.19945  24837370.4114   24837381.1964
      2810.1414       2189.7204          7.5004          7.5004
 00  7  1 22 32  0.0010000  0  9G 3G 9G15G11G21G23G29G31G25
   8052084.07346   6261320.04145  23310579.6614   23310586.6264
     -2988.3914      -2328.6164         13.7504         11.7504
   6258971.71345   4869225.01145  24633541.4744   24633547.6734
     -2673.3124      -2083.1014          9.0004          6.5004
  -2849114.56048  -2220087.44147  20458074.4354   20458080.3294
       404.5944        315.2684         33.0004         29.5004
  -1249374.92044   -845107.21445  24874702.4814   24874708.5054
      2875.9224       2240.9784          6.7504          6.0004
   1674836.53348   1305066.98447  21401382.9504   21401388.5174
      -581.4694       -453.0934         31.5004         26.2504
   7883914.77246   6143305.60245  23556200.1464   23556206.2744
     -2402.9844      -1872.4554         13.2504         11.2504
    986155.56348    768434.32147  20697559.9664   20697564.6534
      -889.4374       -693.0684         29.7504         29.2504
   2016592.79846   1350701.85446  23240247.4974   23240253.4504
     -1368.8284      -1066.6194         14.0004         12.2504
  -1620639.01743  -1102471.82545  24821313.8494   24821324.8924
      2815.0634       2193.5554          6.0004          7.0004
 00  7  1 22 32 30.0010000  0  9G 3G 9G15G11G21G23G29G31G25
   8141816.78646   6331241.53946  23327655.4504   23327662.1424
     -2993.8754      -2332.8904         14.0004         12.0004
   6339346.88945   4931854.99245  24648836.6774   24648843.3214
     -2685.1254      -2092.3054          9.2504          6.5004
  -2861068.19648  -2229401.95547  20455799.7944   20455805.3374
       392.1884        305.6014         33.0004         29.5004
  -1335679.07444   -912357.08145  24858279.4354   24858288.0994
      2877.5944       2242.2814          7.2504          6.2504
   1692304.91248   1318678.70547  21404706.9974   21404712.6924
      -583.2034       -454.4444         31.2504         26.2504
   7955982.63346   6199462.34745  23569914.4664   23569920.2784
     -2401.6564      -1871.4204         13.5004         11.2504
   1012993.13248    789346.71447  20702666.9424   20702671.5834
      -899.8444       -701.1774         30.0004         29.5004
   2057854.61946   1382853.88246  23248099.2474   23248105.2004
     -1382.0474      -1076.9204         14.0004         12.0004
  -1705161.30044  -1168333.06445  24805229.5524   24805241.7314
      2819.6414       2197.1234          7.0004          7.5004
 00  7  1 22 33  0.0010000  0  9G 3G 9G15G11G21G23G29G31G25
   8231708.04046   6401286.56345  23344761.5134   23344767.2784
     -2999.1254      -2336.9814         14.5004         11.5004
   6420070.77645   4994756.72745  24664197.5524   24664204.1614
     -2696.7194      -2101.3394          9.5004          6.5004
  -2872653.21148  -2238429.23147  20453595.2944   20453600.8024
       379.8594        295.9944         33.5004         29.7504
  -1422036.63645   -979648.61945  24841845.0524   24841854.8414
      2879.3134       2243.6204          7.5004          6.5004
   1709821.23948   1332327.78647  21408040.2084   21408045.8334
      -584.8284       -455.7104         31.2504         26.2504
   8028006.39246   6255584.75045  23583619.9114   23583626.1574
     -2400.1874      -1870.2764         13.0004         11.2504
   1040138.33048    810498.81747  20707832.6384   20707837.0444
      -910.0944       -709.1644         30.2504         29.5004
   2099507.46446   1415310.61645  23256025.6614   23256031.9074
     -1395.0624      -1087.0624         13.7504         11.5004
  -1789824.55945  -1234304.16745  24789118.3024   24789128.2204
      2824.2974       2200.7514          7.5004          6.7504
 00  7  1 22 33 30.0010000  0  9G 3G 9G15G11G21G23G29G31G25
   8321754.81946   6471452.76746  23361896.7634   23361903.0444
     -3004.0624      -2340.8284         14.5004         12.0004
   6501141.57445   5057928.73545  24679625.0444   24679630.5404
     -2708.0624      -2110.1794          9.5004          6.7504
  -2883867.76248  -2247167.83347  20451461.3644   20451466.6854
       367.6724        286.4984         33.7504         29.7504
  -1508445.43345  -1046980.01445  24825402.4424   24825408.7004
      2881.1724       2245.0694          7.5004          6.7504
   1727386.00648   1346014.61447  21411382.6144   21411388.4384
      -586.2664       -456.8304         31.2504         26.2504
   8099986.52446   6311673.10045  23597317.2394   23597323.6964
     -2398.5624      -1869.0104         13.0004         11.5004
   1067589.89048    831889.64347  20713056.4504   20713060.8104
      -920.0944       -716.9564         30.2504         29.5004
   2141549.94146   1448070.96045  23264026.1224   23264032.1464
     -1407.8444      -1097.0214         13.2504         11.5004
  -1874626.06844  -1300383.09245  24772981.1694   24772993.1964
      2829.0474       2204.4524          6.2504          6.2504
 00  7  1 22 34  0.0010000  0  9G 3G 9G15G11G21G23G29G31G25
   8411949.98946   6541734.61246  23379060.1854   23379067.4664
     -3009.0944      -2344.7484         14.7504         12.5004
   6582553.02445   5121366.14145  24695116.6854   24695126.4854
     -2719.5314      -2119.1154          9.2504          6.7504
  -2894714.14848  -2255619.55447  20449397.1144   20449402.6924
       355.2504        276.8184         33.5004         29.5004
  -1594907.41145  -1114352.88845  24808949.4354   24808958.1104
      2882.7814       2246.3234          7.7504          6.7504
   1744995.88748   1359736.59647  21414733.7314   21414739.7084
      -587.8914       -458.0974         31.0004         26.5004
   8171919.12246   6367724.43645  23611005.8024   23611012.2474
     -2397.1094      -1867.8774         12.5004         11.0004
   1095342.32848    853514.92147  20718337.5524   20718341.9354
      -930.2344       -724.8584         30.2504         29.7504
   2183976.82546   1481130.83545  23272099.1534   23272105.4114
     -1420.7344      -1107.0664         13.0004         11.5004
  -1959567.10444  -1366570.59945  24756817.9504   24756825.7244
      2833.5314       2207.9464          7.0004          6.7504
 00  7  1 22 34 30.0010000  0  9G 3G 9G15G11G21G23G29G31G25
   8502296.55146   6612134.42946  23396252.6774   23396259.3454
     -3013.8594      -2348.4624         14.7504         12.2504
   6664308.60945   5185071.75845  24710674.7314   24710680.0054
     -2730.7344      -2127.8454          9.2504          6.2504
  -2905185.11448  -2263778.74747  20447404.5134   20447410.0914
       342.9384        267.2244         33.2504         29.5004
  -1681414.96445  -1181761.26645  24792487.1304   24792495.3024
      2884.5004       2247.6624          7.7504          6.7504
   1762656.33848   1373497.98547  21418094.4194   21418100.1964
      -589.3594       -459.2414         31.2504         26.2504
   8243809.78246   6423743.06345  23624686.0054   23624692.2514
     -2395.4844      -1866.6114         12.2504         10.7504
   1123399.99448    875378.03447  20723676.7004   20723681.4234
      -940.1724       -732.6014         30.0004         29.5004
   2226791.15546   1514492.59945  23280246.8334   23280253.0794
     -1433.4224      -1116.9524         13.2504         11.7504
  -2044639.51744  -1432860.56745  24740628.4504   24740638.8964
      2838.0784       2211.4894          7.2504          7.0004
 00  7  1 22 35  0.0010000  0  9G 3G 9G15G11G21G23G29G31G25
   8592788.26746   6682647.34045  23413472.7634   23413479.8454
     -3018.9844      -2352.4554         14.7504         11.7504
   6746403.50845   5249041.76945  24726296.6534   24726303.2864
     -2742.3594      -2136.9034          9.5004          5.7504
  -2915282.22948  -2271646.62947  20445483.1774   20445488.8374
       330.0944        257.2164         33.2504         29.5004
  -1767968.90745  -1249205.80745  24776016.2244   24776023.0564
      2885.6564       2248.5634          8.0004          6.0004
   1780365.09348   1387297.01547  21421464.3644   21421470.0244
      -591.3124       -460.7634         31.2504         26.5004
   8315655.72546   6479726.85845  23638357.9354   23638364.7674
     -2394.3444      -1865.7224         12.0004         10.2504
   1151758.53648    897475.59247  20729073.0524   20729077.7744
      -950.5004       -740.6494         29.7504         29.2504
   2269988.65346   1548152.96945  23288467.4194   23288473.5014
     -1446.5164      -1127.1554         13.0004         11.0004
  -2129843.71744  -1499253.20645  24724414.5524   24724428.0564
      2842.0944       2214.6194          6.7504          6.5004
 00  7  1 22 35 30.0010000  0  9G 3G 9G15G11G21G23G29G31G25
   8683427.36646   6753275.09846  23430721.2314   23430728.7124
     -3023.6414      -2356.0844         14.7504         12.2504
   6828840.85745   5313278.63145  24741984.0994   24741990.0524
     -2753.5164      -2145.5974          9.0004          6.7504
  -2924998.50048  -2279217.74847  20443634.1614   20443639.7164
       317.5944        247.4764         33.2504         29.5004
  -1854561.79345  -1316680.73145  24759538.3884   24759548.0954
      2887.1564       2249.7324          8.2504          7.2504
   1798127.55048   1401137.88347  21424844.4504   21424850.0994
      -592.9064       -462.0054         31.2504         26.2504
   8387462.74046   6535680.30845  23652022.4504   23652029.0244
     -2392.8284      -1864.5414         12.2504         10.5004
   1180421.70548    919810.52347  20734527.6854   20734532.1734
      -960.4374       -748.3934         30.0004         29.2504
   2313573.10246   1582114.83245  23296761.1224   23296767.1574
     -1459.1564      -1137.0054         13.0004         11.5004
  -2215172.50845  -1565742.89645  24708177.3334   24708187.7674
      2846.4384       2218.0034          7.5004          7.0004
 00  7  1 22 36  0.0010000  0  9G 3G 9G15G11G21G23G29G31G25
   8774202.47446   6824008.82945  23447994.8724   23448001.8724
     -3027.9534      -2359.4444         14.5004         11.7504
   6911610.02045   5377774.01545  24757734.2244   24757741.4584
     -2764.3594      -2154.0464          9.0004          6.0004
  -2934340.60648  -2286497.30447  20441856.4114   20441862.0014
       305.2664        237.8694         33.0004         29.5004
  -1941200.20645  -1384191.05545  24743051.4354   24743057.4934
      2888.7974       2251.0114          8.0004          6.7504
   1815935.70048   1415014.35947  21428233.1304   21428238.8844
      -594.2344       -463.0404         31.2504         26.0004
   8459222.40146   6591596.90845  23665678.1224   23665684.6854
     -2391.0784      -1863.1784         12.2504         11.0004
   1209380.01048    942375.43447  20740038.0914   20740042.7084
      -970.0624       -755.8934         29.7504         29.2504
   2357534.11446   1616370.10345  23305126.7164   23305133.3844
     -1471.5004      -1146.6234         12.7504         11.7504
  -2300631.32645  -1632333.89645  24691914.2554   24691923.7984
      2850.8754       2221.4614          7.7504          7.5004
 00  7  1 22 36 30.0010000  0  9G 3G 9G15G11G21G23G29G31G25
   8865111.29846   6894846.75745  23465294.1144   23465302.3104
     -3032.4064      -2362.9144         13.5004         11.7504
   6994709.39645   5442526.70845  24773547.7944   24773555.2864
     -2775.4064      -2162.6544          8.7504          6.2504
  -2943306.13748  -2293483.42647  20440150.3884   20440155.9784
       292.6254        228.0194         33.0004         29.2504
  -2027881.12945  -1451734.50845  24726556.9034   24726565.1694
      2890.1254       2252.0454          8.2504          7.0004
   1833790.61448   1428927.27247  21431630.7864   21431636.6574
      -595.8914       -464.3304         30.7504         25.7504
   8530935.55346   6647477.21745  23679324.4744   23679331.3454
     -2389.6094      -1862.0334         12.2504         10.2504
   1238632.54448    965169.61047  20745604.7164   20745609.2044
      -979.9064       -763.5634         29.7504         29.2504
   2401870.62546   1650917.99845  23313563.6144   23313570.1774
     -1484.0474      -1156.4004         12.7504         11.7504
  -2386217.20344  -1699023.97445  24675627.9584   24675635.5674
      2855.0164       2224.6884          6.5004          5.5004
 00  7  1 22 37  0.0010000  0  9G 3G 9G15G11G21G23G29G31G25
   8956152.80046   6965788.06945  23482618.8494   23482625.8964
     -3036.9844      -2366.4814         13.2504         10.7504
   7078139.16845   5507536.91845  24789423.8494   24789428.3024
     -2786.5474      -2171.3354          8.0004          6.2504
  -2951891.50948  -2300173.32647  20438516.5914   20438522.0754
       279.7344        217.9754         33.0004         29.5004
  -2114600.25545  -1519307.76145  24710054.8494   24710059.7354
      2891.1724       2252.8614          8.5004          6.2504
   1851695.08448   1442878.80047  21435037.9744   21435043.8684
      -597.7344       -465.7674         30.7504         26.0004
   8602604.73546   6703323.27345  23692962.9894   23692968.6384
     -2388.3444      -1861.0474         12.5004         10.5004
   1268180.24948    988193.79747  20751227.4424   20751231.9074
      -989.9224       -771.3684         30.0004         29.2504
   2446582.73246   1685758.56345  23322072.0134   23322078.3534
     -1496.7344      -1166.2874         12.5004         11.5004
  -2471925.29145  -1765809.17945  24659318.1774   24659327.8844
      2858.8444       2227.6704          8.2504          7.2504
 00  7  1 22 37 30.0010000  0  9G 3G 9G15G11G21G23G29G31G25
   9047330.99646   7036835.91745  23499970.0284   23499976.8254
     -3041.4224      -2369.9394         13.2504         11.0004
   7161903.86845   5572808.02345  24805363.3104   24805371.4354
     -2797.6254      -2179.9684          7.5004          7.0004
  -2960088.11348  -2306560.28947  20436956.8804   20436962.4464
       266.8134        207.9064         32.7504         29.5004
  -2201348.72945  -1586903.87145  24693547.1224   24693553.0404
      2892.1884       2253.6534          9.0004          7.0004
   1869656.31048   1456874.55547  21438455.9274   21438461.5524
      -599.5784       -467.2044         31.0004         26.0004
   8674236.90246   6759140.48545  23706593.9894   23706600.3534
     -2387.0314      -1860.0244         13.0004         10.7504
   1298028.64048   1011452.27847  20756907.3804   20756911.9154
      -999.8594       -779.1114         30.2504         29.5004
   2491675.70446   1720895.90246  23330652.8564   23330659.1264
     -1509.3284      -1176.1004         12.7504         12.0004
  -2557745.64644  -1832681.96345  24642986.6774   24642991.9154
      2862.6414       2230.6294          7.0004          6.5004
 00  7  1 22 38  0.0010000  0  9G 3G 9G15G11G21G23G29G31G25
   9138643.10546   7107988.07545  23517346.0994   23517352.6494
     -3045.9374      -2373.4584         12.7504         11.0004
   7246001.92344   5638338.93145  24821366.7084   24821370.9744
     -2808.7814      -2188.6614          7.2504          5.7504
  -2967894.23248  -2312642.97947  20435471.3024   20435477.0214
       253.6884        197.6794         33.0004         29.2504
  -2288124.20045  -1654521.08145  24677033.7084   24677041.4934
      2892.9534       2254.2494          9.0004          7.0004
   1887675.41448   1470915.41047  21441884.7084   21441890.4274
      -601.5944       -468.7744         31.2504         26.0004
   8745832.48946   6814929.19645  23720218.3414   23720224.3644
     -2385.9064      -1859.1484         12.7504         10.5004
   1328176.42748   1034944.06247  20762644.4194   20762648.8024
     -1009.8914       -786.9284         30.5004         29.7504
   2537148.01046   1756328.83145  23339306.3804   23339312.5564
     -1522.0474      -1186.0114         13.0004         11.7504
  -2643676.24545  -1899640.63545  24626634.3964   24626642.6034
      2866.1564       2233.3694          8.7504          7.2504
 00  7  1 22 38 30.0010000  0  9G 3G 9G15G11G21G23G29G31G25
   9230078.05646   7179235.99845  23534745.9424   23534751.8374
     -3049.6094      -2376.3194         12.7504         10.2504
   7330423.11644   5704121.65845  24837432.2474   24837437.8964
     -2819.1564      -2196.7454          6.7504          6.5004
  -2975316.16648  -2318426.30547  20434059.0604   20434064.6494
       241.2194        187.9634         33.0004         29.5004
  -2374932.44545  -1722163.76345  24660515.0674   24660523.3804
      2894.3754       2255.3574          9.2504          7.5004
   1905744.57848   1484995.27247  21445323.3254   21445328.7044
      -602.9064       -469.7974         31.5004         26.0004
   8817383.93146   6870683.51145  23733834.0284   23733840.6264
     -2384.0624      -1857.7114         12.5004         10.7504
   1358614.28248   1058661.87547  20768436.4814   20768440.8764
     -1019.1724       -794.1604         30.5004         29.7504
   2582989.94646   1792049.77546  23348029.3254   23348035.6534
     -1533.9694      -1195.3004         13.0004         12.2504
  -2729721.81745  -1966688.95045  24610260.2784   24610269.2244
      2870.3134       2236.6074          8.5004          7.0004
 00  7  1 22 39  0.0010000  0  9G 3G 9G15G11G21G23G29G31G25
   9321633.56246   7250577.83945  23552168.3724   23552174.6884
     -3053.8124      -2379.5944         12.2504         10.2504
   7415166.04444   5770154.98245  24853558.5754   24853563.9894
     -2830.0784      -2205.2564          6.5004          7.2504
  -2982351.61048  -2323908.46947  20432720.3414   20432725.8964
       228.0784        177.7234         33.0004         29.5004
  -2461770.57745  -1789829.74045  24643990.2314   24643997.2674
      2895.0944       2255.9174          9.2504          7.2504
   1923864.86848   1499114.96847  21448771.4974   21448777.0054
      -604.8284       -471.2954         31.2504         26.2504
   8888892.05446   6926404.05645  23747441.3964   23747448.3374
     -2382.8594      -1856.7744         12.5004         10.0004
   1389341.50848   1082605.16347  20774283.7084   20774288.0094
     -1029.0164       -801.8304         30.5004         29.5004
   2629200.22446   1828057.73445  23356823.1854   23356829.2904
     -1546.4374      -1205.0164         13.0004         11.7504
  -2815879.32545  -2033824.46945  24593864.2164   24593875.7514
      2873.7974       2239.3224          8.2504          7.5004
 00  7  1 22 39 30.0010000  0  9G 3G 9G15G11G21G23G29G31G25
   9413306.96345   7322011.54345  23569613.2714   23569619.8564
     -3057.8594      -2382.7484         11.7504         10.0004
   7500228.46043   5836437.36145  24869745.8024   24869753.3994
     -2840.8444      -2213.6444          6.0004          5.7504
  -2988998.96048  -2329088.22247  20431455.3414   20431460.9664
       214.9384        167.4844         33.2504         29.5004
  -2548636.02445  -1857517.07045  24627460.2634   24627467.0014
      2895.8134       2256.4774          9.5004          7.5004
   1942036.60248   1513274.75347  21452229.3804   21452234.8994
      -606.7504       -472.7924         31.5004         26.0004
   8960357.06846   6982091.02245  23761040.9034   23761047.5834
     -2381.5944      -1855.7874         12.5004         10.2504
   1420356.74548   1106772.87547  20780185.7244   20780190.2004
     -1038.7664       -809.4284         30.2504         29.5004
   2675777.36346   1864351.56346  23365686.4664   23365693.3964
     -1558.8124      -1214.6594         13.0004         12.2504
  -2902145.92945  -2101044.92045  24577448.3334   24577458.0174
      2877.2034       2241.9764         10.0004          7.7504
 00  7  1 22 40  0.0010000  0  9G 3G 9G15G11G21G23G29G31G25
   9505099.48145   7393538.07545  23587080.6224   23587088.4194
     -3061.6874      -2385.7314         11.2504          9.5004
   7585612.76943   5902970.50945  24885993.5754   24886000.9744
     -2851.4694      -2221.9244          6.0004          5.7504
  -2995252.25048  -2333960.91147  20430265.2554   20430271.0324
       201.8754        157.3054         32.7504         29.5004
  -2635522.44345  -1925220.69945  24610926.2394   24610933.7784
      2896.5634       2257.0624          9.7504          7.2504
   1960265.14448   1527478.81047  21455698.1144   21455703.7394
      -608.5624       -474.2054         31.2504         26.0004
   9031783.76846   7037748.13845  23774632.9114   23774639.4034
     -2380.2344      -1854.7284         12.5004         10.7504
   1451663.22348   1131167.53647  20786142.9034   20786147.4624
     -1048.3594       -816.9034         30.2504         29.5004
   2722723.59446   1900932.98646  23374619.9424   23374626.4354
     -1570.9844      -1224.1444         13.5004         12.2504
  -2988514.45645  -2168344.88945  24561013.0604   24561020.5284
      2880.6414       2244.6554          9.0004          7.0004
 00  7  1 22 40 30.0010000  0  9G 3G 9G15G11G21G23G29G31G25
   9597003.25545   7465151.28845  23604569.8804   23604577.0914
     -3065.1874      -2388.4584         11.5004          9.2504
   7671311.91243   5969749.03545  24902300.9274   24902305.9424
     -2861.7504      -2229.9354          5.7504          6.0004
  -3001114.92248  -2338529.22747  20429149.6534   20429155.3374
       188.9844        147.2614         33.0004         29.5004
  -2722432.28945  -1992942.56445  24594387.7244   24594394.4154
      2897.4694       2257.7684          9.7504          7.2504
   1978546.15348   1541723.73647  21459176.9584   21459182.5604
      -610.1564       -475.4464         31.2504         25.7504
   9103167.55946   7093371.79245  23788217.0054   23788223.2164
     -2378.6564      -1853.4984         12.0004         10.0004
   1483254.54048   1155784.14247  20792154.6614   20792159.2434
     -1057.6874       -824.1724         30.0004         29.5004
   2770032.32046   1937796.88046  23383622.8964   23383629.1304
     -1582.8914      -1233.4214         14.0004         12.5004
  -3074987.53645  -2235726.31245  24544557.9894   24544567.8604
      2884.2504       2247.4684          9.5004          8.2504
 00  7  1 22 41  0.0010000  0  9G 3G 9G15G11G21G23G29G31G25
   9689014.81345   7536848.49545  23622078.2864   23622086.0014
     -3068.8284      -2391.2954         11.5004         10.2504
   7757323.04243   6036770.57345  24918668.8884   24918673.5054
     -2872.1724      -2238.0564          5.2504          6.5004
  -3006585.89048  -2342792.31747  20428108.6924   20428114.3534
       175.8444        137.0214         33.2504         29.7504
  -2809363.89645  -2060681.33745  24577845.3104   24577850.9704
      2898.0784       2258.2434         10.0004          7.0004
   1996879.65748   1556009.57047  21462665.7864   21462671.4354
      -611.9694       -476.8594         31.5004         25.7504
   9174508.26145   7148961.89345  23801792.5834   23801799.0054
     -2377.2974      -1852.4394         11.7504         10.0004
   1515128.81148   1180621.23247  20798220.3174   20798224.8174
     -1067.1414       -831.5384         30.2504         29.7504
   2817701.27146   1974941.48046  23392693.9114   23392699.8534
     -1594.9374      -1242.8084         14.0004         12.2504
  -3161562.84845  -2303187.26645  24528082.3724   24528091.9624
      2887.5164       2250.0124         11.2504          7.7504
 00  7  1 22 41 30.0010000  0  9G 3G 9G15G11G21G23G29G31G25
   9781133.35945   7608629.08845  23639607.9354   23639615.8494
     -3072.4844      -2394.1444         11.7504         10.0004
   7843646.14343   6104035.22445  24935095.5674   24935100.7244
     -2882.7194      -2246.2744          5.2504          4.7504
  -3011661.34648  -2346747.21047  20427143.0284   20427148.6304
       162.4694        126.5994         33.5004         30.2504
  -2896312.81845  -2128433.69845  24561299.3024   24561309.4784
      2898.4694       2258.5474          9.7504          6.7504
   2015268.14048   1570338.24947  21466164.8254   21466170.4504
      -613.9694       -478.4174         31.5004         25.7504
   9245808.52845   7204520.44845  23815360.4274   23815367.5214
     -2376.1094      -1851.5144         11.5004         10.0004
   1547286.87648   1205679.46347  20804339.7714   20804344.2244
     -1076.7504       -839.0264         30.5004         29.5004
   2865730.56646   2012366.85046  23401833.6144   23401839.4504
     -1607.0624      -1252.2564         14.0004         12.2504
  -3248235.29145  -2370724.18345  24511589.4584   24511598.9894
      2890.5784       2252.3994          9.2504          7.0004
 00  7  1 22 42  0.0010000  0  9G 3G 9G15G11G21G23G29G31G25
   9873360.84145   7680494.53245  23657158.1144   23657165.2784
     -3076.1724      -2397.0174         11.7504         10.2504
   7930284.03643   6171545.28445  24951582.2784   24951589.8414
     -2893.2814      -2254.5054          5.0004          5.7504
  -3016334.88948  -2350388.92947  20426253.5284   20426258.9894
       148.9384        116.0554         33.2504         29.7504
  -2983271.88645  -2196193.93245  24544751.6854   24544758.3064
      2898.6564       2258.6934          9.5004          7.0004
   2033717.30248   1584714.20947  21469675.7244   21469681.3844
      -616.1254       -480.0974         31.5004         26.0004
   9317073.53745   7260051.56245  23828921.8254   23828928.3534
     -2375.0314      -1850.6744         11.5004          9.7504
   1579732.28848   1230961.60247  20810513.9034   20810518.5444
     -1086.4224       -846.5624         30.2504         29.5004
   2914123.09346   2050075.28345  23411042.1924   23411048.6144
     -1619.2504      -1261.7534         13.5004         11.7504
  -3334997.30346  -2438330.61645  24495079.0674   24495088.6464
      2893.3914       2254.5904         12.5004         11.2504
 00  7  1 22 42 30.0010000  0  9G 3G 9G15G11G21G23G29G31G25
   9965692.65445   7752441.30245  23674728.6224   23674736.6534
     -3079.5624      -2399.6594         11.7504         10.2504
   8017233.03243   6239297.63145  24968127.6144   24968131.9744
     -2903.6414      -2262.5774          5.0004          5.5004
  -3020606.58448  -2353717.51947  20425440.5914   20425446.2394
       135.5314        105.6094         33.2504         29.7504
  -3070240.49345  -2263961.57245  24528201.6464   24528208.6924
      2899.0004       2258.9614          9.5004          7.2504
   2052225.98448   1599136.54747  21473197.9194   21473203.5564
      -618.0944       -481.6314         31.7504         26.2504
   9388301.78346   7315554.03845  23842476.4584   23842482.7514
     -2373.8124      -1849.7244         12.2504          9.5004
   1612461.92148   1256465.21047  20816742.0524   20816746.6694
     -1095.8594       -853.9164         30.2504         29.5004
   2962875.54846   2088064.16746  23420319.4424   23420325.5604
     -1631.2034      -1271.0674         13.2504         12.2504
  -3421848.56146  -2506006.66245  24478551.8174   24478559.8724
      2896.3444       2256.8914         12.0004          5.2504
 00  7  1 22 43  0.0010000  0  9G 3G 9G15G11G21G23G29G31G25
  10058124.15446   7824465.72845  23692318.3104   23692326.3534
     -3082.7034      -2402.1064         12.2504         10.0004
   8104489.21243   6307289.40445  24984732.9194   24984742.7084
     -2913.6564      -2270.3814          5.7504          6.2504
  -3024476.59948  -2356733.11247  20424704.3254   20424709.9274
       122.2664         95.2724         33.2504         29.7504
  -3157217.82245                  24511650.4584
      2899.3594                          9.2504
   2070793.17648   1613604.48047  21476731.0994   21476736.8414
      -619.9064       -483.0444         31.7504         26.0004
   9459492.02146   7371026.88245  23856023.4034   23856029.8724
     -2372.3914      -1848.6164         12.0004         10.0004
   1645472.73848   1282187.92547  20823023.8644   20823028.4584
     -1105.0474       -861.0754         30.2504         29.2504
   3011984.42746   2126330.78545  23429664.8494   23429671.7314
     -1642.9064      -1280.1874         13.5004         11.7504
  -3508786.96145  -2573750.77045  24462007.3964   24462017.9354
      2899.3754       2259.2534          9.7504         11.2504
 00  7  1 22 43 30.0010000  0  9G 3G 9G15G11G21G23G29G31G25
  10150652.87646   7896565.93945  23709926.0754   23709933.0054
     -3085.7344      -2404.4684         12.5004         10.0004
   8192050.84543   6375519.10645  25001395.5914   25001402.2594
     -2923.6564      -2278.1744          6.0004          7.0004
  -3027942.95548  -2359434.16747  20424044.6304   20424050.2084
       108.9384         84.8864         33.0004         29.7504
  -3244201.06145                  24495097.8254
      2899.6414                          9.5004
   2089420.08748   1628118.95647  21480275.6464   21480281.4114
      -621.7664       -484.4934         31.7504         26.0004
   9530645.19246   7426470.85945  23869563.7634   23869570.1034
     -2371.0314      -1847.5574         12.0004          9.5004
   1678763.87248   1308129.06747  20829359.0054   20829363.4704
     -1114.2344       -868.2354         30.2504         29.2504
   3061448.32246   2164874.04545  23439077.5674   23439083.6614
     -1654.5624      -1289.2694         13.5004         11.5004
  -3595809.93546  -2641560.39945  24445448.4354   24445455.9154
      2902.2664       2261.5064         16.0004          7.0004
 00  7  1 22 44  0.0010000  0  9G 3G 9G15G11G21G23G29G31G25
  10243275.54846   7968739.31545  23727551.4814   23727558.1144
     -3088.7814      -2406.8434         12.2504         10.0004
   8279915.41444   6443984.94145  25018115.2784   25018122.7004
     -2933.6724      -2285.9784          6.5004          6.2504
  -3031004.65648  -2361819.90847  20423462.0054   20423467.7124
        95.4534         74.3794         33.0004         29.7504
  -3331188.29745     -4517.24955  24478544.6924   24478549.4154
      2899.7974       2259.5824          9.7504          7.0004
   2108106.40948   1642679.71747  21483831.6144   21483837.1464
      -623.7034       -486.0024         31.7504         26.0004
   9601761.17445   7481885.85645  23883096.5524   23883102.6694
     -2369.7504      -1846.5584         11.7504         10.0004
   1712333.54248   1334287.24547  20835747.0054   20835751.7044
     -1123.4534       -875.4184         30.2504         29.2504
   3111264.89446   2203692.08945  23448557.5834   23448563.6884
     -1666.2504      -1298.3774         14.0004         11.2504
  -3682914.98043  -2709434.56545  24428869.0604   24428879.2354
      2905.0004       2263.6364          5.2504          7.7504
 00  7  1 22 44 30.0010000  0  9G 3G 9G15G11G21G23G29G31G25
  10335992.51345   8040986.19345  23745194.9034   23745201.3374
     -3092.0944      -2409.4244         11.2504          8.7504
   8368083.78244   6512687.48045  25034892.9194   25034899.4114
     -2943.9844      -2294.0144          6.7504          7.2504
  -3033656.80348  -2363886.50747  20422957.2314   20422962.8684
        81.5634         63.5554         33.2504         29.7504
  -3418174.10045    -72298.33445  24461992.3254   24461997.5634
      2899.4844       2259.3384          9.2504          7.0004
   2126855.80948   1657289.63247  21487399.6464   21487405.3064
      -626.0474       -487.8294         31.5004         26.0004
   9672843.56045   7537274.67945  23896623.2784   23896630.0754
     -2368.8594      -1845.8644         11.7504         10.0004
   1746183.53848   1360663.85947  20842188.4814   20842193.1344
     -1132.9844       -882.8454         30.2504         29.2504
   3161435.23746   2242785.82746  23458104.9354   23458110.7244
     -1678.2034      -1307.6914         14.0004         12.0004
  -3770096.28546  -2777367.61645  24412282.1694   24412291.4194
      2907.2814       2265.4144         14.7504          9.2504
 00  7  1 22 45  0.0010000  0  9G 3G 9G15G11G21G23G29G31G25
  10428802.26945   8113305.39145  23762856.3564   23762864.1654
     -3095.2974      -2411.9204         11.5004          9.5004
   8456555.08344   6581626.10845  25051728.6384   25051737.3604
     -2954.1874      -2301.9644          7.2504          6.7504
  -3035896.31848  -2365631.57847  20422531.1064   20422536.5674
        67.6254         52.6954         33.5004         30.0004
  -3505154.39145   -140075.09645  24445439.8644   24445448.8564
      2899.0944       2259.0344          9.0004          7.2504
   2145671.08448   1671950.87747  21490979.9114   21490985.6064
      -628.4064       -489.6674         31.5004         25.7504
   9743894.40046   7592638.91345  23910143.6064   23910149.7474
     -2367.9694      -1845.1704         12.0004          9.5004
   1780313.96348   1387258.98447  20848683.2714   20848688.0634
     -1142.4534       -890.2234         30.0004         29.2504
   3211958.90646   2282154.87545  23467719.2244   23467725.0714
     -1690.0944      -1316.9564         14.0004         11.7504
  -3857349.47345  -2845357.00645  24395677.7474   24395689.0014
      2909.5164       2267.1554          9.7504          9.5004
 00  7  1 22 45 30.0010000  0  9G 3G 9G15G11G21G23G29G31G25
  10521703.14145   8185695.54845  23780534.9584   23780542.8024
     -3098.2034      -2414.1844         11.0004          9.5004
   8545328.57345   6650800.19645  25068622.8414   25068630.8374
     -2964.1564      -2309.7324          7.7504          8.0004
  -3037720.55048  -2367053.05247  20422184.0754   20422189.5604
        53.8444         41.9564         33.5004         30.0004
  -3592125.67045   -207844.78245  24428889.8644   24428898.7984
      2898.8754       2258.8644          9.0004          7.2504
   2164554.32948   1686665.08247  21494573.4504   21494579.0754
      -630.5944       -491.3724         31.2504         25.7504
   9814915.26545   7647979.78545  23923658.4354   23923665.3764
     -2366.8914      -1844.3304         11.7504         10.0004
   1814724.73448   1414072.56747  20855231.5444   20855236.0674
     -1151.7034       -897.4314         30.0004         29.0004
   3262835.19346   2321798.68246  23477400.4584   23477407.0444
     -1701.7664      -1326.0514         13.7504         12.0004
  -3944670.21045  -2913398.93345  24379059.2314   24379065.8064
      2911.7814       2268.9204          7.5004          8.2504
 00  7  1 22 46  0.0010000  0  9G 3G 9G15G11G21G23G29G31G25
  10614693.43045   8258155.43445  23798229.6534   23798237.6034
     -3101.1564      -2416.4854         10.5004          8.5004
   8634403.28545   6720208.95845  25085572.2314   25085578.2674
     -2974.1724      -2317.5374          7.7504          7.2504
  -3039126.84048  -2368148.85847  20421916.4034   20421921.8884
        39.8754         31.0714         33.2504         29.7504
  -3679084.41045   -275604.81145  24412341.7084   24412348.5794
      2898.3754       2258.4744          9.0004          7.5004
   2183506.78748   1701433.22147  21498179.8964   21498185.6384
      -632.9224       -493.1864         31.2504         25.7504
   9885907.69345   7703298.50045  23937167.9664   23937174.5054
     -2365.9694      -1843.6124         11.7504         10.0004
   1849415.63348   1441104.42647  20861832.8884   20861837.5524
     -1161.0474       -904.7124         30.0004         28.7504
   3314063.32246   2361716.64946  23487148.6304   23487154.5244
     -1713.4534      -1335.1584         14.0004         12.2504
  -4032055.02746  -2981490.83446  24362432.7474   24362441.6464
      2913.8284       2270.5154         13.0004         12.2504
 00  7  1 22 46 30.0010000  0  9G 3G 9G15G11G21G23G29G31G25
  10707768.73645   8330681.53745  23815941.9814   23815949.2284
     -3103.9064      -2418.6284         10.0004          9.0004
   8723775.39845   6789849.53345  25102579.6144   25102588.6774
     -2984.0004      -2325.1954          8.0004          6.7504
  -3040115.14348  -2368918.96247  20421728.0674   20421733.8334
        25.9534         20.2234         32.5004         29.5004
  -3766029.53145   -343354.11845  24395796.4814   24395802.8454
      2897.9224       2258.1214          9.0004          7.7504
   2202527.21548   1716254.32446  21501799.3024   21501805.0094
      -635.1724       -494.9394         31.0004         25.5004
   9956870.70046   7758594.28445  23950672.1144   23950677.9154
     -2364.9374      -1842.8084         12.2504         10.0004
   1884383.79048   1468352.33547  20868487.1854   20868491.9664
     -1170.2034       -911.8474         30.0004         29.2504
   3365640.00746   2401906.24545  23496963.7314   23496970.4234
     -1725.0004      -1344.1564         14.0004         11.7504
  -4119502.38445  -3049631.34245  24345791.5054   24345800.1224
      2915.9064       2272.1354         10.0004          7.0004
 00  7  1 22 47  0.0010000  0  9G 3G 9G15G11G21G23G29G31G25
  10800929.11445   8403273.90145  23833669.7864   23833676.6304
     -3106.6414      -2420.7594         10.0004          8.0004
   8813445.69045   6859722.41145  25119642.4744   25119649.5674
     -2993.8914      -2332.9024          8.2504          7.0004
  -3040681.01748  -2369359.90047  20421620.4584   20421626.1884
        11.8914          9.2654         32.5004         29.7504
  -3852955.68345   -411088.69745  24379255.3494   24379263.4154
      2897.2504       2257.5974          8.7504          7.5004
   2221620.29548   1731132.03846  21505432.5134   21505438.2314
      -637.5784       -496.8144         30.5004         25.5004
  10027807.63546   7813869.77845  23964171.0524   23964177.5564
     -2364.0624      -1842.1274         12.2504          9.2504
   1919630.73448   1495817.48447  20875194.3964   20875199.0014
     -1179.4534       -919.0544         30.5004         29.5004
   3417565.91046   2442367.94346  23506845.1924   23506851.1574
     -1736.5944      -1353.1904         14.2504         12.0004
  -4207006.50345  -3117816.22445  24329140.1064   24329147.7984
      2917.7814       2273.5964         10.7504          9.5004
 00  7  1 22 47 30.0010000  0  9G 3G 9G15G11G21G23G29G31G25
  10894167.46045   8475927.03045  23851413.0364   23851420.5754
     -3109.2664      -2422.8044         10.0004          8.7504
   8903407.74645   6929822.65645  25136763.2944   25136768.3334
     -3003.6094      -2340.4754          8.5004          7.0004
  -3040827.54548  -2369474.07547  20421592.6614   20421598.1924
        -2.1724         -1.6924         33.0004         30.0004
  -3939864.53345   -478809.74345  24362717.1774   24362723.9154
      2896.6094       2257.0984          8.7504          6.7504
   2240782.16548   1746063.35946  21509078.8884   21509084.7944
      -639.9224       -498.6404         30.5004         25.2504
  10098714.64446   7869121.95345  23977664.4894   23977670.8064
     -2363.1254      -1841.3964         12.2504          9.5004
   1955150.89448   1523495.53347  20881953.7784   20881958.3604
     -1188.5944       -926.1774         30.5004         29.2504
   3469834.90646   2483096.98646  23516791.6384   23516797.6384
     -1748.0624      -1362.1274         14.5004         12.0004
  -4294568.81945  -3186046.42345  24312476.8414   24312485.7044
      2919.6254       2275.0324          8.7504          8.2504
 00  7  1 22 48  0.0010000  0  9G 3G 9G15G11G21G23G29G31G25
  10987484.37945   8548641.37845  23869170.6774   23869177.5484
     -3111.8754      -2424.8384         10.5004          9.0004
   8993662.86945   7000151.24145  25153936.9814   25153943.5914
     -3013.3914      -2348.0974          8.7504          7.0004
  -3040549.37748  -2369257.31547  20421645.9274   20421651.4114
       -16.3914        -12.7724         33.5004         30.2504
  -4026750.16745   -546512.77145  24346183.0054   24346189.5564
      2895.7344       2256.4164          9.2504          7.5004
   2260016.92248   1761051.47046  21512739.1464   21512744.7944
      -642.4224       -500.5884         30.5004         25.2504
  10169595.86846   7924354.02145  23991152.3334   23991159.4504
     -2362.2974      -1840.7514         12.2504          9.5004
   1990946.51148   1551388.21847  20888765.3644   20888770.0174
     -1197.7974       -933.3484         30.2504         29.2504
   3522448.92146   2524094.87946  23526803.7944   23526809.7594
     -1759.5474      -1371.0754         14.2504         12.0004
  -4382182.31444  -3254316.60445  24295803.2714   24295812.4384
      2921.2664       2276.3114          7.0004          7.5004
 00  7  1 22 48 30.0010000  0  9G 3G 9G15G11G21G23G29G31G25
  11080880.61945   8621417.57645  23886942.7474   23886949.8764
     -3114.5314      -2426.9074         10.7504          9.2504
   9084212.18645   7070709.09845  25171168.5134   25171174.2904
     -3023.2504      -2355.7794          9.0004          7.0004
  -3039841.93748  -2368706.06147  20421780.3644   20421785.8604
       -30.7974        -23.9984         33.2504         30.2504
  -4113606.59645   -614192.98045  24329655.2634   24329660.8294
      2894.6414       2255.5644          9.5004          6.7504
   2279329.01948   1776099.84446  21516414.2634   21516419.8994
      -645.0784       -502.6584         30.7504         25.5004
  10240454.96945   7979568.83345  24004636.0524   24004642.4034
     -2361.6564      -1840.2524         11.5004          9.0004
   2027019.44048   1579496.99247  20895630.0284   20895634.6344
     -1207.0944       -940.5934         30.5004         29.2504
   3575409.24446   2565362.64346  23536881.8414   23536888.4744
     -1771.1414      -1380.1104         13.7504         12.0004
  -4469841.39546  -3322622.07745  24279124.5754   24279132.5014
      2922.6414       2277.3824         13.0004         10.5004
 00  7  1 22 49  0.0010000  0  9G 3G 9G15G11G21G23G29G31G25
  11174353.80945   8694253.72345  23904730.4504   23904737.1064
     -3117.1254      -2428.9294         10.7504          9.2504
   9175053.86145   7141494.76145  25188455.8724   25188463.0134
     -3033.0164      -2363.3894          9.5004          7.0004
  -3038703.34948  -2367818.84847  20421997.0444   20422002.5994
       -45.2664        -35.2724         33.2504         30.2504
  -4200430.82445   -681848.12845  24313132.7004   24313139.2634
      2893.4844       2254.6634          9.5004          7.7504
   2298719.56348   1791209.35046  21520104.0754   21520109.6884
      -647.7664       -504.7524         30.7504         25.2504
  10311293.06745   8034767.30045  24018116.4744   24018122.4274
     -2361.0164      -1839.7524         11.0004          9.0004
   2063368.87648   1607821.22847  20902547.0914   20902551.6034
     -1216.3444       -947.8004         30.5004         29.2504
   3628713.91646   2606898.69045  23547024.9744   23547031.4424
     -1782.6414      -1389.0714         13.2504         11.2504
  -4557542.83946  -3390960.73345  24262434.9114   24262443.5174
      2923.9534       2278.4054         12.5004         10.0004
 00  7  1 22 49 30.0010000  0  9G 3G 9G15G11G21G23G29G31G25
  11267902.23445   8767148.49545  23922531.8414   23922539.4154
     -3119.4374      -2430.7314         11.2504          9.2504
   9266187.24745   7212507.72845  25205797.2474   25205804.3884
     -3042.5624      -2370.8284          9.0004          6.2504
  -3037130.97248  -2366593.62047  20422296.1384   20422301.7634
       -59.5784        -46.4254         33.0004         30.0004
  -4287219.27245   -749475.45145  24296617.5674   24296624.1534
      2892.3914       2253.8114          9.7504          8.2504
   2318190.45248   1806381.45946  21523809.4354   21523815.3294
      -650.2974       -506.7254         30.7504         25.2504
  10382111.77145   8089950.63145  24031592.6924   24031599.0794
     -2360.2344      -1839.1444         11.0004          9.2504
   2099994.59448   1636360.74347  20909516.5754   20909521.1464
     -1225.3754       -954.8384         30.5004         29.5004
   3682362.57746   2648702.79045  23557233.9274   23557240.2084
     -1793.9224      -1397.8614         12.7504         11.5004
  -4645282.17745  -3459328.79645  24245737.3334   24245745.5994
      2925.3284       2279.4764          8.0004          8.0004
 00  7  1 22 50  0.0010000  0  9G 3G 9G15G11G21G23G29G31G25
  11361523.59145   8840100.08545  23940348.0674   23940355.0564
     -3121.9224      -2432.6664         11.7504          9.7504
   9357610.63045   7283746.62245  25223194.1534   25223207.4234
     -3052.2814      -2378.4014          8.7504          5.7504
  -3035122.78848  -2365028.80047  20422678.2394   20422683.9704
       -74.2664        -57.8694         33.0004         30.0004
  -4373968.72345   -817072.29645  24280109.5914   24280115.8374
      2890.9224       2252.6664         10.0004          9.0004
   2337743.29948   1821617.43446  21527530.0754   21527535.8414
      -653.1724       -508.9654         30.7504         25.5004
  10452912.34245   8145119.81445  24045065.5604   24045071.0214
     -2359.7664      -1838.7784         10.5004          8.5004
   2136895.87748   1665114.98647  20916538.6144   20916543.2084
     -1234.6564       -962.0704         30.5004         29.2504
   3736353.88146   2690773.87645  23567507.7244   23567513.8414
     -1805.4374      -1406.8344         12.5004         11.5004
  -4733055.96945  -3527723.90945  24229034.0524   24229044.2634
      2926.2814       2280.2194          9.5004         10.2504
 00  7  1 22 50 30.0010000  0  9G 3G 9G15G11G21G23G29G31G25
  11455213.07646   8913104.78745  23958176.6464   23958184.1494
     -3124.0164      -2434.2984         12.2504         10.0004
   9449319.77945   7355208.24245  25240646.1064   25240650.5134
     -3061.6564      -2385.7064          9.2504          6.0004
  -3032679.17548  -2363124.68847  20423143.4034   20423149.0404
       -88.6564        -69.0834         33.0004         30.0004
  -4460678.58845   -884638.32945  24263609.1614   24263615.5604
      2889.7034       2251.7174         10.2504          8.5004
   2357376.71748   1836916.19246  21531266.1384   21531271.6694
      -655.7344       -510.9624         31.2504         25.5004
  10523693.29945   8200273.77045  24058534.9114   24058540.4314
     -2358.9694      -1838.1574         10.5004          9.5004
   2174069.56048   1694081.49347  20923612.5214   20923616.9624
     -1243.5944       -969.0344         30.2504         29.0004
   3790683.53546   2733108.63245  23577846.6384   23577853.8374
     -1816.5314      -1415.4794         13.0004         11.5004
  -4820863.45445  -3596145.09745  24212325.6224   24212332.2674
      2927.5164       2281.1814         10.7504          8.2504
 00  7  1 22 51  0.0020000  0  9G 3G 9G15G11G21G23G29G31G25
  11548974.70746   8986165.67745  23976018.8074   23976026.5104
     -3126.5004      -2436.2344         12.2504         10.5004
   9541319.06645   7426895.96645  25258153.1824   25258162.9364
     -3071.4064      -2393.3044          9.2504          6.0004
  -3029795.20748  -2360877.44747  20423692.1274   20423697.7994
      -103.5944        -80.7224         33.2504         30.0004
  -4547345.67145   -952171.01945  24247116.8074   24247122.8074
      2887.9064       2250.3174         10.7504          8.5004
   2377095.87448   1852281.76046  21535018.7684   21535024.3344
      -658.8124       -513.3604         31.5004         25.5004
  10594460.95845   8255417.30945  24072001.4164   24072008.0964
     -2358.7034      -1837.9504         10.5004          8.5004
   2211518.81748   1723262.73147  20930738.8614   20930743.5254
     -1252.9374       -976.3154         30.0004         28.7504
   3845354.60046   2775709.39945  23588250.9244   23588257.9474
     -1828.0624      -1424.4644         13.5004         11.7504
  -4908701.12245  -3664589.86445  24195609.7754   24195619.6114
      2928.1254       2281.6564          9.2504          9.2504
 00  7  1 22 51 30.0020000  0  9G 3G 9G15G11G21G23G29G31G25
  11642805.79646   9059280.70345  23993875.0254   23993882.8934
     -3128.8754      -2438.0844         12.7504         10.2504
   9633606.41745   7498808.12545  25275714.2364   25275721.8694
     -3081.0784      -2400.8404          9.0004          5.5004
  -3026463.29748  -2358281.15847  20424325.9714   20424331.6784
      -118.5314        -92.3624         32.7504         30.0004
  -4633955.28945  -1019658.94945  24230635.7914   24230641.4864
      2886.0634       2248.8804         11.2504          9.7504
   2396906.49948   1867718.60246  21538788.4554   21538793.9864
      -661.8914       -515.7594         31.5004         25.5004
  10665217.52245   8310552.25345  24085466.2604   24085473.4364
     -2358.4064      -1837.7194         10.7504          9.7504
   2249246.36248   1752660.81347  20937918.1744   20937922.7794
     -1262.2194       -983.5474         30.2504         28.7504
   3900368.00246   2818576.92745  23598719.5104   23598725.2174
     -1839.4844      -1433.3644         14.0004         11.7504
  -4996553.69445  -3733046.26045  24178892.9164   24178900.6544
      2928.7034       2282.1064         11.5004          9.2504
 00  7  1 22 52  0.0020000  0  9G 3G 9G15G11G21G23G29G31G25
  11736700.04746   9132444.94045  24011742.3544   24011750.8774
     -3130.7664      -2439.5584         12.5004         10.7504
   9726176.26445   7570940.29145  25293330.4324   25293331.1704
     -3090.2974      -2408.0244          9.0004          5.0004
  -3022688.68748  -2355339.90647  20425044.3854   20425050.1504
      -133.1724       -103.7704         32.7504         30.0004
  -4720514.28345  -1087107.40745  24214163.5884   24214168.8614
      2884.4694       2247.6384         11.7504          9.2504
   2416803.27948   1883222.58247  21542574.8384   21542580.3464
      -664.6254       -517.8904         31.5004         25.7504
  10735959.41345   8365675.76745  24098928.1504   24098934.8544
     -2357.7814      -1837.2324         10.2504          9.5004
   2287245.18248   1782270.28147  20945149.0494   20945153.6314
     -1271.0944       -990.4634         30.2504         29.0004
   3955717.14446   2861706.08045  23609251.9244   23609258.4984
     -1850.5004      -1441.9484         14.0004         11.5004
  -5084428.21746  -3801519.71145  24162170.9864   24162179.5454
      2929.5164       2282.7394         13.0004         10.2504
 00  7  1 22 52 30.0020000  0  9G 3G 9G15G11G21G23G29G31G25
  11830652.01445   9205654.16545  24029620.4084   24029628.3934
     -3133.0164      -2441.3114         11.7504         10.7504
   9819023.77245   7643289.13445  25310998.7754   25311008.4944
     -3099.8594      -2415.4754          8.2504          4.7504
  -3018472.21748  -2352054.35247  20425846.6434   20425852.3384
      -148.2664       -115.5324         32.7504         30.0004
  -4807022.39046  -1154516.24245  24197701.9244   24197707.7014
      2882.3914       2246.0194         12.2504          9.7504
   2436784.76748   1898792.55946  21546377.1744   21546382.8574
      -667.8124       -520.3734         31.2504         25.5004
  10806684.95845   8420786.48645  24112386.3384   24112393.4084
     -2357.5944      -1837.0864         10.0004          9.0004
   2325511.86348   1812088.46847  20952431.0184   20952435.6234
     -1280.3444       -997.6704         30.2504         29.0004
   4011397.21546   2905093.09545  23619847.6974   23619854.0024
     -1861.8284      -1450.7754         13.7504         11.7504
  -5172323.55546  -3870009.41945  24145444.3304   24145451.9754
      2929.8284       2282.9834         12.0004          8.7504
 00  7  1 22 53  0.0020000  0  9G 3G 9G15G11G21G23G29G31G25
  11924672.85245   9278917.03345  24047512.6584   24047521.8144
     -3135.1724      -2442.9914         11.7504         10.5004
   9912160.87545   7715863.32645  25328722.6354   25328730.1394
     -3109.3914      -2422.9024          7.7504          4.7504
  -3013798.84848  -2348412.77347  20426736.0964   20426741.5334
      -163.4374       -127.3544         33.0004         30.0004
  -4893462.90446  -1221872.40545  24181252.5884   24181258.8114
      2880.1724       2244.2904         12.5004          9.7504
   2456865.65548   1914439.99446  21550198.3544   21550203.9904
      -671.0624       -522.9064         31.0004         25.2504
  10877408.42545   8475895.59845  24125844.8464   24125851.1394
     -2357.4374      -1836.9644         10.0004          9.0004
   2364058.71248   1842124.96347  20959766.3074   20959770.9124
     -1289.5624      -1004.8544         30.2504         28.7504
   4067420.10846   2948747.24346  23630508.8934   23630515.0804
     -1873.1414      -1459.5904         13.2504         12.0004
  -5260223.26845  -3938502.52145  24128717.6824   24128726.4044
      2930.0004       2283.1174         11.7504          9.7504
 00  7  1 22 53 30.0020000  0  9G 3G 9G15G11G21G23G29G31G25
  12018753.52245   9352226.52445  24065415.3774   24065423.2094
     -3136.8914      -2444.3304         11.2504         10.0004
  10005578.88344   7788656.45045  25346498.8614   25346505.3654
     -3118.4844      -2429.9884          7.0004          4.7504
  -3008673.65748  -2344419.12347  20427711.4794   20427717.0104
      -178.2814       -138.9204         33.0004         30.0004
  -4979839.87246  -1289179.07945  24164815.1824   24164821.4044
      2878.2344       2242.7804         12.7504          9.0004
   2477040.35848   1930160.52746  21554037.4794   21554043.1044
      -673.9694       -525.1704         31.2504         25.5004
  10948123.83945   8530998.48145  24139301.7604   24139308.8544
     -2356.9374      -1836.5754         10.0004          9.0004
   2402878.10748   1872373.83547  20967153.5104   20967158.0104
     -1298.4064      -1011.7454         30.2504         29.0004
   4123777.67246   2992662.18845  23641232.9864   23641239.6194
     -1884.0314      -1468.0764         12.7504         11.2504
  -5348130.64945  -4007001.66945  24111989.2684   24111998.4474
      2930.4534       2283.4704         11.7504         10.0004
 00  7  1 22 54  0.0020000  0  9G 3G 9G15G11G21G23G29G31G25
  12112888.66845   9425578.47145  24083328.9324   24083336.8224
     -3138.7504      -2445.7794         10.5004         10.2504
  10099272.77444   7861664.72345  25364327.9634   25364334.7014
     -3127.7814      -2437.2324          6.7504          4.5004
  -3003098.01348  -2340074.47647  20428772.3464   20428777.9594
      -193.4224       -150.7184         32.7504         29.7504
  -5066153.32446  -1356436.21345  24148390.2994   24148396.8964
      2875.9694       2241.0154         12.2504          9.2504
   2497307.58948   1945953.16647  21557894.4244   21557900.1194
      -677.1724       -527.6664         31.5004         25.7504
  11018829.09245   8586093.38645  24152755.7914   24152763.2484
     -2356.7504      -1836.4294         10.0004          9.2504
   2441965.75148   1902831.73447  20974591.4474   20974596.1114
     -1307.4224      -1018.7704         30.2504         28.7504
   4180464.55746   3036833.72445  23652020.1274   23652026.5254
     -1895.0784      -1476.6844         12.5004         11.0004
  -5436045.56346  -4075506.61845  24095259.3074   24095265.2714
      2930.5474       2283.5434         12.2504         10.0004
 00  7  1 22 54 30.0020000  0  9G 3G 9G15G11G21G23G29G31G25
  12207078.24845   9498972.80045  24101252.9944   24101261.8464
     -3140.5624      -2447.1924          9.2504         10.2504
  10193243.52844   7934888.63544  25382210.3224   25382209.9824
     -3136.9694      -2444.3914          6.5004          4.2504
  -2997067.81448  -2335375.62347  20429919.9474   20429925.5254
      -208.6254       -162.5654         32.7504         30.0004
  -5152397.48546  -1423639.37945  24131978.8464   24131984.7644
      2873.5944       2239.1644         12.2504          9.2504
   2517671.06848   1961820.80147  21561769.3544   21561774.7914
      -680.4224       -530.1994         31.5004         25.7504
  11089527.81545   8641183.23045  24166210.1894   24166216.7174
     -2356.5624      -1836.2824         10.0004          9.2504
   2481323.53148   1933500.12347  20982081.0184   20982085.6934
     -1316.4374      -1025.7954         30.2504         29.0004
   4237482.02646   3081262.85145  23662870.3544   23662876.1194
     -1906.0944      -1485.2684         12.7504         11.2504
  -5523962.02446  -4144012.74145  24078529.3774   24078538.6394
      2930.5164       2283.5194         12.2504          9.7504
 00  7  1 22 55  0.0020000  0  9G 3G 9G15G11G21G23G29G31G25
  12301320.11445   9572407.88945  24119186.6504   24119193.9084
     -3142.0164      -2448.3244          8.7504          9.7504
  10287489.17744                  25400145.3384
     -3145.8754                          6.5004
  -2990581.41348  -2330321.29447  20431154.2214   20431159.8574
      -223.6254       -174.2534         32.7504         29.7504
  -5238569.46246  -1490786.29145  24115580.5024   24115586.4794
      2871.3914       2237.4474         12.2504          8.7504
   2538131.68848   1977764.13246  21565662.8544   21565668.2794
      -683.4374       -532.5494         31.2504         25.5004
  11160220.85745   8696268.64145  24179662.4714   24179670.4794
     -2356.1414      -1835.9544          9.7504          9.2504
   2520950.29448   1964378.11947  20989621.7834   20989626.4244
     -1325.1254      -1032.5654         30.5004         29.0004
   4294828.53346   3125948.36345  23673782.9634   23673788.5644
     -1916.7974      -1493.6084         12.7504         11.0004
  -5611876.38845  -4212517.27845  24061799.7604   24061806.2404
      2930.6254       2283.6044         11.5004          9.7504
 00  7  1 22 55 30.0020000  0  9G 3G 9G15G11G21G23G29G31G25
  12395613.88145   9645883.41745  24137130.0334   24137138.4984
     -3143.9064      -2449.7974          8.0004          8.5004
  10382009.49944                  25418131.5644
     -3155.1874                          6.2504
  -2983634.92248  -2324908.45447  20432476.0414   20432481.6784
      -239.1724       -186.3684         32.5004         30.0004
  -5324664.17146  -1557873.03445  24099197.5494   24099205.1464
      2868.5634       2235.2444         12.2504          8.2504
   2558693.37048   1993786.20646  21569575.6194   21569581.3034
      -687.0314       -535.3494         31.2504         25.5004
  11230911.33945   8751352.06745  24193114.2294   24193121.5104
     -2356.2664      -1836.0514         10.0004          8.7504
   2560847.23748   1995466.63447  20997214.1664   20997218.6434
     -1334.3284      -1039.7364         30.5004         29.0004
   4352504.22146   3170890.41545  23684758.3854   23684765.0764
     -1927.9224      -1502.2774         12.5004         11.2504
  -5699783.05645  -4281015.78245  24045071.6114   24045079.9364
      2930.1254       2283.2144         11.7504         10.2504
 00  7  1 22 56  0.0020000  0  9G 3G 9G15G11G21G23G29G31G25
  12489952.83445   9719394.15545  24155082.1504   24155091.3424
     -3145.5164      -2451.0514          7.5004          8.0004
  10476798.59143                  25436168.5574
     -3164.2664                          5.5004
  -2976231.01948  -2319139.18547  20433884.9714   20433890.5844
      -254.6094       -198.3974         32.7504         29.7504
  -5410682.69845  -1624900.39945  24082828.5254   24082835.3694
      2865.8134       2233.1014         11.2504          8.2504
   2579352.36048   2009884.11146  21573506.6744   21573512.2054
      -690.4374       -538.0034         30.5004         25.0004
  11301595.96845   8806430.89045  24206565.5804   24206572.3654
     -2356.2344      -1836.0274         10.7504          9.5004
   2601009.08848   2026761.58147  21004856.5574   21004861.0334
     -1343.2974      -1046.7254         30.2504         29.0004
   4410502.82046   3216084.04845  23695795.1114   23695801.2404
     -1938.8124      -1510.7634         12.5004         11.0004
  -5787683.55445  -4349509.50045  24028344.3144   24028352.1354
      2929.7194       2282.8984         11.7504         10.7504
 00  7  1 22 56 30.0020000  0  9G 3G 9G15G11G21G23G29G31G25
  12584340.54544   9792942.87545  24173042.4714   24173051.3224
     -3147.0164      -2452.2204          6.7504          7.7504
  10571860.72343                  25454259.4394
     -3173.2344                          5.5004
  -2968362.06248  -2313007.54047  20435382.4794   20435387.8934
      -270.0474       -210.4264         33.0004         30.0004
  -5496615.94945  -1691861.27945  24066476.2134   24066481.8964
      2863.0314       2230.9334         11.2504          7.7504
   2600116.41348   2026063.88546  21577458.0724   21577463.7444
      -693.8754       -540.6824         30.5004         24.7504
  11372281.75745   8861510.66545  24220016.6664   24220023.7484
     -2356.1874      -1835.9904         11.0004         10.0004
   2641440.73748   2058266.75247  21012550.3224   21012554.8934
     -1352.1874      -1053.6534         30.2504         29.0004
   4468829.13146   3261533.07045  23706894.0724   23706901.7404
     -1949.6414      -1519.2004         12.5004         10.7504
  -5875568.33846  -4417990.96245  24011620.1894   24011628.8894
      2929.2194       2282.5084         12.2504         10.7504
 00  7  1 22 57  0.0020000  0  9G 3G 9G15G11G21G23G29G31G25
  12678771.75044   9866525.53745  24191012.6664   24191019.6434
     -3148.5004      -2453.3774          6.7504          7.0004
  10667190.93943                  25472400.7214
     -3182.2034                          5.2504
  -2960029.62248  -2306514.73147  20436968.1974   20436973.8574
      -285.5784       -222.5284         32.5004         30.0004
  -5582463.95745  -1758755.76645  24050139.4324   24050144.5534
      2860.0474       2228.6084         10.5004          7.2504
   2620983.81248   2042324.18746  21581429.1664   21581434.8854
      -697.4064       -543.4334         30.5004         25.2504
  11442966.78345   8916589.83345  24233467.7684   24233475.6824
     -2356.2664      -1836.0514         11.0004          9.2504
   2682138.22348   2089979.07147  21020294.9864   21020299.6044
     -1361.0944      -1060.5934         30.5004         29.0004
   4527478.15846   3307233.55745  23718054.7134   23718061.5844
     -1960.4064      -1527.5894         12.7504         10.7504
  -5963436.77245  -4486459.67145  23994899.2294   23994909.2054
      2928.5474       2281.9854         11.2504         10.7504
 00  7  1 22 57 30.0020000  0  9G 3G 9G15G11G21G23G29G31G25
  12773243.74645   9940139.92245  24208990.1504   24208995.6934
     -3149.7344      -2454.3384          8.2504          7.5004
  10762786.79442                  25490591.5184
     -3190.9534                          4.7504
  -2951232.56348  -2299659.88047  20438642.1044   20438647.8814
      -301.0164       -234.5584         32.5004         29.7504
  -5668224.16845  -1825581.86545  24033819.5644   24033825.3774
      2857.1564       2226.3564          9.5004          7.2504
   2641955.33948   2058665.62946  21585419.6974   21585425.4984
      -700.8124       -546.0884         30.2504         25.0004
  11513651.18645   8971668.51645  24246918.3074   24246924.1784
     -2356.1564      -1835.9664         10.5004          9.0004
   2723100.05748   2121897.37547  21028089.6824   21028094.2994
     -1369.8124      -1067.3864         30.2504         28.7504
   4586447.48646   3353183.60445  23729276.6744   23729283.0844
     -1970.9844      -1535.8324         13.0004         10.7504
  -6051286.36545  -4554913.72845  23978181.6894   23978190.0024
      2927.9534       2281.5224         11.0004         10.5004
 00  7  1 22 58  0.0020000  0  9G 3G 9G15G11G21G23G29G31G25
  12867762.99745  10013791.13045  24226977.1584   24226983.9204
     -3151.1874      -2455.4714          9.0004          7.0004
  10858655.66942                  25508834.4394
     -3199.9534                          4.2504
  -2941960.30048  -2292434.74747  20440406.5964   20440412.4204
      -316.8124       -246.8674         32.2504         29.7504
  -5753884.31345  -1892329.94645  24017518.7994   24017524.4714
      2853.8444       2223.7744          9.2504          7.5004
   2663041.08848   2075096.07546  21589432.3774   21589438.3424
      -704.5784       -549.0224         30.5004         25.0004
  11584345.28245   9026754.72445  24260371.0254   24260377.9084
     -2356.4374      -1836.1854         10.0004          9.5004
   2764334.39048   2154028.02047  21035936.3074   21035941.1704
     -1378.7974      -1074.3874         30.2504         28.7504
   4645744.42946   3399388.96445  23740560.3614   23740565.8574
     -1981.8124      -1544.2694         13.0004         10.2504
  -6139104.39846  -4623343.16845  23961470.8694   23961479.2874
      2926.9224       2280.7184         12.7504         11.2504
 00  7  1 22 58 30.0020000  0  9G 3G 9G15G11G21G23G29G31G25
  12962326.55745  10087476.87345  24244972.6044   24244978.6624
     -3152.6874      -2456.6404         10.0004          7.7504
  10954794.82342                  25527129.6974
     -3208.9694                          4.0004
  -2932211.88248  -2284838.58647  20442261.4864   20442267.1824
      -332.7504       -259.2864         32.2504         29.5004
  -5839442.03745  -1958998.22945  24001238.2524   24001243.3964
      2850.3444       2221.0474          9.5004          7.0004
   2684242.05148   2091616.29446  21593466.6664   21593472.6074
      -708.4694       -552.0544         30.5004         25.0004
  11655049.41845   9081848.77645  24273825.9164   24273832.5614
     -2356.8284      -1836.4894         10.0004          9.0004
   2805839.49748   2186369.64647  21043834.5574   21043839.1974
     -1387.8594      -1081.4494         30.2504         28.7504
   4705366.30846   3445847.52245  23751905.9164   23751912.9164
     -1992.6414      -1552.7074         12.7504         10.7504
  -6226888.18246  -4691745.92945  23944765.4324   23944773.1354
      2925.6724       2279.7444         12.5004         11.2504
 00  7  1 22 59  0.0020000  0  9G 3G 9G15G11G21G23G29G31G25
  13056932.05245  10161195.28745  24262975.5574   24262982.5214
     -3154.3594      -2457.9424         10.5004          7.0004
  11051202.47142                  25545473.4324
     -3218.2344                          3.7504
  -2921985.69548  -2276870.13447  20444207.5184   20444213.2134
      -349.0314       -271.9724         32.2504         29.7504
  -5924894.22645  -2025584.26945  23984977.1044   23984983.8074
      2846.4064       2217.9794          9.7504          7.5004
   2705559.49248   2108227.28346  21597523.2754   21597529.1354
      -712.7194       -555.3654         30.2504         25.0004
  11725764.51845   9136951.37245  24287282.5104   24287289.4984
     -2357.5624      -1837.0624          9.7504          9.5004
   2847614.41548   2218921.52347  21051783.9474   21051788.6464
     -1397.1724      -1088.7054         30.5004         28.7504
   4765311.34446   3492557.88545  23763313.2054   23763318.9944
     -2003.7194      -1561.3394         12.5004         10.0004
  -6314634.49046  -4760119.50346  23928068.0964   23928075.7644
      2924.0314       2278.4664         13.2504         12.0004
 00  7  1 22 59 30.0020000  0  9G 3G 9G15G11G21G23G29G31G25
  13151577.40745  10234944.80145  24280986.1114   24280995.6314
     -3155.4374      -2458.7824         11.5004          7.5004
  11147876.65441     22618.02954  25563871.4394   25563873.8304
     -3226.8754      -2514.4484          3.5004          3.5004
  -2911280.26248  -2268528.24847  20446244.8144   20446250.4514
      -364.8124       -284.2694         32.2504         30.0004
  -6010237.54245  -2092085.48045  23968736.6504   23968743.7094
      2842.9694       2215.3004         10.0004          8.0004
   2726994.79048   2124930.11046  21601602.4164   21601608.3464
      -716.4534       -558.2754         30.5004         25.0004
  11796491.71545   9192063.38145  24300741.4714   24300747.1894
     -2357.7194      -1837.1834          9.5004          8.5004
   2889658.16148   2251682.87147  21059784.4944   21059789.1704
     -1405.8914      -1095.4994         30.2504         28.5004
   4825578.08446   3539518.88745  23774781.7134   23774787.9714
     -2014.1874      -1569.4974         12.2504         10.2504
  -6402339.66946  -4828461.03846  23911378.4864   23911386.1194
      2922.8284       2277.5284         14.2504         12.0004
 00  7  1 23  0  0.0020000  0  9G 3G 9G15G11G21G23G29G31G25
  13246254.10145  10308718.74745  24299001.9474   24299011.8074
     -3156.6094      -2459.6964         11.2504          7.2504
  11244809.46441     98149.78843  25582318.2754   25582326.3654
     -3235.5944      -2521.2424          3.5004          2.5004
  -2900100.09548  -2259816.43347  20448372.2214   20448377.7644
      -380.8284       -296.7494         32.2504         29.7504
  -6095475.03145  -2158504.22645  23952516.7444   23952522.8734
      2839.2194       2212.3784         11.0004          8.7504
   2748543.22448   2141721.09246  21605702.8774   21605708.6194
      -720.4224       -561.3684         30.5004         25.0004
  11867226.01445   9247180.93845  24314201.6584   24314209.7604
     -2358.1874      -1837.5494          9.5004          8.7504
   2931963.76448   2284648.26247  21067835.2294   21067839.9044
     -1414.7664      -1102.4154         30.2504         28.7504
   4886158.47846   3586724.32945  23786309.6114   23786317.1504
     -2024.7814      -1577.7524         12.5004         10.2504
  -6490006.59546  -4896772.71545  23894695.9244   23894702.9714
      2921.3284       2276.3604         14.2504         11.5004
 00  7  1 23  0 30.0020000  0  9G 3G 9G15G11G21G23G29G31G25
  13340962.67846  10382517.48645  24317024.8464   24317033.2174
     -3157.1874      -2460.1464         12.2504          7.7504
  11342002.04241                  25600811.9944
     -3243.7664                          3.5004
  -2888440.98748  -2250731.41947  20450591.0254   20450596.6504
      -396.3754       -308.8644         32.2504         29.7504
  -6180600.88345  -2224835.98145  23936317.7684   23936323.6274
      2835.9064       2209.7974         11.7504         10.0004
   2770209.12548   2158603.60246  21609825.6504   21609831.4514
      -723.9064       -564.0834         30.2504         24.7504
  11937971.21945   9302306.98645  24327664.4634   24327671.1194
     -2358.0944      -1837.4764          9.7504          8.2504
   2974533.05948   2317819.12947  21075935.8074   21075940.4244
     -1423.0944      -1108.9044         30.2504         28.5004
   4947053.43646   3634174.88145  23797897.9474   23797904.4044
     -2034.7814      -1585.5444         12.5004         10.7504
  -6577629.05946  -4965049.81546  23878021.6974   23878029.3424
      2920.2194       2275.4954         14.7504         12.0004
 00  7  1 23  1  0.0020000  0  8G 3G15G11G21G23G29G31G25
  13435699.43646  10456338.22845  24335052.9244   24335060.1234
     -3158.4844      -2461.1574         12.5004          7.7504
  -2876302.75148  -2241273.06147  20452900.7054   20452906.4714
      -412.7664       -321.6364         32.2504         29.7504
  -6265612.89146  -2291079.01345  23920140.1504   23920145.9164
      2831.6564       2206.4854         12.5004         10.2504
   2791992.08348   2175577.32546  21613970.9394   21613976.6114
      -728.2194       -567.4434         30.2504         24.5004
  12008726.93145   9357441.27845  24341128.8384   24341134.6504
     -2358.8444      -1838.0604          9.7504          8.2504
   3017363.74848   2351193.68547  21084086.1584   21084090.7054
     -1432.1874      -1115.9904         30.2504         28.5004
   5008259.98246   3681868.20545  23809544.8934   23809551.9984
     -2045.5474      -1593.9334         12.5004         10.2504
  -6665204.50546  -5033290.28245  23861355.9944   23861362.6744
      2918.2194       2273.9374         13.7504         11.0004
 00  7  1 23  1 30.0020000  0  8G 3G15G11G21G23G29G31G25
  13530466.20546  10530182.33045  24353086.6194   24353095.3654
     -3159.4534      -2461.9124         12.5004          8.2504
  -2863679.75648  -2231436.97247  20455302.9004   20455308.5724
      -428.9534       -334.2494         32.2504         29.7504
  -6350503.58646  -2357227.50845  23903985.8614   23903991.9324
      2827.5474       2203.2834         13.0004         10.2504
   2813897.86648   2192646.75346  21618139.4244   21618145.2134
      -732.3594       -570.6704         30.0004         24.5004
  12079498.47745   9412587.84745  24354595.7684   24354602.5764
     -2359.4224      -1838.5114          9.2504          8.2504
   3060459.18148   2384774.53547  21092286.9634   21092291.6154
     -1441.0164      -1122.8694         30.5004         28.7504
   5069780.75546   3729806.40545  23821252.1274   23821258.1044
     -2056.0004      -1602.0784         12.2504         10.2504
  -6752725.33946  -5101488.13645  23844701.6114   23844707.7994
      2916.3284       2272.4634         14.0004         11.0004
 00  7  1 23  2  0.0020000  0  8G 3G15G11G21G23G29G31G25
  13625262.13646  10604049.17045  24371125.8074   24371133.4514
     -3160.0784      -2462.3994         12.7504          8.5004
  -2850569.29148  -2221221.04047  20457797.7834   20457803.3264
      -444.9224       -346.6924         32.5004         29.7504
  -6435268.84946  -2423278.28245  23887855.6504   23887860.9364
      2823.6254       2200.2274         13.5004         11.0004
   2835929.55048   2209814.28046  21622331.8774   21622337.7254
      -736.2504       -573.7014         29.7504         24.2504
  12150288.31745   9467748.68245  24368066.8694   24368074.5024
     -2359.7344      -1838.7544          9.2504          8.2504
   3103819.37448   2418561.68847  21100538.3614   21100542.8264
     -1449.4844      -1129.4684         30.5004         28.7504
   5131614.73046   3777988.65445  23833018.7134   23833024.4794
     -2066.0944      -1609.9434         12.0004         10.2504
  -6840187.05246  -5169639.96545  23828058.2914   23828065.5374
      2914.6254       2271.1364         14.5004         10.7504
 00  7  1 23  2 30.0020000  0  8G 3G15G11G21G23G29G31G25
  13720082.45946  10677935.00045  24389169.5644   24389177.7604
     -3161.2814      -2463.3364         12.0004          8.5004
  -2836972.36548  -2210626.04347  20460384.9324   20460390.6394
      -461.5624       -359.6594         32.2504         29.7504
  -6519907.92246  -2489230.72645  23871749.3614   23871755.1044
      2818.9534       2196.5874         14.0004         11.0004
   2858085.67548   2227078.77646  21626548.0644   21626553.8304
      -740.8594       -577.2934         29.7504         24.2504
  12221094.99645   9522922.64745  24381540.6744   24381546.7444
     -2360.7344      -1839.5334          9.2504          8.5004
   3147441.09048   2452552.63047  21108839.2684   21108843.8034
     -1458.6094      -1136.5794         30.5004         28.5004
   5193757.59146   3826411.57545  23844843.8384   23844851.0144
     -2076.7814      -1618.2714         12.0004         10.7504
  -6927588.94846  -5237745.17945  23811426.3144   23811432.8424
      2912.1414       2269.2004         14.5004         11.0004
 00  7  1 23  3  0.0020000  0  8G 3G15G11G21G23G29G31G25
  13814929.02445  10751841.25445  24407218.1974   24407227.1894
     -3161.8594      -2463.7874         11.5004          8.5004
  -2822883.87848  -2199648.01347  20463066.0254   20463071.8384
      -477.7194       -372.2484         32.2504         30.0004
  -6604413.52546  -2555079.15245  23855668.2054   23855675.0144
      2814.7034       2193.2754         13.7504         11.0004
   2880371.89148   2244444.64046  21630789.1434   21630794.9084
      -744.9374       -580.4714         29.7504         24.5004
  12291923.51645   9578113.63745  24395019.3074   24395025.1784
     -2361.2194      -1839.9114          9.7504          8.0004
   3191327.21348   2486749.60047  21117190.3774   21117194.9824
     -1467.1724      -1143.2514         30.5004         28.5004
   5256211.63846   3875077.00945  23856728.7524   23856734.3544
     -2086.8594      -1626.1244         12.0004         10.5004
  -7014923.35246  -5305797.76545  23794806.9634   23794813.1394
      2910.0944       2267.6064         14.2504         10.7504
 00  7  1 23  3 30.0020000  0  8G 3G15G11G21G23G29G31G25
  13909797.75245  10825764.81445  24425271.1354   24425279.3654
     -3162.3594      -2464.1764         10.7504          8.7504
  -2808304.02748  -2188287.10847  20465840.4084   20465846.0804
      -493.9374       -384.8864         32.2504         29.7504
  -6688784.42346  -2620822.62745  23839612.9164   23839619.3504
      2810.3594       2189.8904         13.5004         11.2504
   2902787.36648   2261911.22546  21635054.4714   21635060.2714
      -749.0944       -583.7094         29.7504         24.0004
  12362772.85845   9633320.84245  24408502.0104   24408508.5374
     -2361.7344      -1840.3124         10.0004          7.5004
   3235475.02148   2521150.48147  21125591.3464   21125595.9514
     -1475.6724      -1149.8744         30.5004         28.5004
   5318973.17146   3923982.01045  23868671.9554   23868679.1194
     -2096.8754      -1633.9294         12.0004         10.5004
  -7102188.63846  -5373796.54545  23778200.8694   23778207.5844
      2907.9064       2265.9014         13.7504         10.2504
 00  7  1 23  4  0.0020000  0  8G 3G15G11G21G23G29G31G25
  14004687.14945  10899704.41145  24443327.9634   24443336.5454
     -3163.3914      -2464.9804         10.5004          8.2504
  -2793230.40548  -2176541.44347  20468709.0884   20468714.6784
      -510.7974       -398.0244         32.7504         30.0004
  -6773016.36646  -2686457.82645  23823584.1274   23823588.9904
      2805.2814       2185.9334         13.2504         10.5004
   2925334.87748   2279480.69346  21639345.1824   21639351.1934
      -753.8914       -587.4474         29.7504         24.2504
  12433645.43245   9688546.17845  24421988.2994   24421995.0144
     -2362.9224      -1841.2384          9.5004          7.2504
   3279884.48548   2555755.25047  21134042.1274   21134046.7684
     -1484.7664      -1156.9604         30.2504         28.2504
   5382041.38246   3973125.98645  23880673.5644   23880680.2914
     -2107.4534      -1642.1714         12.0004         10.5004
  -7189380.16445  -5441737.83445  23761607.0184   23761614.4044
      2905.0314       2263.6614         11.5004         10.0004
 00  7  1 23  4 30.0020000  0  8G 3G15G11G21G23G29G31G25
  14099599.35845  10973661.85845  24461388.7214   24461398.6504
     -3164.2194      -2465.6254          9.0004          8.0004
  -2777657.16248  -2164406.46447  20471672.6114   20471678.0964
      -527.5784       -411.1004         32.7504         30.2504
  -6857101.54646  -2751978.65745  23807582.8774   23807589.2524
      2800.2504       2182.0134         12.7504         10.7504
   2948019.32848   2297156.87246  21643661.9634   21643667.8934
      -758.5784       -591.1004         29.7504         24.2504
  12504546.59945   9743793.75345  24435480.1894   24435487.8934
     -2363.9844      -1842.0664          8.2504          7.2504
   3324558.96048   2590566.51747  21142543.5574   21142548.2214
     -1493.7034      -1163.9254         30.2504         28.5004
   5445418.61546   4022510.77245  23892734.0414   23892740.5334
     -2117.8284      -1650.2564         12.5004         10.7504
  -7276490.42546  -5509615.76445  23745032.0254   23745038.6114
      2902.1564       2261.4204         12.5004         10.5004
 00  7  1 23  5  0.0020000  0  8G 3G15G11G21G23G29G31G25
  14194539.62945  11047641.08845  24479456.5964   24479463.9004
     -3164.9694      -2466.2094          9.2504          8.0004
  -2761575.85348  -2151875.58347  20474732.6354   20474738.2834
      -544.3914       -424.2004         32.7504         30.0004
  -6941029.53146  -2817377.01845  23791611.9394   23791616.9554
      2795.0944       2177.9954         12.2504          9.7504
   2970850.61248   2314947.46246  21648006.7444   21648012.5924
      -763.3594       -594.8254         30.2504         24.5004
  12575484.52645   9799069.99145  24448978.9634   24448984.6464
     -2365.0784      -1842.9184          7.7504          7.0004
   3369504.88848   2625589.30747  21151096.6584   21151101.3464
     -1502.5624      -1170.8284         30.2504         28.0004
   5509110.32646   4072140.59545  23904854.1504   23904860.0334
     -2128.1254      -1658.2794         12.2504         11.0004
  -7363508.54846  -5577421.93845  23728473.1664   23728481.0454
      2899.1724       2259.0954         12.7504         10.5004
 00  7  1 23  5 30.0020000  0  8G 3G15G11G21G23G29G31G25
  14289501.24545  11121637.03845  24497527.2994   24497536.9944
     -3165.6724      -2466.7574          7.7504          7.5004
  -2744989.63348  -2138951.26747  20477888.9634   20477894.5534
      -561.2504       -437.3384         32.7504         30.0004
  -7024801.85146  -2882654.05945  23775670.7444   23775676.4164
      2789.8284       2173.8924         12.2504          9.7504
   2993825.42848   2332849.89446  21652378.6664   21652384.3964
      -768.1874       -598.5884         30.0004         24.5004
  12646455.86545   9854372.22145  24462484.1194   24462491.1434
     -2366.2504      -1843.8314          7.7504          7.2504
   3414716.73548   2660819.30747  21159700.0644   21159704.6824
     -1511.4374      -1177.7444         30.2504         28.2504
   5573109.98446   4122010.37645  23917033.0104   23917039.4554
     -2138.3914      -1666.2784         12.5004         10.5004
  -7450435.51846  -5645157.08845  23711930.4554   23711938.7444
      2896.0474       2256.6604         12.2504         10.2504
 00  7  1 23  6  0.0020000  0  8G 3G15G11G21G23G29G31G25
  14384481.77045  11195647.63645  24515601.6894   24515609.8854
     -3166.4224      -2467.3424          7.7504          8.5004
  -2727897.41148  -2125632.66247  20481141.4084   20481146.9754
      -578.2974       -450.6214         33.0004         30.0004
  -7108415.24845  -2947807.30945  23759759.4324   23759765.9474
      2784.3284       2169.6064         11.7504          9.5004
   3016944.76648   2350864.94046  21656777.9084   21656783.8614
      -773.1724       -602.4724         30.0004         24.2504
  12717461.40845   9909701.17445  24475996.9634   24476004.0574
     -2367.5314      -1844.8304          8.0004          6.7504
   3460193.57148   2696255.78747  21168353.9004   21168358.5414
     -1520.3914      -1184.7204         30.2504         28.2504
   5637415.90646   4172118.80545  23929269.9944   23929276.5454
     -2148.7194      -1674.3264         12.2504         11.0004
  -7537268.00946  -5712818.58145  23695406.7214   23695412.8384
      2892.7034       2254.0544         12.5004         10.5004
 00  7  1 23  6 30.0020000  0  8G 3G15G11G21G23G29G31G25
  14479488.30244  11269678.51245  24533680.5184   24533688.4084
     -3167.2814      -2468.0114          7.2504          8.5004
  -2710288.63248  -2111911.54347  20484492.3614   20484497.9284
      -595.5944       -464.0994         33.0004         30.0004
  -7191857.11546  -3012826.84045  23743880.7444   23743885.9004
      2778.4844       2165.0534         12.0004          9.2504
   3040219.45848   2369001.04346  21661207.1894   21661212.8144
      -778.4534       -606.5874         30.0004         24.2504
  12788511.61245   9965064.88145  24489517.1354   24489523.4284
     -2369.1254      -1846.0714          8.2504          7.2504
   3505943.27148   2731904.88947  21177059.9474   21177064.6004
     -1529.5474      -1191.8554         30.2504         28.2504
   5702035.28146   4222471.51045  23941567.0724   23941573.8464
     -2159.1874      -1682.4844         12.5004         10.5004
  -7623993.10946  -5780396.40945  23678903.5884   23678910.5764
      2888.9844       2251.1574         13.2504         11.5004
 00  7  1 23  7  0.0020000  0  8G 3G15G11G21G23G29G31G25
  14574522.15843  11343730.68745  24551765.0804   24551775.7484
     -3168.0314      -2468.5964          5.7504          7.7504
  -2692158.70448  -2097784.33447  20487942.4004   20487948.0144
      -612.8284       -477.5284         33.0004         29.7504
  -7275120.94446  -3077707.70345  23728036.6434   23728041.9394
      2772.6564       2160.5114         12.7504          9.5004
   3063654.50948   2387262.10046  21665666.7364   21665672.3964
      -783.6414       -610.6294         29.7504         24.2504
  12859611.17445  10020467.02445  24503046.8144   24503055.3144
     -2370.6094      -1847.2284          8.5004          8.0004
   3551968.70848   2767768.84947  21185818.0724   21185822.9594
     -1538.5624      -1198.8804         30.0004         28.0004
   5766969.48446   4273069.47645  23953923.2294   23953929.9434
     -2169.5004      -1690.5194         12.5004         10.0004
  -7710604.02946  -5847885.26746  23662421.0574   23662427.5374
      2885.2974       2248.2834         13.2504         12.0004
 00  7  1 23  7 30.0020000  0  8G 3G15G11G21G23G29G31G25
  14669574.36644  11417797.13345  24569853.7754   24569863.9634
     -3168.6874      -2469.1074          7.2504          7.7504
  -2673512.85248  -2083255.10847  20491490.5574   20491496.3464
      -630.1564       -491.0314         32.5004         29.7504
  -7358209.86246  -3142452.26645  23712225.3224   23712231.2174
      2766.6564       2155.8364         13.2504          9.2504
   3087244.77548   2405644.10846  21670155.8614   21670161.8264
      -788.9534       -614.7694         29.5004         23.7504
  12930754.42645  10075903.23845  24516585.1894   24516591.0374
     -2372.1874      -1848.4584          8.7504          8.0004
   3598262.24848   2803841.72647  21194627.7054   21194632.4754
     -1547.5784      -1205.9054         30.0004         28.0004
   5832210.02646   4323906.18745  23966338.7994   23966344.4004
     -2179.7814      -1698.5314         12.5004         10.2504
  -7797104.08646  -5915287.74746  23645961.4244   23645968.2684
      2881.4384       2245.2764         15.0004         13.0004
 00  7  1 23  8  0.0020000  0  8G 3G15G11G21G23G29G31G25
  14764648.47143  11491880.69045  24587944.2054   24587954.8614
     -3169.4694      -2469.7164          5.5004          7.2504
  -2654343.96348  -2068318.32247  20495138.3304   20495143.9554
      -647.7034       -504.7044         32.5004         29.7504
  -7441114.81446  -3207053.44245  23696448.7754   23696453.2524
      2760.3914       2150.9544         14.5004          9.7504
   3110997.63548   2424152.81446  21674675.7604   21674681.5254
      -794.5004       -619.0914         29.5004         24.0004
  13001948.25045  10131378.87545  24530133.5184   24530141.3734
     -2374.0004      -1849.8704          8.5004          7.2504
   3644828.54248   2840127.13747  21203488.8304   21203493.4124
     -1556.7504      -1213.0524         30.2504         28.0004
   5897760.89146   4374984.70745  23978812.5104   23978819.4514
     -2190.1874      -1706.6404         12.5004         10.2504
  -7883484.01846  -5982596.63846  23629523.9164   23629530.5614
      2877.2664       2242.0254         16.5004         14.2504
 00  7  1 23  8 30.0020000  0  8G 3G15G11G21G23G29G31G25
  14859741.90044  11565979.23345  24606041.0024   24606053.4394
     -3170.3444      -2470.3984          6.2504          7.7504
  -2634651.39348  -2052973.47347  20498885.8304   20498891.3504
      -665.4224       -518.5114         32.5004         29.7504
  -7523832.91246  -3271509.05645  23680708.2134   23680714.3074
      2753.8594       2145.8644         15.5004          9.7504
   3134913.95248   2442788.89446  21679227.1824   21679232.9004
      -800.2034       -623.5354         29.5004         23.7504
  13073193.52545  10186894.57345  24543690.7364   24543695.9634
     -2375.9694      -1851.4044          8.0004          7.2504
   3691666.18348   2876623.98847  21212401.9714   21212406.5764
     -1566.0314      -1220.2844         30.7504         28.0004
   5963619.91745   4426303.34445  23991344.7684   23991352.0254
     -2200.6874      -1714.8214         11.7504         10.2504
  -7969740.32046  -6049809.18646  23613109.7834   23613117.0764
      2872.8444       2238.5804         17.2504         14.2504
 00  7  1 23  9  0.0020000  0  8G 3G15G11G21G23G29G31G25
  14954861.75344  11640098.46445  24624140.9944   24624148.4984
     -3171.2034      -2471.0674          7.2504          8.2504
  -2614424.53148  -2037212.29747  20502734.7604   20502740.2564
      -683.2504       -532.4034         32.5004         29.7504
  -7606351.64546  -3335809.30645  23665005.2214   23665011.5374
      2747.1414       2140.6294         16.0004         10.0004
   3159004.81348   2461560.98446  21683811.3854   21683817.1044
      -806.0624       -628.1014         29.0004         24.0004
  13144500.84445  10242458.62745  24557259.9244   24557265.7254
     -2378.0624      -1853.0364          7.7504          7.0004
   3738784.04448   2913339.18847  21221368.2754   21221372.9044
     -1575.3594      -1227.5534         31.2504         28.2504
   6029794.33145   4477867.75645  24003937.5334   24003945.1664
     -2211.1564      -1722.9794         11.5004         10.2504
  -8055860.36746  -6116915.55946  23596721.1114   23596728.4394
      2868.2664       2235.0124         17.0004         15.0004
 00  7  1 23  9 30.0020000  0  8G 3G15G11G21G23G29G31G25
  15050005.51844  11714236.20945  24642246.8384   24642256.0414
     -3171.9534      -2471.6524          6.7504          7.7504
  -2593662.51148  -2021034.10847  20506685.5574   20506691.1464
      -701.1094       -546.3194         32.5004         29.7504
  -7688667.82446  -3399951.72445  23649341.0884   23649346.3034
      2740.3754       2135.3574         16.5004         11.2504
   3183271.22748   2480469.87646  21688429.1044   21688434.9164
      -811.9374       -632.6794         29.0004         23.7504
  13215870.82345  10298071.48545  24570841.3384   24570849.2294
     -2380.1724      -1854.6794          7.5004          6.7504
   3786180.50348   2950271.48047  21230387.4394   21230391.9284
     -1584.6254      -1234.7734         31.2504         28.2504
   6096281.71145   4529676.01145  24016589.2214   24016595.9364
     -2221.5624      -1731.0884         11.2504         10.5004
  -8141841.41346  -6183913.64446  23580359.2364   23580366.2834
      2863.5784       2231.3604         17.5004         15.0004
 00  7  1 23 10  0.0020000  0  8G 3G15G11G21G23G29G31G25
  15145168.50545  11788388.98045  24660356.6664   24660366.7134
     -3172.4374      -2472.0294          8.2504          8.5004
  -2572366.89148  -2004440.12647  20510738.1114   20510743.8304
      -718.7974       -560.1014         32.5004         29.7504
  -7770781.02146  -3463935.98645  23633715.2214   23633721.4674
      2733.6414       2130.1104         16.5004         11.5004
   3207712.04048   2499514.65246  21693080.0494   21693085.9204
      -817.6414       -637.1234         28.7504         23.5004
  13287301.58345  10353731.68045  24584434.0254   24584442.0454
     -2382.0784      -1856.1654          7.7504          7.0004
   3833851.81448   2987417.94647  21239459.1744   21239463.6624
     -1593.6724      -1241.8224         31.2504         28.2504
   6163077.45045   4581724.58245  24029299.8694   24029307.0684
     -2231.6874      -1738.9774         11.2504         10.2504
  -8227682.28446  -6250802.47446  23564024.7684   23564030.8964
      2858.9534       2227.7564         17.7504         14.2504
 00  7  1 23 10 30.0020000  0  8G 3G15G11G21G23G29G31G25
  15240348.74745  11862555.20845  24678469.5254   24678479.7714
     -3172.8594      -2472.3584          8.5004          7.5004
  -2550536.40048  -1987429.36547  20514892.1194   20514897.7914
      -736.5314       -573.9204         32.5004         29.7504
  -7852687.71746  -3527759.31645  23618128.8934   23618133.8384
      2726.8444       2124.8134         16.2504         11.7504
   3232328.39748   2518696.22046  21697764.3694   21697770.2294
      -823.4064       -641.6154         28.5004         23.2504
  13358794.69445  10409440.53645  24598038.8464   24598047.5924
     -2384.0624      -1857.7114          8.0004          8.0004
   3881797.43348   3024778.15147  21248583.0254   21248587.5614
     -1602.6564      -1248.8234         30.7504         28.2504
   6230179.95945   4634012.18945  24042069.5254   24042076.5374
     -2241.7664      -1746.8304         11.2504         11.0004
  -8313379.37046  -6317579.25246  23547716.5184   23547722.8464
      2854.2034       2224.0544         17.0004         13.2504
 00  7  1 23 11  0.0020000  0  8G 3G15G11G21G23G29G31G25
  15335542.44945  11936731.95445  24696583.1194   24696591.9004
     -3173.3124      -2472.7114          8.0004          8.2504
  -2528171.53848  -1970002.21247  20519148.1434   20519153.8034
      -754.3914       -587.8374         32.5004         29.5004
  -7934386.61646  -3591420.72346  23602582.2294   23602588.1004
      2719.8134       2119.3344         16.5004         12.0004
   3257120.28948   2538014.56546  21702481.9244   21702487.8304
      -829.3124       -646.2184         28.5004         23.2504
  13430349.36745  10465197.30645  24611655.0574   24611661.5964
     -2386.1564      -1859.3434          8.2504          7.0004
   3930014.58048   3062349.94447  21257758.1584   21257762.7404
     -1611.7344      -1255.8974         30.5004         28.0004
   6297585.44945   4686535.86445  24054896.7214   24054903.6624
     -2251.8444      -1754.6834         11.2504         10.2504
  -8398930.60646  -6384242.40146  23531436.7754   23531443.7054
      2849.2664       2220.2074         16.2504         13.7504
 00  7  1 23 11 30.0020000  0  8G 3G15G11G21G23G29G31G25
  15430753.36245  12010922.00045  24714702.3774   24714711.3694
     -3173.8754      -2473.1494         10.5004          9.0004
  -2505265.48848  -1952153.36047  20523506.9794   20523512.6974
      -772.4844       -601.9364         32.2504         29.5004
  -8015867.97846  -3654912.61646  23587076.3774   23587082.4364
      2712.4694       2113.6124         15.5004         12.5004
   3282095.46648   2557475.73746  21707234.6044   21707240.6154
      -835.5004       -651.0394         28.2504         23.2504
  13501972.65045  10521007.57745  24625284.8144   24625292.4714
     -2388.5164      -1861.1814          7.5004          7.7504
   3978508.24148   3100137.20047  21266986.1194   21266990.7134
     -1620.9844      -1263.1054         30.5004         28.0004
   6365297.95645   4739298.77845  24067781.5724   24067789.6864
     -2262.0944      -1762.6704         10.7504          9.7504
  -8484326.97446  -6450784.88546  23515186.4794   23515193.6664
      2844.0004       2216.1044         16.0004         13.5004
 00  7  1 23 12  0.0020000  0  8G 3G15G11G21G23G29G31G25
  15525983.41845  12085127.10045  24732823.6584   24732831.1504
     -3174.6254      -2473.7344         10.5004          8.2504
  -2481813.03248  -1933878.73447  20527969.7524   20527975.4474
      -790.8754       -616.2664         32.5004         29.5004
  -8097124.74546  -3718229.49545  23571614.1504   23571619.9394
      2704.7504       2107.5974         15.0004         11.7504
   3307259.57848   2577084.13046  21712023.0414   21712028.8774
      -841.9694       -656.0804         28.2504         23.2504
  13573669.81045  10576875.35445  24638928.8694   24638937.9674
     -2391.1564      -1863.2394          7.5004          7.2504
   4027281.40048   3138142.25247  21276267.3384   21276272.1314
     -1630.4224      -1270.4594         30.2504         27.7504
   6433319.42645   4792302.42145  24080725.9634   24080733.0454
     -2272.5164      -1770.7914         10.5004          9.5004
  -8569560.84246  -6517200.72546  23498966.4634   23498973.2254
      2838.3754       2211.7214         14.5004         12.5004
 00  7  1 23 12 30.0020000  0  8G 3G15G11G21G23G29G31G25
  15621228.60345  12159343.89245  24750947.9004   24750957.9824
     -3175.0164      -2474.0384          9.0004          8.2504
  -2457815.52948  -1915179.40247  20532536.4794   20532542.1974
      -808.9694       -630.3654         32.5004         29.7504
  -8178155.06146  -3781369.92045  23556194.4944   23556200.4714
      2697.2504       2101.7534         14.5004         11.7504
   3332612.04048   2596839.28646  21716847.6274   21716853.5574
      -848.1874       -660.9254         28.5004         23.7504
  13645439.92845  10632799.98045  24652586.0574   24652592.5724
     -2393.5164      -1865.0774          7.7504          6.7504
   4076331.22548   3176362.87947  21285601.3614   21285606.0374
     -1639.5474      -1277.5694         30.5004         28.0004
   6501645.75045   4845543.62145  24093728.2684   24093735.0644
     -2282.5624      -1778.6204         10.5004          9.5004
  -8654630.62046  -6583488.71645  23482778.3384   23482784.6894
      2832.9384       2207.4844         14.2504         11.7504
 00  7  1 23 13  0.0020000  0  8G 3G15G11G21G23G29G31G25
  15716489.36745  12233572.84945  24769075.6114   24769086.3034
     -3175.5004      -2474.4164         10.7504          9.2504
  -2433269.03048  -1896052.27647  20537207.5494   20537213.3964
      -827.2664       -644.6234         32.5004         29.5004
  -8258953.43946  -3844329.61545  23540818.7604   23540824.6894
      2689.4844       2095.7024         14.0004         11.7504
   3358156.81748   2616744.29946  21721708.6974   21721714.6504
      -854.5944       -665.9174         28.7504         23.5004
  13717286.75345  10688784.45845  24666258.1504   24666266.7094
     -2396.0624      -1867.0624          8.0004          7.7504
   4125659.45548   3214800.45147  21294988.2214   21294992.8384
     -1648.7974      -1284.7774         30.7504         28.0004
   6570277.72245   4899022.99445  24106788.4474   24106794.9634
     -2292.6874      -1786.5104         10.5004          9.2504
  -8739530.36746  -6649644.21645  23466621.7364   23466629.0294
      2827.2504       2203.0524         13.2504         11.5004
 00  7  1 23 13 30.0020000  0  8G 3G15G11G21G23G29G31G25
  15811757.36945  12307807.47745  24787204.7054   24787215.0804
     -3175.8594      -2474.6964          9.2504          7.2504
  -2408178.17748  -1876500.97447  20541982.1584   20541987.9364
      -845.5784       -658.8924         32.2504         29.7504
  -8339522.49346  -3907110.61645  23525487.0414   23525492.2094
      2681.6414       2089.5904         14.0004         11.2504
   3383889.53648   2636795.76546  21726605.3854   21726611.2324
      -861.0474       -670.9464         28.7504         23.5004
  13789205.47445  10744824.86645  24679944.2914   24679951.2444
     -2398.6564      -1869.0834          8.0004          7.0004
   4175259.30648   3253449.67647  21304426.5024   21304431.0494
     -1657.9844      -1291.9364         30.5004         27.7504
   6639207.74045   4952734.61445  24119905.6584   24119912.5644
     -2302.7664      -1794.3634         11.0004         10.0004
  -8824262.63946  -6715669.20345  23450497.6504   23450503.6624
      2821.4224       2198.5114         13.2504         11.0004
 00  7  1 23 14  0.0020000  0  8G 3G15G11G21G23G29G31G25
  15907038.32345  12382052.16745  24805336.0334   24805344.7794
     -3175.9844      -2474.7934          9.7504          7.5004
  -2382534.63248  -1856519.01047  20546862.0254   20546867.7324
      -863.7664       -673.0644         32.2504         29.5004
  -8419851.53446  -3969704.59745  23510200.7994   23510206.4474
      2673.8594       2083.5274         14.2504         11.0004
   3409819.64448   2657001.03246  21731539.7214   21731545.5334
      -867.3914       -675.8894         28.7504         24.0004
  13861204.88645  10800928.20545  24693645.0024   24693652.7994
     -2401.0784      -1870.9704          8.2504          7.7504
   4225137.15348   3292315.51947  21313918.0964   21313922.6784
     -1666.9534      -1298.9254         30.7504         27.5004
   6708441.13645   5006682.61745  24133080.8854   24133086.9904
     -2312.5474      -1801.9854         11.0004          9.0004
  -8908816.18046  -6781554.94046  23434408.3074   23434415.5064
      2815.6884       2194.0424         14.7504         12.2504
 00  7  1 23 14 30.0020000  0  8G 3G15G11G21G23G29G31G25
  16002323.02745  12456299.79845  24823468.7294   24823479.5254
     -3176.0784      -2474.8664         10.7504          8.7504
  -2356344.36648  -1836111.03447  20551845.8144   20551851.5804
      -882.0164       -687.2854         32.2504         29.5004
  -8499943.96646  -4032114.21345  23494959.6044   23494965.5684
      2665.8754       2077.3054         14.7504         11.2504
   3435941.53448   2677355.74346  21736510.6114   21736516.3074
      -873.8284       -680.9054         29.0004         23.5004
  13933279.30345  10857089.96445  24707360.3304   24707368.6074
     -2403.6254      -1872.9554          8.2504          7.0004
   4275285.19748   3331391.90847  21323461.0184   21323465.6464
     -1676.0004      -1305.9744         30.7504         27.7504
   6777969.03545   5060860.10545  24146310.6974   24146317.6974
     -2322.3754      -1809.6434         10.7504          9.7504
  -8993193.84746  -6847303.65746  23418350.9634   23418357.7714
      2809.7504       2189.4164         14.5004         12.0004
 00  7  1 23 15  0.0020000  0  8G 3G15G11G21G23G29G31G25
  16097609.58545  12530548.78445  24841600.4634   24841609.7254
     -3176.5004      -2475.1954          9.0004          7.7504
  -2329606.69748  -1815276.49647  20556933.8854   20556939.7914
      -900.6724       -701.8224         32.5004         29.5004
  -8579796.36846  -4094336.79646  23479764.4004   23479769.8964
      2657.4384       2070.7314         15.7504         12.0004
   3462256.14048   2697860.60246  21741518.1354   21741523.9594
      -880.6724       -686.2384         29.0004         23.2504
  14005429.50945  10913310.83245  24721090.2134   24721098.3034
     -2406.5474      -1875.2314          8.2504          7.5004
   4325702.47948   3370678.09047  21333055.1114   21333059.7754
     -1685.3284      -1313.2434         30.7504         27.7504
   6847789.19545   5115265.34345  24159597.8544   24159603.6664
     -2332.4694      -1817.5084         10.7504          9.0004
  -9077392.93746  -6912913.19946  23402328.2214   23402334.0804
      2803.3444       2184.4244         15.2504         12.5004
 00  7  1 23 15 30.0020000  0  8G 3G15G11G21G23G29G31G25
  16192897.27445  12604798.72145  24859734.2294   24859745.1194
     -3176.1874      -2474.9514          9.0004          5.7504
  -2302319.17348  -1794013.51347  20562126.5644   20562132.3304
      -918.7034       -715.8734         32.5004         29.5004
  -8659404.09146  -4156368.72545  23464615.4714   23464620.7214
      2649.5314       2064.5704         16.5004         11.7504
   3488766.88848   2718518.30746  21746562.9714   21746568.8304
      -886.9374       -691.1204         28.7504         23.5004
  14077658.11945  10969592.76945  24734835.1894   24734844.9674
     -2408.8914      -1877.0584          8.0004          6.2504
   4376389.63448   3410174.55547  21342700.6274   21342705.2794
     -1694.0004      -1320.0004         30.5004         27.5004
   6917901.01845   5169897.86445  24172939.2754   24172945.8144
     -2341.8594      -1824.8254         10.0004          9.0004
  -9161407.87146  -6978379.26046  23386340.9714   23386347.0884
      2797.4534       2179.8344         16.5004         12.7504
 00  7  1 23 16  0.0020000  0  8G 3G15G11G21G23G29G31G25
  16288185.81745  12679049.44745  24877867.5254   24877877.4084
     -3176.1724      -2474.9394         11.2504          6.7504
  -2274479.26848  -1772320.09747  20567424.4714   20567430.0724
      -937.1094       -730.2154         32.7504         29.5004
  -8738761.97746  -4218205.99745  23449514.1434   23449520.4364
      2641.1564       2058.0444         17.2504         11.7504
   3515477.36548   2739331.64246  21751645.7444   21751651.6394
      -893.5944       -696.3074         28.7504         23.5004
  14149967.95645  11025938.02345  24748595.5724   24748602.8774
     -2411.5944      -1879.1644          8.0004          7.2504
   4427347.04848   3449881.62047  21352397.4714   21352402.1354
     -1702.9844      -1327.0014         30.7504         27.5004
   6988304.58545   5224757.67645  24186336.6584   24186344.8424
     -2351.5164      -1832.3504          9.2504          8.2504
  -9245233.98546  -7043698.15246  23370389.5104   23370395.4754
      2791.1254       2174.9034         17.5004         13.2504
 00  7  1 23 16 30.0020000  0  8G 3G15G11G21G23G29G31G25
  16383476.57945  12753301.73045  24896000.6354   24896012.4394
     -3176.2974      -2475.0374          8.2504          7.5004
  -2246082.65948  -1750192.88847  20572827.9324   20572833.5924
      -955.7664       -744.7524         33.0004         29.7504
  -8817863.24046  -4279843.29546  23434461.6044   23434467.2174
      2632.4694       2051.2744         17.7504         12.0004
   3542392.60448   2760304.52946  21756767.6354   21756773.5414
      -900.5164       -701.7004         28.5004         23.5004
  14222363.67845  11082350.12545  24762371.7364   24762379.8384
     -2414.5784      -1881.4894          7.7504          7.2504
   4478577.63448   3489801.54047  21362146.2364   21362150.8184
     -1712.1724      -1334.1604         30.5004         27.5004
   7059000.99745   5279845.71845  24199789.7914   24199797.9044
     -2361.3444      -1840.0084          9.0004          8.2504
  -9328864.13446  -7108864.39246  23354475.0414   23354481.5214
      2784.4534       2169.7044         18.0004         14.2504
 00  7  1 23 17  0.0020000  0  8G 3G15G11G21G23G29G31G25
  16478761.92044  12827549.79945  24914132.0494   24914140.7364
     -3176.0314      -2474.8304          6.2504          6.0004
  -2217133.78648  -1727635.34747  20578336.7684   20578342.5104
      -974.1564       -759.0834         33.0004         29.5004
  -8896709.82946  -4341282.15346  23419457.6504   23419463.6974
      2623.9844       2044.6634         18.0004         12.0004
   3569508.02648   2781433.40846  21761927.6434   21761933.5254
      -907.1874       -706.8994         29.0004         23.7504
  14294841.16544  11138825.99445  24776163.3614   24776169.9594
     -2417.2504      -1883.5714          7.2504          6.7504
   4530075.00548   3529929.34647  21371946.0334   21371950.5454
     -1721.0004      -1341.0394         30.5004         27.2504
   7129982.93145   5335156.24345  24213297.3774   24213304.5764
     -2370.7814      -1847.3624          9.2504          8.7504
  -9412300.21946  -7173879.40646  23338597.8304   23338604.0184
      2777.9534       2164.6394         19.2504         14.2504
 00  7  1 23 17 30.0020000  0  8G 3G15G11G21G23G29G31G25
  16574048.13045  12901798.56645  24932265.7054   24932275.0614
     -3176.2344      -2474.9884          9.5004          5.5004
  -2187623.29748  -1704640.18447  20583952.4634   20583958.2294
      -993.0784       -773.8274         32.7504         29.7504
  -8975290.12846  -4402513.51246  23404504.1194   23404509.5804
      2614.8284       2037.5284         17.5004         12.5004
   3596833.94248   2802726.30546  21767127.7754   21767133.3544
      -914.4064       -712.5244         29.5004         23.7504
  14367409.79944  11195372.92345  24789973.0024   24789978.8034
     -2420.5164      -1886.1164          7.2504          6.0004
   4581846.59548   3570270.82947  21381797.8224   21381802.3574
     -1730.3124      -1348.2954         30.7504         27.7504
   7201256.56145   5390694.04645  24226860.2294   24226869.1974
     -2380.6564      -1855.0574          9.2504          8.0004
  -9495530.26246  -7238733.87246  23322759.5804   23322765.7914
      2770.8284       2159.0874         18.7504         15.0004
 00  7  1 23 18  0.0020000  0  8G 3G15G11G21G23G29G31G25
  16669327.74745  12976042.37245  24950396.8854   24950407.1894
     -3175.8754      -2474.7084          8.7504          6.7504
  -2157556.23148  -1681211.32347  20589674.2054   20589679.8894
     -1011.5474       -788.2184         32.7504         29.5004
  -9053606.64946  -4463539.31746  23389601.1974   23389607.0924
      2606.0944       2030.7224         17.0004         12.2504
   3624366.33348   2824180.08746  21772366.9714   21772372.5964
      -921.2344       -717.8454         29.5004         23.5004
  14440064.77045  11251987.11045  24803798.8544   24803807.8224
     -2423.3124      -1888.2954          7.7504          6.0004
   4633885.53348   3610820.63447  21391700.5184   21391705.1934
     -1739.1094      -1355.1504         30.5004         27.5004
   7272814.39045   5446453.29245  24240476.9394   24240482.7644
     -2390.0164      -1862.3504          9.2504          9.0004
  -9578556.58646  -7303429.56946  23306960.0884   23306966.0764
      2764.0784       2153.8274         18.5004         14.7504
 00  7  1 23 18 30.0020000  0  8G 3G15G11G21G23G29G31G25
  16764600.70642  13050280.78645  24968525.6664   24968539.3224
     -3175.7344      -2474.5984          4.7504          5.2504
  -2126929.90948  -1657346.67647  20595502.1744   20595508.0214
     -1030.2974       -802.8294         32.5004         29.5004
  -9131653.99546  -4524355.38446  23374748.9084   23374754.9904
      2596.9384       2023.5884         16.2504         12.2504
   3652108.47548   2845797.31546  21777645.9324   21777651.8034
      -928.3444       -723.3854         28.7504         23.5004
  14512809.24745  11308670.97045  24817642.4714   24817650.8654
     -2426.4224      -1890.7184          8.0004          6.5004
   4686193.14948   3651579.79847  21401654.4634   21401659.0454
     -1748.1414      -1362.1874         30.7504         27.7504
   7344655.99245   5502433.68145  24254148.1504   24254155.9594
     -2399.5004      -1869.7404          9.5004          8.7504
  -9661374.06146  -7367962.53646  23291200.0414   23291206.1114
      2756.9534       2148.2754         17.7504         15.0004
 00  7  1 23 19  0.0020000  0  8G 3G15G11G21G23G29G31G25
  16859864.35044  13124511.83345  24986654.9084   24986664.8734
     -3175.5164      -2474.4284          6.7504          6.5004
  -2095743.96948  -1633045.96147  20601436.4634   20601442.2874
     -1049.1094       -817.4884         32.5004         29.5004
  -9209428.92046  -4584959.16546  23359948.5574   23359954.5924
      2587.6884       2016.3804         15.7504         12.0004
   3680062.06848   2867579.31246  21782965.3774   21782971.0844
      -935.5624       -729.0104         28.7504         23.5004
  14585643.91845  11365425.15145  24831502.0804   24831511.5294
     -2429.5784      -1893.1784          8.2504          7.0004
   4738767.88648   3692547.11847  21411659.0494   21411663.6194
     -1757.1564      -1369.2134         30.7504         27.2504
   7416779.24845   5558633.53545  24267873.0724   24267879.6584
     -2409.0004      -1877.1434          9.7504          8.2504
  -9743979.37546  -7432330.18546  23275480.1044   23275486.1744
      2749.7034       2142.6264         16.5004         14.7504
 00  7  1 23 19 30.0020000  0  8G 3G15G11G21G23G29G31G25
  16955125.26945  13198740.90145  25004782.7994   25004795.3774
     -3174.9374      -2473.9774          9.2504          7.0004
  -2063989.07648  -1608301.90747  20607479.3774   20607485.1434
     -1067.6254       -831.9164         32.7504         29.5004
  -9286919.76146  -4645341.56546  23345202.7524   23345208.6354
      2578.6254       2009.3184         15.7504         12.2504
   3708236.93748   2889533.73046  21788326.8304   21788332.7364
      -942.5004       -734.4164         28.2504         23.0004
  14658578.62045  11422257.27245  24845381.8854   24845389.9984
     -2432.4694      -1895.4304          8.2504          6.5004
   4791617.37448   3733728.52347  21421716.0724   21421720.7714
     -1765.8594      -1375.9944         30.7504         27.2504
   7489190.48645   5615057.77945  24281652.8854   24281661.5494
     -2418.1094      -1884.2414          9.7504          8.7504
  -9826360.32446  -7496522.98546  23259803.9324   23259809.9084
      2742.6254       2137.1104         17.2504         14.7504
 00  7  1 23 20  0.0020000  0  8G 3G15G11G21G23G29G31G25
  17050377.41344  13272963.25944  25022908.7364   25022921.8654
     -3174.7974      -2473.8684          6.7504          4.2504
  -2031668.57448  -1583117.11547  20613629.8304   20613635.5964
     -1086.7034       -846.7824         33.0004         29.5004
  -9364127.35546  -4705503.26046  23330510.3464   23330515.6314
      2568.9064       2001.7454         15.5004         12.2504
   3736630.60148   2911658.64746  21793730.1044   21793735.9394
      -950.0314       -740.2844         28.2504         22.7504
  14731610.41345  11479165.05345  24859279.0884   24859287.9754
     -2435.9374      -1898.1334          8.2504          6.2504
   4844736.92648   3775120.36647  21431824.2364   21431828.8894
     -1775.0474      -1383.1534         30.2504         27.0004
   7561883.57345   5671701.67145  24295485.8384   24295492.2364
     -2427.6874      -1891.7054         10.0004          8.5004
  -9908517.92946  -7560541.75146  23244169.7294   23244175.6704
      2734.9064       2131.0964         16.5004         14.7504
 00  7  1 23 20 30.0020000  0  8G 3G15G11G21G23G29G31G25
  17145617.11342  13347175.78343  25041031.8304   25041048.2054
     -3174.3284      -2473.5024          3.7504          2.7504
  -1998783.25748  -1557492.20747  20619887.7214   20619893.4044
     -1105.5164       -861.4414         33.2504         29.7504
  -9441049.51246  -4765442.54646  23315872.6974   23315878.8614
      2559.3594       1994.3064         16.0004         12.7504
   3765242.87248   2933953.89546  21799174.6434   21799180.6544
      -957.3284       -745.9704         28.0004         22.7504
  14804738.82345  11536148.10645  24873194.7214   24873198.8344
     -2439.1414      -1900.6294          8.2504          6.7504
   4898123.74348   3816720.46747  21441983.2524   21441987.9754
     -1783.9224      -1390.0694         30.0004         26.7504
   7634854.89245   5728562.34245  24309372.2754   24309379.9084
     -2436.9064      -1898.8884          9.7504          8.5004
  -9990449.74846  -7624384.60846  23228578.3544   23228584.4714
      2727.3444       2125.2034         16.0004         14.2504
 00  7  1 23 21  0.0020000  0  8G 3G15G11G21G23G29G31G25
  17240850.10343  13421383.05545  25059154.2834   25059166.6394
     -3174.2974      -2473.4784          5.7504          6.2504
  -1965325.00448  -1531420.85947  20626254.6274   20626260.4394
     -1124.8284       -876.4894         33.0004         29.5004
  -9517675.81446  -4825151.30246  23301290.9004   23301297.0534
      2549.2504       1986.4294         16.2504         13.0004
   3794082.83448   2956426.57146  21804662.8694   21804668.8224
      -965.1254       -752.0454         28.2504         23.2504
  14877972.35645  11593213.06445  24887130.9944   24887140.5144
     -2442.9064      -1903.5634          8.7504          6.7504
   4951784.51548   3858534.04047  21452194.6114   21452199.3574
     -1793.2504      -1397.3384         29.7504         26.5004
   7708109.79245   5785643.94945  24323312.0334   24323317.3184
     -2446.5164      -1906.3764          9.7504          8.7504
 -10072145.05046  -7688043.12646  23213032.3304   23213038.5064
      2719.2034       2118.8604         17.0004         14.5004
 00  7  1 23 21 30.0020000  0  8G 3G15G11G21G23G29G31G25
  17336068.84645  13495579.23145  25077274.7684   25077284.7094
     -3173.6094      -2472.9424          7.5004          7.2504
  -1931298.63348  -1504906.82047  20632729.5724   20632735.3734
     -1143.5944       -891.1124         32.7504         29.5004
  -9594007.91646  -4884630.78346  23286765.5964   23286771.3504
      2539.5634       1978.8804         16.7504         13.0004
   3823146.41348   2979073.49446  21810193.6974   21810199.4164
      -972.4374       -757.7444         28.2504         22.7504
  14951306.95245  11650356.78345  24901085.9474   24901094.8814
     -2446.0784      -1906.0354          9.0004          7.0004
   5005713.03848   3900556.24947  21462456.9324   21462461.6314
     -1801.9694      -1404.1314         29.7504         26.2504
   7781640.96645   5842940.86645  24337304.0334   24337311.9594
     -2455.5474      -1913.4134          9.7504          8.5004
 -10153605.66046  -7751518.79946  23197530.9474   23197537.1464
      2711.5004       2112.8574         17.0004         14.5004
 00  7  1 23 22  0.0020000  0  8G 3G15G11G21G23G29G31G25
  17431271.72744  13569763.07445  25095391.1744   25095405.1704
     -3173.3594      -2472.7484          6.5004          6.7504
  -1896703.16048  -1477949.33247  20639312.9474   20639318.7364
     -1162.8754       -906.1364         32.7504         29.2504
  -9670042.35446  -4943878.34746  23272296.7294   23272302.2254
      2529.2664       1970.8564         17.5004         13.2504
   3852435.87747   3001896.43346  21815766.9244   21815772.7954
      -980.2814       -763.8564         27.7504         22.5004
  15024743.90445  11707580.22245  24915061.1194   24915068.3894
     -2449.7974      -1908.9334          9.2504          7.5004
   5059908.55448   3942786.50247  21472769.8854   21472774.5374
     -1811.1564      -1411.2914         29.5004         26.5004
   7855446.60545   5900451.63345  24351349.6974   24351355.9434
     -2464.9224      -1920.7184         10.0004          7.7504
 -10234828.03846  -7814808.82646  23182075.2364   23182081.1314
      2703.2034       2106.3924         18.5004         14.7504
 00  7  1 23 22 30.0020000  0  8G 3G15G11G21G23G29G31G25
  17526459.94942  13643935.49545  25113505.5884   25113515.0494
     -3172.7194      -2472.2484          4.7504          5.0004
  -1861534.63848  -1450545.31647  20646005.3694   20646011.2524
     -1181.8594       -920.9294         32.7504         29.2504
  -9745772.18546  -5002888.55946  23257885.7444   23257891.8964
      2519.2034       1963.0154         17.5004         13.0004
   3881955.92647   3024899.04446  21821384.5184   21821390.4004
      -987.8754       -769.7734         27.7504         22.5004
  15098287.63645  11764886.94145  24929056.1114   24929066.8854
     -2453.2664      -1911.6364          9.2504          7.2504
   5114373.64748   3985226.81047  21483134.3544   21483139.0534
     -1820.0004      -1418.1824         29.7504         26.2504
   7929527.96345   5958177.25545  24365446.3304   24365454.4084
     -2473.9694      -1927.7684          9.7504          8.7504
 -10315805.30846  -7877907.88846  23166665.2054   23166671.3114
      2695.1094       2100.0854         18.0004         14.7504
 00  7  1 23 23  0.0020000  0  8G 3G15G11G21G23G29G31G25
  17621631.37342  13718094.81345  25131614.5884   25131624.0724
     -3171.9844      -2471.6764          4.5004          4.5004
  -1825792.67548  -1422694.46147  20652806.7914   20652812.5684
     -1200.8444       -935.7224         32.7504         29.2504
  -9821194.44946  -5061659.11746  23243533.2364   23243539.1664
      2509.0474       1955.1014         17.5004         12.5004
   3911708.41248   3048082.77946  21827046.2994   21827052.3814
      -995.5164       -775.7264         28.0004         22.5004
  15171939.15645  11822277.62745  24943070.9244   24943078.8964
     -2456.7344      -1914.3384          9.0004          7.7504
   5169107.02948   4027876.18147  21493549.7294   21493554.3464
     -1828.7974      -1425.0374         29.7504         26.2504
   8003882.69245   6016115.87445  24379596.1274   24379603.7134
     -2482.8914      -1934.7204         10.5004          9.0004
 -10396534.07746  -7940813.31246  23151302.2364   23151308.2714
      2686.9064       2093.6934         18.0004         14.7504
 00  7  1 23 23 30.0020000  0  8G 3G15G11G21G23G29G31G25
  17716785.74844  13792240.88745  25149722.5334   25149733.0614
     -3171.4224      -2471.2384          6.2504          6.0004
  -1789475.24748  -1394395.18647  20659717.6504   20659723.4284
     -1220.1254       -950.7474         32.7504         29.2504
  -9896304.23346  -5120186.16146  23229240.1974   23229246.0574
      2498.4694       1946.8594         17.0004         12.5004
   3941696.02548   3071449.73046  21832752.8144   21832758.6864
     -1003.4694       -781.9244         28.5004         22.5004
  15245701.04845  11879754.27945  24957107.7684   24957115.3184
     -2460.5314      -1917.2974          8.7504          7.2504
   5224109.48448   4070735.21547  21504016.5104   21504021.3034
     -1837.8124      -1432.0624         29.7504         26.2504
   8078510.31845   6074267.16845  24393797.2134   24393805.2564
     -2492.0624      -1941.8674         11.2504          9.7504
 -10477009.64646  -8003521.43346  23135988.1744   23135994.8544
      2678.3284       2087.0094         18.0004         15.2504
 00  7  1 23 24  0.0020000  0  8G 3G15G11G21G23G29G31G25
  17811922.94044  13866373.50645  25167827.2444   25167840.6664
     -3170.6254      -2470.6174          6.5004          7.2504
  -1752580.04348  -1365645.69747  20666738.7444   20666744.4984
     -1239.1874       -965.6014         33.0004         29.2504
  -9971096.27946  -5178465.62146  23215007.8144   23215013.3574
      2488.0314       1938.7264         16.7504         13.0004
   3971922.53648   3095002.84046  21838504.9004   21838510.7364
     -1011.2344       -787.9754         28.5004         22.7504
  15319576.52345  11937319.46945  24971165.3384   24971172.7364
     -2464.1254      -1920.0974          8.7504          7.5004
   5279381.93848   4113804.63847  21514534.4474   21514539.1354
     -1846.5944      -1438.9044         29.5004         26.2504
   8153410.67345   6132630.95945  24408050.7604   24408058.5804
     -2500.9064      -1948.7584         11.0004          9.0004
 -10557226.28946  -8066027.77946  23120724.1824   23120730.4284
      2669.8444       2080.3984         19.5004         15.2504
 00  7  1 23 24 30.0020000  0  8G 3G15G11G21G23G29G31G25
  17907036.55043  13940487.67245  25185927.0254   25185936.6864
     -3169.9064      -2470.0574          5.7504          6.7504
  -1715110.55448  -1336448.71447  20673868.9714   20673874.6434
     -1258.4064       -980.5764         33.0004         29.2504
 -10045571.55746  -5236498.25046  23200835.4084   23200841.0104
      2477.3284       1930.3864         16.2504         12.5004
   4002384.57948   3118739.47246  21844301.5964   21844307.5024
     -1019.2034       -794.1844         29.0004         23.0004
  15393562.12445  11994970.53545  24985244.4794   24985253.0724
     -2467.8914      -1923.0324          9.2504          7.7504
   5334919.09748   4157080.32647  21525102.8384   21525107.5964
     -1855.5004      -1445.8444         29.7504         26.2504
   8228577.23745   6191202.19845  24422354.0254   24422361.7404
     -2509.8284      -1955.7104         11.0004          9.5004
 -10637185.01746  -8128333.17846  23105507.9244   23105514.0534
      2661.1094       2073.5924         19.0004         15.2504
 00  7  1 23 25  0.0020000  0  8G 3G15G11G21G23G29G31G25
  18002126.67643  14014583.61445  25204021.8614   25204030.7834
     -3169.2194      -2469.5214          5.7504          6.2504
  -1677064.40048  -1306802.38247  20681108.9474   20681114.6434
     -1277.7814       -995.6744         33.0004         29.2504
 -10119724.44446  -5294279.68646  23186724.4554   23186730.4794
      2466.4064       1921.8754         16.0004         12.5004
   4033086.14348   3142662.75046  21850144.0494   21850149.8614
     -1027.3594       -800.5404         29.0004         23.0004
  15467661.03045  12052709.78045  24999345.5024   24999353.7094
     -2471.8124      -1926.0884          9.5004          8.7504
   5390722.12648   4200563.17947  21535721.9864   21535726.6974
     -1864.5004      -1452.8574         29.7504         26.2504
   8304009.94045   6249980.81445  24436708.3854   24436717.2484
     -2518.7974      -1962.6994         10.7504          9.2504
 -10716880.60546  -8190433.52046  23090342.6744   23090348.7324
      2652.1094       2066.5794         19.5004         15.2504
 00  7  1 23 25 30.0020000  0  8G 3G15G11G21G23G29G31G25
  18097193.76944  14088661.56745  25222113.3074   25222124.8544
     -3168.6414      -2469.0714          6.7504          7.2504
  -1638438.73548  -1276704.48847  20688459.1664   20688464.9434
     -1297.3444      -1010.9174         32.7504         29.2504
 -10193549.53446  -5351805.67746  23172676.0184   23172681.7014
      2455.1884       1913.1334         16.0004         12.7504
   4064031.67548   3166776.13446  21856032.5574   21856038.3574
     -1035.7504       -807.0784         28.7504         22.7504
  15541876.58445  12110540.00345  25013468.4324   25013477.2364
     -2475.9844      -1929.3384          9.2504          8.2504
   5446792.51748   4244254.37247  21546391.7524   21546396.4284
     -1873.6254      -1459.9684         29.5004         26.0004
   8379709.24145   6308967.18045  24451113.9244   24451122.1434
     -2527.8914      -1969.7854         10.7504          9.5004
 -10796306.80346  -8252323.95546  23075227.7994   23075234.0684
      2642.8754       2059.3834         18.5004         15.0004
 00  7  1 23 26  0.0020000  0  8G 3G15G11G21G23G29G31G25
  18192240.46344  14162723.66245  25240199.1894   25240211.0184
     -3167.7344      -2468.3644          7.0004          6.7504
  -1599228.78348  -1246151.30847  20695920.3614   20695926.2914
     -1316.6094      -1025.9294         32.5004         29.2504
 -10267039.01246  -5409070.15046  23158691.4864   23158697.2294
      2444.1564       1904.5374         16.2504         13.0004
   4095226.32248   3191083.63146  21861968.8774   21861974.8544
     -1043.8754       -813.4094         28.5004         22.7504
  15616214.55845  12168465.58545  25027614.5024   25027620.5024
     -2479.8594      -1932.3584          9.2504          8.2504
   5503133.84248   4288156.68847  21557113.0804   21557117.9554
     -1882.4224      -1466.8224         29.2504         25.7504
   8455677.43045   6368163.02445  24465570.1274   24465578.9204
     -2536.5944      -1976.5674         10.7504          9.0004
 -10875455.97546  -8313998.52846  23060166.3544   23060172.5064
      2633.7814       2052.2974         18.7504         15.5004
 00  7  1 23 26 30.0020000  0  8G 3G15G11G21G23G29G31G25
  18287257.09644  14236762.40745  25258280.6664   25258291.2524
     -3166.9694      -2467.7684          7.0004          6.5004
  -1559441.84248  -1215148.52447  20703491.6974   20703497.5454
     -1336.1254      -1041.1364         32.5004         29.0004
 -10340197.35446  -5466076.59646  23144770.2604   23144775.3224
      2432.7814       1895.6744         17.2504         13.2504
   4126664.01148   3215580.51146  21867951.3074   21867957.0844
     -1052.2664       -819.9474         28.5004         22.7504
  15690668.10545  12226481.23645  25041783.0964   25041789.9164
     -2483.9844      -1935.5724          8.7504          8.5004
   5559737.34548   4332263.28746  21567884.4864   21567889.4324
     -1891.4224      -1473.8354         29.0004         25.5004
   8531904.27645   6427560.45645  24480076.1584   24480084.9044
     -2545.4534      -1983.4704         11.0004          9.5004
 -10954332.44346  -8375460.59546  23045157.0804   23045163.0924
      2624.3754       2044.9684         19.7504         15.5004
 00  7  1 23 27  0.0020000  0  8G 3G15G11G21G23G29G31G25
  18382246.10844  14310779.59945  25276356.9394   25276368.9794
     -3165.7664      -2466.8304          7.2504          7.2504
  -1519073.01448  -1183692.31547  20711173.6504   20711179.4754
     -1355.2664      -1056.0514         33.0004         29.0004
 -10413016.73746  -5522818.91246  23130912.9394   23130918.8934
      2421.6724       1887.0174         17.7504         13.7504
   4158350.98748   3240271.63646  21873980.9324   21873986.7214
     -1060.3444       -826.2424         28.7504         22.5004
  15765242.90245  12284591.37445  25055974.1434   25055980.7994
     -2487.7974      -1938.5434          8.0004          7.5004
   5616606.63948   4376577.00346  21578706.1744   21578710.8964
     -1900.0004      -1480.5194         28.7504         25.5004
   8608392.30645   6487161.44445  24494631.2994   24494640.0684
     -2553.8754      -1990.0324         11.0004          9.5004
 -11032928.69646  -8436704.32746  23030199.5804   23030205.8144
      2615.2344       2037.8454         18.5004         15.5004
 00  7  1 23 27 30.0020000  0  8G 3G15G11G21G23G29G31G25
  18477202.53245  14384771.33645  25294426.6274   25294438.1624
     -3164.9224      -2466.1734          7.7504          7.0004
  -1478125.03348  -1151784.81447  20718965.8074   20718971.5254
     -1374.8754      -1071.3314         33.2504         29.0004
 -10485496.46146  -5579296.56546  23117120.6044   23117126.0414
      2410.0164       1877.9344         18.5004         13.7504
   4190285.77948   3265155.87146  21880058.0334   21880064.0104
     -1068.9224       -832.9264         28.2504         22.5004
  15839937.03944  12342794.44945  25070186.8224   25070194.1974
     -2492.1094      -1941.9034          7.2504          7.2504
   5673737.89348   4421094.83846  21589577.9084   21589582.8304
     -1909.0004      -1487.5324         28.5004         25.2504
   8685136.44545   6546961.93745  24509234.4394   24509242.1894
     -2562.6724      -1996.8874         10.5004          9.2504
 -11111243.66946  -8497728.88246  23015297.1194   23015303.2484
      2605.4844       2030.2484         19.2504         16.0004
 00  7  1 23 28  0.0020000  0  8G 3G15G11G21G23G29G31G25
  18572122.01745  14458734.34545  25312489.8464   25312500.2214
     -3163.2034      -2464.8344          8.7504          7.2504
  -1436600.02348  -1119427.68147  20726867.9794   20726873.8384
     -1393.6414      -1085.9544         33.2504         29.0004
 -10557635.96046  -5635509.10146  23103392.7134   23103398.2914
      2399.0784       1869.4124         18.7504         14.5004
   4222467.62348   3290232.61346  21886182.1044   21886187.9514
     -1076.7194       -839.0024         28.0004         22.0004
  15914749.30444  12401089.61745  25084424.5724   25084432.0184
     -2495.5944      -1944.6194          6.5004          7.0004
   5731127.65648   4465814.11346  21600498.9084   21600503.8654
     -1917.1414      -1493.8764         28.5004         25.0004
   8762132.06045   6606958.40745  24523887.1504   24523896.3074
     -2570.5474      -2003.0244         10.2504          9.0004
 -11189276.85146  -8558533.85446  23000447.9004   23000453.9474
      2596.5164       2023.2594         19.0004         15.7504
 00  7  1 23 28 30.0020000  0  8G 3G15G11G21G23G29G31G25
  18667000.44545  14532665.38845  25330544.9634   25330556.5574
     -3162.0004      -2463.8964          8.7504          7.7504
  -1394500.03948  -1086622.51947  20734879.1114   20734884.9364
     -1413.0164      -1101.0514         33.0004         29.0004
 -10629434.18146  -5691455.71446  23089729.6974   23089735.4634
      2387.4534       1860.3534         18.5004         14.2504
   4254895.72148   3315501.25246  21892352.8544   21892358.7484
     -1085.1414       -845.5644         28.2504         22.5004
  15989678.29143  12459475.71445  25098682.8074   25098689.3694
     -2499.6874      -1947.8084          5.7504          6.2504
   5788772.73648   4510732.33246  21611468.4944   21611473.2994
     -1925.8594      -1500.6704         28.7504         25.0004
   8839374.84045   6667147.43645  24538585.5884   24538593.4084
     -2578.9374      -2009.5624         10.0004          8.7504
 -11267026.79746  -8619118.13246  22985652.5024   22985658.9124
      2586.8134       2015.6984         19.2504         16.0004
 00  7  1 23 29  0.0020000  0  8G 3G15G11G21G23G29G31G25
  18761836.11145  14606563.07445  25348591.3934   25348603.6434
     -3160.5004      -2462.7274          8.0004          7.0004
  -1351824.55448  -1053368.92447  20742999.9794   20743005.7684
     -1432.1564      -1115.9664         32.5004         28.7504
 -10700887.45546  -5747133.53246  23076132.6824   23076138.0724
      2375.9384       1851.3804         18.0004         13.7504
   4287571.26948   3340962.70546  21898571.0334   21898576.9044
     -1093.3754       -851.9814         28.2504         22.5004
  16064725.36042  12517953.77645  25112963.6824   25112972.1354
     -2503.5784      -1950.8404          4.7504          5.7504
   5846672.38548   4555848.91846  21622486.4244   21622491.1004
     -1934.2664      -1507.2204         28.7504         25.2504
   8916862.59345   6727527.43645  24553331.4324   24553340.4824
     -2587.0314      -2015.8694          9.7504          8.2504
 -11344490.14147  -8679479.08446  22970911.8694   22970917.5644
      2577.2504       2008.2474         20.5004         16.2504
 00  7  1 23 29 30.0020000  0  8G 3G15G11G21G23G29G31G25
  18856629.75545  14680428.08745  25366630.5644   25366640.6354
     -3159.1254      -2461.6564          7.7504          6.5004
  -1308570.50048  -1019664.49447  20751230.8694   20751236.7874
     -1451.5004      -1131.0394         32.2504         28.5004
 -10771989.90246  -5802537.98046  23062601.9164   23062607.6934
      2364.1564       1842.2004         17.5004         14.0004
   4320499.19548   3366620.81546  21904837.1354   21904842.7484
     -1101.8754       -858.6044         28.5004         22.5004
  16139894.20242  12576526.75945  25127267.4794   25127275.2294
     -2507.6874      -1954.0424          4.0004          5.2504
   5904828.41148   4601165.28246  21633553.1824   21633558.2214
     -1942.8444      -1513.9044         28.7504         25.0004
   8994595.86845   6788098.67445  24568123.6044   24568130.8854
     -2595.2344      -2022.2614          9.5004          8.7504
 -11421660.77646  -8739611.95646  22956226.5414   22956232.7754
      2567.4064       2000.5764         19.7504         16.5004
 00  7  1 23 30  0.0020000  0  8G 3G15G11G21G23G29G31G25
  18951376.15344  14754256.18745  25384660.0884   25384672.0924
     -3157.3914      -2460.3044          6.5004          6.2504
  -1264740.77548   -985511.49447  20759571.6974   20759577.5684
     -1470.5314      -1145.8694         32.7504         28.7504
 -10842741.53346  -5857669.06446  23049138.5574   23049143.9244
      2352.5474       1833.1534         16.7504         13.5004
   4353677.78748   3392474.25146  21911150.6894   21911156.5254
     -1110.0944       -865.0084         28.5004         22.5004
  16215182.42242  12635192.81345  25141594.3544   25141598.8184
     -2511.6094      -1957.0984          4.0004          5.2504
   5963236.60548   4646678.14346  21644667.8694   21644672.8614
     -1951.0784      -1520.3214         28.7504         25.2504
   9072569.41345   6848857.19945  24582961.4474   24582969.7134
     -2603.0474      -2028.3484          9.5004          8.0004
 -11498538.70647  -8799516.72046  22941597.6894   22941603.3854
      2557.7194       1993.0284         22.0004         16.7504
 00  7  1 23 30 30.0020000  0  8G 3G15G11G21G23G29G31G25
  19046074.89744  14828047.22845  25402680.6044   25402690.4634
     -3155.9064      -2459.1484          6.5004          6.7504
  -1220333.95948   -950908.80347  20768022.0574   20768027.8814
     -1489.9694      -1161.0154         33.0004         28.7504
 -10913137.60446  -5912523.08646  23035742.2054   23035748.1934
      2340.4694       1823.7424         16.7504         13.0004
   4387109.79948   3418525.15146  21917512.2914   21917518.0924
     -1118.7504       -871.7534         28.0004         22.2504
  16290592.79742  12693954.02145  25155944.8224   25155950.4824
     -2515.7814      -1960.3494          4.7504          4.5004
   6021897.68248   4692388.05346  21655830.7604   21655835.5184
     -1959.6874      -1527.0294         28.7504         25.2504
   9150782.38045   6909802.25745  24597844.5724   24597853.2134
     -2611.1724      -2034.6794          9.2504          8.5004
 -11575119.00047  -8859189.59946  22927024.4714   22927030.5764
      2547.5634       1985.1144         21.5004         16.7504
 00  7  1 23 31  0.0020000  0  8G 3G15G11G21G23G29G31G25
  19140728.46145  14901802.95545  25420692.9554   25420704.5254
     -3154.0624      -2457.7114          7.5004          7.7504
  -1175345.18848   -915852.63947  20776583.1824   20776589.0064
     -1509.0314      -1175.8694         33.0004         28.7504
 -10983170.18546  -5967093.86946  23022415.7444   23022421.4044
      2328.6254       1814.5134         17.0004         13.5004
   4420801.19448   3444778.17146  21923924.0254   21923929.7564
     -1127.0944       -878.2554         28.2504         22.0004
  16366130.68743  12752814.49045  25170319.8934   25170328.4044
     -2519.7504      -1963.4424          5.0004          5.5004
   6080815.14548   4738297.75246  21667042.3774   21667047.3114
     -1967.9064      -1533.4334         28.7504         25.2504
   9229237.13245   6970935.74945  24612774.4794   24612781.8424
     -2618.8754      -2040.6824          9.2504          8.0004
 -11651393.71647  -8918624.33746  22912509.9164   22912515.9164
      2537.6564       1977.3944         21.7504         17.0004
 00  7  1 23 31 30.0020000  0  8G 3G15G11G21G23G29G31G25
  19235326.49545  14975515.48545  25438694.6974   25438707.4394
     -3152.2814      -2456.3234          8.2504          7.7504
  -1129783.57248   -880350.11447  20785253.1044   20785258.9634
     -1528.2344      -1190.8324         32.5004         28.5004
 -11052844.70146  -6021385.64746  23009157.0334   23009162.3304
      2316.5164       1805.0774         17.7504         13.7504
   4454744.87148   3471227.76646  21930382.9554   21930388.9794
     -1135.6414       -884.9154         28.0004         22.0004
  16441788.25843  12811768.29644  25184716.7134   25184721.0494
     -2523.9224      -1966.6924          5.5004          4.0004
   6139979.36248   4784399.71946  21678300.8464   21678305.8144
     -1976.1874      -1539.8864         28.5004         25.0004
   9307922.41245   7032248.82645  24627747.4324   24627754.6434
     -2626.6254      -2046.7214          8.7504          8.5004
 -11727368.76147  -8977825.58446  22898051.9244   22898058.0764
      2527.5004       1969.4814         21.5004         17.2504
 00  7  1 23 32  0.0020000  0  8G 3G15G11G21G23G29G31G25
  19329870.42045  15049185.87245  25456685.7054   25456695.5294
     -3150.3124      -2454.7894          8.7504          8.2504
  -1083645.35748   -844398.28647  20794032.8854   20794038.7914
     -1547.3124      -1205.6984         32.2504         28.5004
 -11122154.64446  -6075393.34646  22995967.9864   22995973.7294
      2304.4534       1795.6784         18.7504         14.5004
   4488945.70547   3497877.74846  21936891.3224   21936897.2174
     -1144.0944       -891.5024         27.7504         22.0004
  16517570.08243  12870818.96145  25199137.2994   25199151.4004
     -2527.9374      -1969.8214          5.5004          5.0004
   6199392.66348   4830695.77646  21689606.8074   21689611.7174
     -1984.3594      -1546.2544         28.7504         25.0004
   9386839.81345   7093742.77945  24642765.1274   24642772.9944
     -2634.1874      -2052.6144          8.7504          7.7504
 -11803037.28547  -9036787.97246  22883652.9324   22883658.7794
      2517.3754       1961.5914         21.7504         17.2504
 00  7  1 23 32 30.0020000  0  8G 3G15G11G21G23G29G31G25
  19424362.41445  15122815.77545  25474666.6824   25474679.7874
     -3148.9374      -2453.7184          9.2504          8.0004
  -1036926.12748   -807993.71947  20802923.3544   20802929.3304
     -1567.0944      -1221.1124         32.5004         28.5004
 -11191092.47846  -6129111.10046  22982849.6354   22982854.8034
      2291.5784       1785.6454         19.5004         15.0004
   4523409.63847   3524732.73846  21943449.5884   21943455.5534
     -1153.3124       -898.6854         27.5004         21.7504
  16593481.16543  12929970.31145  25213582.7364   25213590.9794
     -2532.6414      -1973.4864          6.0004          5.7504
   6259058.49848   4877188.62046  21700961.1354   21700965.7644
     -1993.1724      -1553.1214         29.0004         25.0004
   9465991.34045   7155419.18845  24657827.5254   24657833.4434
     -2642.3754      -2058.9944          8.7504          6.7504
 -11878391.63647  -9095505.54646  22869313.2364   22869319.2484
      2506.4384       1953.0684         21.7504         17.5004
 00  7  1 23 33  0.0020000  0  8G 3G15G11G21G23G29G31G25
  19518801.21645  15196404.21145  25492638.2684   25492650.3424
     -3146.8124      -2452.0624          9.0004          8.0004
   -989625.12948   -771135.82747  20811924.5494   20811930.3034
     -1586.1874      -1235.9904         33.0004         28.7504
 -11259654.16947  -6182535.74746  22969803.0574   22969808.5294
      2279.2974       1776.0754         20.2504         15.2504
   4558138.53947   3551794.19746  21950058.3304   21950064.2254
     -1161.8594       -905.3454         27.2504         21.7504
  16669523.72344  12989224.09345  25228053.4794   25228061.4984
     -2536.7504      -1976.6884          6.7504          6.5004
   6318976.77448   4923878.16846  21712363.2364   21712367.9594
     -2001.2504      -1559.4164         28.5004         25.0004
   9545375.42945   7217276.83145  24672934.1894   24672941.1314
     -2649.7814      -2064.7654          9.0004          7.2504
 -11953427.78347  -9153975.18946  22855034.1974   22855040.2444
      2496.0784       1944.9964         21.7504         17.2504
 00  7  1 23 33 30.0020000  0  8G 3G15G11G21G23G29G31G25
  19613181.28145  15269946.90445  25510598.7054   25510608.7754
     -3145.0624      -2450.6984          8.2504          7.2504
   -941746.26548   -733827.64847  20821035.7054   20821041.2254
     -1605.6564      -1251.1614         33.0004         28.7504
 -11327840.42347  -6235667.85146  22956827.3304   22956832.7444
      2266.5164       1766.1164         20.0004         15.7504
   4593130.47447   3579060.61046  21956717.0884   21956723.0064
     -1170.8444       -912.3464         27.2504         21.7504
  16745694.70544  13048577.89545  25242548.7214   25242556.5294
     -2541.2504      -1980.1954          6.7504          6.2504
   6379142.48748   4970760.52146  21723812.3224   21723817.0454
     -2009.7034      -1566.0024         28.5004         25.0004
   9624985.85845   7279310.80945  24688083.6194   24688091.1584
     -2657.5164      -2070.7914          9.0004          8.0004
 -12028145.98947  -9212197.06946  22840815.8614   22840821.6864
      2485.2194       1936.5344         22.2504         17.7504
 00  7  1 23 34  0.0020000  0  8G 3G15G11G21G23G29G31G25
  19707498.06045  15343440.26845  25528546.7524   25528558.8614
     -3142.6724      -2448.8354          7.7504          6.7504
   -893292.17148   -696071.23947  20830256.1114   20830261.9124
     -1624.5784      -1265.9054         32.5004         28.5004
 -11395650.57647  -6288506.88746  22943923.3304   22943929.1664
      2254.1884       1756.5104         20.0004         16.0004
   4628383.89847   3606530.78646  21963425.4794   21963431.5144
     -1179.3444       -918.9694         27.0004         21.7504
  16821992.26344  13108030.43545  25257068.2444   25257076.3934
     -2545.2194      -1983.2874          6.7504          5.7504
   6439552.01248   5017832.86046  21735307.7214   21735312.3504
     -2017.5474      -1572.1144         28.5004         24.7504
   9704817.72245   7341517.34745  24703274.2754   24703282.7404
     -2664.5784      -2076.2954          8.7504          7.7504
 -12102546.29747  -9270171.25646  22826657.7214   22826663.8384
      2474.8284       1928.4384         21.7504         17.7504
 00  7  1 23 34 30.0020000  0  8G 3G15G11G21G23G29G31G25
  19801749.03445  15416882.37645  25546481.8544   25546494.5964
     -3140.5944      -2447.2164          7.5004          5.7504
   -844263.58548   -657867.17047  20839586.0184   20839591.9474
     -1643.8914      -1280.9544         32.5004         28.2504
 -11463082.13046  -6341050.92946  22931091.4794   22931097.0104
      2241.3594       1746.5144         19.5004         15.5004
   4663899.97647   3634205.62646  21970184.0574   21970190.0574
     -1188.2814       -925.9334         27.0004         21.7504
  16898416.85044  13167582.04045  25271610.8544   25271623.7834
     -2549.6414      -1986.7334          7.2504          5.0004
   6500203.72348   5065093.92146  21746849.3694   21746854.2794
     -2025.7664      -1578.5194         28.2504         24.5004
   9784868.14745   7403894.20145  24718507.7294   24718516.6394
     -2671.9844      -2082.0664          8.2504          7.5004
 -12176625.75847  -9327895.41346  22812561.0184   22812566.9004
      2463.8914       1919.9154         21.7504         17.0004
 00  7  1 23 35  0.0020000  0  8G 3G15G11G21G23G29G31G25
  19895937.83644  15490276.03845  25564406.4394   25564419.2644
     -3138.7814      -2445.8044          6.7504          6.0004
   -794655.02448   -619211.17647  20849026.1114   20849032.0644
     -1663.5164      -1296.2464         32.2504         28.0004
 -11530126.45246  -6393293.22346  22918333.1584   22918339.0534
      2228.0784       1736.1654         18.7504         15.0004
   4699685.26747   3662090.24146  21976993.9084   21976999.7564
     -1197.5784       -933.1784         27.0004         21.5004
  16974974.89645  13227237.40445  25286179.4324   25286190.8734
     -2554.4064      -1990.4464          7.5004          5.7504
   6561102.29948   5112547.33846  21758438.0574   21758442.8964
     -2034.2814      -1585.1544         28.2504         24.5004
   9865140.54045   7466444.03945  24733783.2914   24733790.7134
     -2679.6414      -2088.0324          8.5004          7.7504
 -12250375.46747  -9385362.62646  22798526.7444   22798532.6274
      2452.5634       1911.0884         21.7504         17.5004
 00  7  1 23 35 30.0020000  0  8G 3G15G11G21G23G29G31G25
  19990061.06444  15563618.62045  25582316.9554   25582328.7484
     -3136.4694      -2444.0024          6.5004          5.5004
   -744467.66548   -580104.17447  20858576.5574   20858582.4284
     -1682.7034      -1311.1974         32.5004         28.5004
 -11596781.48446  -6445232.16346  22905649.1974   22905655.2444
      2215.1724       1726.1084         18.2504         14.7504
   4735739.99347   3690184.80846  21983854.7914   21983860.4284
     -1206.4694       -940.1064         26.7504         21.5004
  17051666.06145  13286996.63445  25300773.9634   25300785.7094
     -2558.7664      -1993.8434          7.7504          5.2504
   6622245.71648   5160191.54246  21770073.3384   21770078.2484
     -2042.3284      -1591.4254         28.2504         24.5004
   9945631.56345   7529164.17245  24749100.6354   24749110.4824
     -2686.7814      -2093.5964          8.2504          7.7504
 -12323793.78647  -9442571.62646  22784555.8304   22784561.7834
      2441.5784       1902.5284         22.0004         17.2504
 00  7  1 23 36  0.0020000  0  8G 3G15G11G21G23G29G31G25
  20084119.15642  15636910.49545  25600215.8224   25600229.3854
     -3134.2194      -2442.2484          4.7504          4.7504
   -693699.87048   -540544.88847  20868237.4084   20868243.2684
     -1702.0004      -1326.2344         32.5004         28.2504
 -11663042.20346  -6496863.86146  22893040.2054   22893045.9594
      2202.0164       1715.8564         18.0004         14.5004
   4772067.94847   3718492.28146  21990767.8774   21990773.8774
     -1215.5624       -947.1924         27.0004         21.5004
  17128493.32145  13346861.89445  25315393.5024   25315400.4554
     -2563.2504      -1997.3384          7.7504          5.7504
   6683634.90348   5208027.26146  21781755.2994   21781760.1624
     -2050.4694      -1597.7684         28.5004         24.5004
  10026340.53245   7592054.13745  24764459.3224   24764466.9324
     -2693.9534      -2099.1844          8.2504          7.5004
 -12396875.87547  -9499518.61946  22770648.5414   22770654.6354
      2430.3594       1893.7874         21.7504         18.0004
 00  7  1 23 36 30.0020000  0  8G 3G15G11G21G23G29G31G25
  20178108.37843                  25618101.8144
     -3132.0004                          5.0004
   -642353.44848   -500534.72747  20878008.4324   20878014.3734
     -1721.3754      -1341.3314         32.5004         28.2504
 -11728907.01946  -6548187.04646  22880506.4794   22880511.9394
      2188.6884       1705.4714         18.2504         15.0004
   4808668.62047   3747012.25846  21997732.7914   21997738.5334
     -1224.7504       -954.3514         27.0004         21.7504
  17205455.77345  13406832.50445  25330039.6504   25330044.7134
     -2567.8594      -2000.9294          7.7504          5.2504
   6745267.05448   5256052.29746  21793483.5414   21793488.3224
     -2058.6414      -1604.1364         28.5004         24.5004
  10107263.47345   7655110.86445  24779858.3694   24779867.0214
     -2701.1724      -2104.8094          8.0004          7.2504
 -12469619.84547  -9556202.13946  22756805.7214   22756811.7444
      2418.9534       1884.8994         22.7504         18.0004
 00  7  1 23 37  0.0020000  0  8G 3G15G11G21G23G29G31G25
  20272030.32042                  25635974.9864
     -3129.2344                          4.5004
   -590425.23548   -460071.22747  20887889.7684   20887895.7324
     -1740.2814      -1356.0634         32.2504         28.0004
 -11794369.29446  -6599196.57046  22868049.5964   22868054.9394
      2175.6884       1695.3414         19.0004         14.7504
   4845546.96647   3775748.60646  22004750.5024   22004756.4554
     -1233.5624       -961.2184         26.5004         21.5004
  17282558.09245  13466912.07645  25344711.8694   25344720.7564
     -2572.0474      -2004.1924          7.7504          6.5004
   6807144.83148   5304268.73146  21805258.3854   21805263.2134
     -2066.3284      -1610.1264         28.2504         24.2504
  10188401.82445   7718335.43745  24795298.5574   24795307.6074
     -2707.8124      -2109.9844          8.2504          7.5004
 -12542018.69747  -9612616.75946  22743028.3614   22743034.2564
      2407.8754       1876.2664         22.2504         18.2504
 00  7  1 23 37 30.0020000  0  8G 3G15G11G21G23G29G31G25
  20365879.37741                  25653833.6504
     -3127.2194                          3.0004
   -537918.84548   -419157.19047  20897881.3854   20897887.2684
     -1760.0004      -1371.4294         32.0004         27.7504
 -11859429.59646  -6649892.88346  22855668.8224   22855674.5414
      2161.7814       1684.5054         19.5004         15.0004
   4882701.03347   3804699.79446  22011820.6584   22011826.6234
     -1243.2344       -968.7544         26.5004         21.5004
  17359797.36045  13527098.35545  25359410.1744   25359416.7134
     -2577.0944      -2008.1254          8.0004          5.0004
   6869263.60248   5352672.94446  21817079.2914   21817084.1784
     -2074.7974      -1616.7254         28.2504         24.2504
  10269749.26145   7781722.83445  24810778.1434   24810786.1504
     -2715.2194      -2115.7554          8.0004          6.2504
 -12614073.22447  -9668763.06046  22729317.1504   22729323.0924
      2395.8914       1866.9284         23.5004         18.7504
 00  7  1 23 38  0.0020000  0  7G15G11G21G23G29G31G25
   -484835.04148   -377793.21947  20907983.1434   20907989.0374
     -1779.1564      -1386.3564         32.2504         27.7504
 -11924085.17447  -6700273.80546  22843365.1664   22843370.4164
      2148.3134       1674.0104         20.2504         15.5004
   4920131.61147   3833866.45946  22018943.4794   22018949.4084
     -1252.3914       -975.8894         26.2504         21.2504
  17437174.14545  13587391.89145  25374134.1504   25374142.5684
     -2581.6094      -2011.6444          7.7504          5.5004
   6931622.08248   5401263.94846  21828945.7684   21828950.5964
     -2082.6874      -1622.8734         28.2504         24.2504
  10351303.49745   7845271.53645  24826298.0024   24826307.1004
     -2721.9844      -2121.0274          8.7504          7.5004
 -12685780.77847  -9724638.99646  22715671.7294   22715677.4824
      2384.3444       1857.9304         24.0004         19.0004
 00  7  1 23 38 30.0020000  0  7G15G11G21G23G29G31G25
   -431177.23848   -335981.98047  20918193.7834   20918199.7484
     -1798.3444      -1401.3074         33.0004         28.0004
 -11988335.80747  -6750339.19346  22831138.6584   22831143.8734
      2134.7194       1663.4174         20.7504         15.7504
   4957836.84747   3863247.14346  22026118.4864   22026124.6154
     -1261.6414       -983.0974         26.0004         20.7504
  17514686.38444  13647790.94045  25388884.0414   25388894.2294
     -2586.1874      -2015.2114          7.2504          5.5004
   6994216.51748   5450038.82046  21840857.1044   21840862.0724
     -2090.5784      -1629.0224         28.0004         24.0004
  10433059.02645   7908976.99445  24841855.5024   24841862.7364
     -2728.7034      -2126.2624          8.7504          8.0004
 -12757141.22647  -9780244.45046  22702091.9864   22702098.0104
      2372.6724       1848.8354         23.7504         19.2504
 00  7  1 23 39  0.0020000  0  7G15G11G21G23G29G31G25
   -376937.80048   -293717.51947  20928515.2914   20928521.0574
     -1817.6094      -1416.3194         33.2504         28.2504
 -12052170.68647  -6800080.60446  22818991.2754   22818996.6074
      2120.9384       1652.6794         21.0004         16.5004
   4995826.37347   3892849.34246  22033347.6354   22033353.6354
     -1270.9844       -990.3774         26.2504         20.7504
  17592342.82844  13708302.36845  25403661.0494   25403671.2134
     -2590.8914      -2018.8764          6.5004          6.2504
   7057053.27147   5499002.50346  21852814.4004   21852819.4514
     -2098.5164      -1635.2074         27.7504         23.7504
  10515021.34245   7972843.63745  24857452.1894   24857461.7444
     -2735.4224      -2131.4984          8.7504          7.2504
 -12828143.35447  -9835570.70646  22688580.7834   22688586.8544
      2360.8134       1839.5944         23.5004         19.0004
 00  7  1 23 39 30.0020000  0  7G15G11G21G23G29G31G25
   -322123.37148   -251005.01447  20938946.2604   20938952.1784
     -1836.7344      -1431.2224         33.2504         28.2504
 -12115593.06747  -6849500.60046  22806922.6044   22806927.9824
      2107.1564       1641.9404         20.7504         16.0004
   5034094.81847   3922668.90146  22040630.0414   22040635.9124
     -1280.2814       -997.6224         26.0004         20.7504
  17670137.80144  13768921.68745  25418466.1044   25418476.1274
     -2595.4694      -2022.4434          6.2504          5.7504
   7120125.36548   5548149.57446  21864816.7214   21864821.4554
     -2106.3124      -1641.2824         28.0004         24.0004
  10597181.52445   8036864.44045  24873087.6434   24873096.4824
     -2741.9534      -2136.5874          8.7504          7.5004
 -12898790.79247  -9890620.58346  22675137.1114   22675142.9474
      2348.9694       1830.3654         24.2504         19.0004
 00  7  1 23 40  0.0020000  0  7G15G11G21G23G29G31G25
   -266734.99948   -207845.28047  20949486.3774   20949492.2954
     -1855.6254      -1445.9424         33.0004         28.0004
 -12178600.41847  -6898597.18746  22794932.3384   22794937.8574
      2093.5004       1631.2994         20.7504         16.5004
   5072643.24447   3952706.61246  22047965.7754   22047971.7054
     -1289.4224      -1004.7444         25.5004         20.7504
  17748071.42543  13829649.02445  25433296.5254   25433311.0964
     -2599.8914      -2025.8894          6.0004          5.7504
   7183431.01447   5597478.63346  21876863.5494   21876868.2254
     -2113.8754      -1647.1754         27.7504         23.7504
  10679536.82545   8101037.32545  24888758.9794   24888768.7914
     -2748.2034      -2141.4574          8.5004          7.0004
 -12969081.11947  -9945392.21446  22661760.9794   22661766.8734
      2337.2344       1821.2224         23.5004         19.2504
 00  7  1 23 40 30.0020000  0  7G15G11G21G23G29G31G25
   -210776.96948   -164241.65347  20960134.8074   20960140.7134
     -1874.8284      -1460.9054         32.5004         27.7504
 -12241193.52247  -6947370.98046  22783021.5334   22783027.2644
      2079.4384       1620.3414         20.5004         16.2504
   5111469.00547   3982960.43446  22055353.6894   22055359.5614
     -1298.9064      -1012.1354         25.7504         20.7504
  17826140.99543  13890482.31345  25448152.2604   25448165.9984
     -2604.6414      -2029.5904          6.0004          5.5004
   7246965.56347   5646986.04946  21888953.6894   21888958.4594
     -2121.6874      -1653.2634         27.2504         23.5004
  10762081.40545   8165357.59245  24904466.8694   24904476.9394
     -2754.6724      -2146.4984          8.2504          7.0004
 -13039014.85547  -9999885.95346  22648452.6824   22648458.4364
      2325.0784       1811.7494         23.5004         18.7504
 00  7  1 23 41  0.0020000  0  7G15G11G21G23G29G31G25
   -154241.33148   -120187.94447  20970893.3854   20970899.2094
     -1893.9534      -1475.8084         32.7504         27.7504
 -12303361.15747  -6995813.23946  22771191.1114   22771196.2914
      2065.3284       1609.3474         20.0004         16.5004
   5150581.81047   4013437.93046  22062796.7364   22062802.7134
     -1308.3444      -1019.4894         25.5004         20.7504
  17904355.57443  13951428.61245  25463036.6744   25463050.4944
     -2609.3754      -2033.2794          6.0004          6.0004
   7310736.17747   5696677.41746  21901088.7604   21901093.8114
     -2129.4064      -1659.2784         27.0004         23.2504
  10844821.09745   8229829.97845  24920211.5804   24920217.1704
     -2761.0164      -2151.4414          8.0004          6.5004
 -13108580.77247 -10054093.09546  22635214.8694   22635220.8934
      2312.8754       1802.2404         23.5004         19.0004
 00  7  1 23 41 30.0020000  0  7G15G11G21G23G29G31G25
    -97136.87048    -75690.99847  20981759.8774   20981765.6784
     -1913.2664      -1490.8564         33.2504         28.0004
 -12365108.41847  -7043927.93046  22759441.0644   22759446.9714
      2050.8914       1598.0974         20.0004         16.5004
   5189974.72347   4044133.68046  22070292.9324   22070298.9324
     -1318.0944      -1027.0864         25.5004         20.2504
  17982707.66243  14012482.05945  25477946.2054   25477953.6624
     -2614.3444      -2037.1514          5.7504          5.0004
   7374733.75447   5746545.63846  21913267.0254   21913272.1114
     -2137.3284      -1665.4504         26.7504         23.2504
  10927744.99545   8294445.92245  24935991.5494   24935999.6974
     -2767.4694      -2156.4694          8.5004          7.5004
 -13177784.07647 -10108017.68146  22622045.9244   22622051.6194
      2300.3914       1792.5124         24.2504         19.2504
 00  7  1 23 42  0.0020000  0  7G15G11G21G23G29G31G25
    -39462.43248    -30749.90747  20992735.0724   20992741.0024
     -1932.0164      -1505.4674         33.0004         27.7504
 -12426430.82847  -7091711.57646  22747771.8384   22747777.4864
      2036.9224       1587.2124         20.2504         16.5004
   5229651.00847   4075050.23846  22077843.1044   22077848.9984
     -1327.3124      -1034.2694         26.0004         20.5004
  18061199.49342  14073644.38945  25492882.9084   25492888.3114
     -2618.7814      -2040.6094          4.7504          5.0004
   7438958.88647   5796591.16846  21925488.7364   21925493.7294
     -2144.6564      -1671.1614         26.7504         23.0004
  11010852.44145   8359204.88945  24951806.6894   24951817.3464
     -2773.3284      -2161.0354          8.7504          7.2504
 -13246620.18647 -10161656.12346  22608947.1274   22608952.8934
      2288.3444       1783.1254         25.0004         19.2504
 00  7  1 23 42 30.0020000  0  7G15G11G21G23G29G31G25
     18785.45248     14638.02247  21003819.1354   21003825.0294
     -1951.1724      -1520.3944         32.5004         27.2504
 -12487321.48747  -7139158.80946  22736184.7994   22736190.2014
      2022.4384       1575.9254         20.5004         16.5004
   5269615.52047   4106191.38746  22085448.1114   22085454.2644
     -1337.0004      -1041.8184         26.2504         20.7504
  18139835.82642  14134919.30145  25507846.8464   25507854.7134
     -2623.6564      -2044.4074          4.7504          4.7504
   7503414.41047   5846816.22346  21937754.3384   21937759.2834
     -2152.3914      -1677.1874         26.7504         23.2504
  11094144.86445   8424107.88445  24967656.4634   24967663.9084
     -2779.4844      -2165.8324          8.7504          7.7504
 -13315082.23947 -10215003.12446  22595918.7524   22595924.5414
      2275.7814       1773.3364         24.7504         19.5004
 00  7  1 23 43  0.0020000  0  7G15G11G21G23G29G31G25
     77604.71148     60471.17447  21015011.9794   21015017.9794
     -1970.1724      -1535.1994         32.5004         27.2504
 -12547778.66047  -7186268.25246  22724679.8384   22724685.6624
      2007.9694       1564.6514         21.0004         16.5004
   5309867.87947   4137556.83846  22093108.0644   22093113.7254
     -1346.5624      -1049.2694         26.5004         20.7504
  18218616.22842  14196306.45545  25522837.9864   25522847.0494
     -2628.4374      -2048.1334          4.7504          5.7504
   7568098.14947   5897219.10546  21950063.2834   21950068.3694
     -2159.9064      -1683.0444         27.0004         23.2504
  11177618.68545   8489152.32145  24983541.4474   24983549.6784
     -2785.4694      -2170.4954          8.7504          7.5004
 -13383168.46847 -10268057.26146  22582962.3464   22582968.1004
      2263.2344       1763.5594         25.0004         19.7504
 00  7  1 23 43 30.0020000  0  7G15G11G21G23G29G31G25
    136995.87548    106749.96347  21026313.6974   21026319.6744
     -1989.2344      -1550.0534         32.5004         27.2504
 -12607798.65447  -7233037.04646  22713258.6894   22713264.1744
      1993.3444       1553.2554         21.5004         16.5004
   5350410.62747   4169148.56646  22100823.1504   22100829.1394
     -1356.2814      -1056.8434         26.5004         20.5004
  18297542.40242  14257807.20445  25537858.5414   25537866.3964
     -2633.2974      -2051.9204          4.7504          4.7504
   7633009.78847   5947799.57446  21962415.4944   21962420.3814
     -2167.5004      -1688.9614         27.0004         23.2504
  11261272.53745   8554337.02645  24999460.8934   24999470.5184
     -2791.4374      -2175.1464          8.2504          7.5004
 -13450875.32847 -10320815.78746  22570078.4164   22570084.3224
      2250.5474       1753.6734         25.2504         19.7504
 00  7  1 23 44  0.0020000  0  7G15G11G21G23G29G31G25
    196959.21648    153474.60347  21037724.6664   21037730.4674
     -2008.2814      -1564.8944         33.0004         27.5004
 -12667377.31747  -7279461.95446  22701921.0724   22701926.1464
      1978.5944       1541.7614         22.0004         16.5004
   5391246.25447   4200968.51046  22108593.8614   22108599.6504
     -1366.0624      -1064.4644         26.0004         20.5004
  18376615.89342  14319422.79244  25552905.5184   25552910.9674
     -2638.2194      -2055.7554          4.2504          3.7504
   7698149.33747   5998557.63746  21974811.1894   21974816.0644
     -2175.0784      -1694.8664         27.0004         23.0004
  11345104.75545   8619660.70045  25015413.5024   25015423.8424
     -2797.3284      -2179.7364          8.0004          7.7504
 -13518198.95047 -10373275.68846  22557267.1504   22557272.9394
      2237.7034       1743.6654         25.5004         19.5004
 00  7  1 23 44 30.0020000  0  6G15G11G21G29G31G25
    257494.43948    200644.86747  21049244.1974   21049250.1974
     -2027.3444      -1579.7484         33.0004         27.5004
 -12726511.59247  -7325540.58246  22690668.2684   22690673.3424
      1963.7194       1530.1704         22.2504         16.5004
   5432376.12747   4233017.72346  22116420.6194   22116426.6434
     -1375.8754      -1072.1104         25.7504         20.2504
   7763516.06647   6049492.72146  21987250.1584   21987254.8814
     -2182.6254      -1700.7474         27.0004         23.0004
  11429113.14845   8685121.66845  25031399.7134   25031407.3114
     -2803.1564      -2184.2784          7.7504          7.7504
 -13585135.62747 -10425434.07446  22544529.3694   22544535.2054
      2224.7664       1733.5844         25.0004         20.0004
 00  7  1 23 45  0.0020000  0  6G15G11G21G29G31G25
    318600.57148    248259.99747  21060872.3304   21060878.1544
     -2046.2034      -1594.4444         32.7504         27.2504
 -12785198.81547  -7371270.86546  22679500.5884   22679505.6044
      1948.9224       1518.6404         22.7504         17.0004
   5473801.09047   4265296.87746  22124303.4164   22124309.2874
     -1385.6254      -1079.7084         25.5004         20.5004
   7829108.60947   6100603.76546  21999731.9244   21999736.8224
     -2190.0004      -1706.4944         26.7504         22.7504
  11513294.91045   8750717.70345  25047418.3694   25047426.7404
     -2808.7664      -2188.6494          7.5004          7.5004
 -13651683.47647 -10477289.48046  22531865.4714   22531871.2014
      2211.9224       1723.5754         24.7504         19.5004
 00  7  1 23 45 30.0020000  0  6G15G11G21G29G31G25
    380273.68948    296316.93147  21072608.5574   21072614.5334
     -2065.4224      -1609.4204         33.0004         27.2504
 -12843439.03447  -7416652.81746  22668417.4164   22668422.6784
      1933.6414       1506.7334         22.7504         17.2504
   5515519.55647   4297804.73946  22132242.3224   22132248.3464
     -1395.7344      -1087.5854         25.5004         20.2504
   7894923.34447   6151887.95046  22012256.2914   22012261.0614
     -2197.7344      -1712.5204         26.7504         22.5004
  11597644.87844   8816444.83845  25063470.2604   25063478.1274
     -2814.6564      -2193.2394          6.7504          6.5004
 -13717842.33247 -10528841.77846  22519275.8464   22519281.8814
      2198.5634       1713.1664         24.7504         19.7504
 00  7  1 23 46  0.0020000  0  6G15G11G21G29G31G25
    442524.74048    344824.21147  21084454.2134   21084460.2014
     -2084.6724      -1624.4204         32.2504         27.0004
 -12901217.57247  -7461675.02346  22657422.9944   22657428.3264
      1918.2194       1494.7164         22.2504         17.5004
   5557544.39847   4330551.33146  22140239.4714   22140245.5064
     -1405.9694      -1095.5604         26.0004         20.5004
   7960970.87147   6203353.53046  22024824.6744   22024829.4434
     -2205.4694      -1718.5474         26.2504         22.2504
  11682172.37744   8882310.32545  25079554.6114   25079563.7684
     -2820.5164      -2197.8044          7.0004          6.7504
 -13783597.52947 -10580079.52846  22506763.2364   22506769.1074
      2185.0634       1702.6464         25.5004         20.0004
 00  7  1 23 46 30.0020000  0  6G15G11G21G29G31G25
    505351.78048    393780.31347  21096409.7444   21096415.6624
     -2103.8594      -1639.3714         32.5004         27.0004
 -12958533.20747  -7506336.52546  22646515.7294   22646521.3074
      1902.7344       1482.6504         22.2504         17.5004
   5599875.79147   4363536.80246  22148294.9944   22148300.9124
     -1416.2034      -1103.5354         26.2504         20.5004
   8027248.50847   6254998.41746  22037436.9474   22037441.9394
     -2213.1094      -1724.5014         26.2504         22.5004
  11766873.58544   8948311.11245  25095673.8774   25095682.6004
     -2826.2814      -2202.2974          6.7504          7.0004
 -13848947.34447 -10631001.40546  22494327.4324   22494333.4324
      2171.5004       1692.0784         26.0004         20.5004
 00  7  1 23 47  0.0020000  0  6G15G11G21G29G31G25
    568758.86948    443188.40147  21108475.8074   21108481.6784
     -2123.2034      -1654.4444         32.2504         27.0004
 -13015378.14647  -7550631.24846  22635698.7604   22635704.1274
      1886.9694       1470.3654         22.5004         18.0004
   5642519.45247   4396765.59346  22156409.4714   22156415.3654
     -1426.6414      -1111.6684         25.7504         20.5004
   8093760.03147   6306825.55146  22050093.5964   22050098.4004
     -2220.9064      -1730.5764         26.2504         22.2504
  11851750.72444   9014449.03445  25111825.9084   25111832.8144
     -2832.1094      -2206.8384          6.7504          6.7504
 -13913884.31247 -10681601.56446  22481970.3694   22481976.1584
      2157.6724       1681.3034         26.2504         21.0004
 00  7  1 23 47 30.0020000  0  6G15G11G21G29G31G25
    632746.78348    493049.08447  21120652.3774   21120658.2834
     -2142.4534      -1669.4444         32.2504         27.0004
 -13071747.93247  -7594555.72446  22624971.9714   22624977.3964
      1871.2034       1458.0804         22.7504         18.0004
   5685478.80347   4430240.38346  22164584.5494   22164590.5024
     -1437.0784      -1119.8014         25.5004         20.0004
   8160506.31947   6358835.61746  22062794.9164   22062799.8034
     -2228.6094      -1736.5794         25.7504         22.0004
  11936802.83544   9080723.26345  25128009.9944   25128016.2294
     -2837.8124      -2211.2824          7.0004          6.7504
 -13978404.09847 -10731876.66346  22469692.5884   22469698.5184
      2143.8444       1670.5284         26.5004         21.0004
 00  7  1 23 48  0.0020000  0  6G15G11G21G29G31G25
    697310.15448    543358.17247  21132938.4324   21132944.3964
     -2161.8284      -1684.5414         32.2504         26.5004
 -13127644.28847  -7638111.29646  22614335.1974   22614340.4824
      1855.1564       1445.5764         22.7504         18.0004
   5728750.12447   4463958.27046  22172818.8074   22172824.7484
     -1447.7034      -1128.0804         25.2504         20.0004
   8227481.57147   6411024.10346  22075539.9554   22075545.1584
     -2236.4374      -1742.6794         25.2504         22.0004
  12022023.05344   9147128.49345  25144227.9474   25144236.6934
     -2843.5784      -2215.7754          7.2504          7.2504
 -14042508.52347 -10781828.10846  22457493.8544   22457499.6314
      2129.7194       1659.5214         26.2504         20.7504
 00  7  1 23 48 30.0020000  0  6G15G11G21G29G31G25
    762456.00248    594121.13647  21145335.3464   21145341.2404
     -2181.2504      -1699.6754         32.2504         26.7504
 -13183056.40147  -7681289.52646  22603790.5414   22603795.7214
      1838.9534       1432.9504         23.0004         17.7504
   5772341.97247   4497925.91746  22181114.1664   22181120.2834
     -1458.4374      -1136.4454         25.5004         20.2504
   8294693.07547   6463396.67946  22088329.6824   22088334.6504
     -2244.3124      -1748.8154         25.2504         21.7504
  12107416.86844   9213668.95045  25160476.5644   25160485.1464
     -2849.3444      -2220.2684          7.0004          7.0004
 -14106186.84547 -10831447.49546  22445376.0334   22445381.8344
      2115.4534       1648.4054         26.0004         21.2504
 00  7  1 23 49  0.0020000  0  6G15G11G21G29G31G25
    828179.99048    645334.58747  21157842.2294   21157848.1824
     -2200.4844      -1714.6634         32.0004         26.7504
 -13237984.97547  -7724090.98946  22593338.0884   22593343.2914
      1822.7974       1420.3614         23.2504         18.0004
   5816252.60247   4532141.97046  22189470.1744   22189476.3034
     -1469.0624      -1144.7244         25.0004         19.7504
   8362135.83847   6515949.45946  22101163.6824   22101168.8384
     -2252.0004      -1754.8054         25.0004         21.5004
  12192978.48244   9280340.24745  25176758.4944   25176768.1194
     -2854.8914      -2224.5904          6.5004          7.0004
 -14169439.92647 -10880735.54746  22433339.5724   22433345.5144
      2101.2504       1637.3384         26.5004         21.2504
 00  7  1 23 49 30.0020000  0  6G15G11G21G29G31G25
    894488.24348    697003.31447  21170460.2294   21170466.2174
     -2220.0004      -1729.8704         32.0004         26.5004
 -13292420.11947  -7766507.94746  22582979.2604   22582984.3934
      1806.2504       1407.4684         23.2504         17.5004
   5860489.93847   4566612.60346  22197888.0184   22197894.1824
     -1480.0474      -1153.2834         24.5004         19.5004
   8429816.22147   6568687.39346  22114043.0724   22114048.1234
     -2259.9694      -1761.0154         25.2504         21.7504
  12278712.53944   9347145.85245  25193073.2054   25193081.7994
     -2860.6254      -2229.0584          6.7504          7.2504
 -14232257.91747 -10929684.55646  22421385.5184   22421391.3184
      2086.6564       1625.9664         26.2504         21.2504
 00  7  1 23 50  0.0020000  0  6G15G11G21G29G31G25
    961376.85348    749124.27547  21183188.7604   21183194.7714
     -2239.4064      -1744.9924         32.0004         26.5004
 -13346362.08047  -7808540.61846  22572714.4554   22572719.2834
      1789.7034       1394.5744         23.0004         17.7504
   5905052.50747   4601336.65546  22206367.8854   22206373.9904
     -1490.9694      -1161.7944         24.2504         19.5004
   8497730.32247   6621607.44546  22126966.2604   22126971.4044
     -2267.7974      -1767.1144         25.0004         21.7504
  12364613.60944   9414081.63745  25209419.4554   25209430.5214
     -2866.2344      -2233.4294          6.7504          7.0004
 -14294640.80447 -10978294.53646  22409514.4864   22409520.3574
      2072.0474       1614.5824         26.7504         21.7504
 00  7  1 23 50 30.0020000  0  6G15G11G21G29G31G25
   1028850.49648    801701.09847  21196028.6584   21196034.6704
     -2258.8754      -1760.1624         32.0004         26.5004
 -13399802.63047  -7850182.56746  22562544.7754   22562550.0374
      1772.9384       1381.5104         22.7504         17.7504
   5949946.73147   4636319.14746  22214911.3614   22214917.5024
     -1502.0314      -1170.4144         24.7504         19.2504
   8565882.62147   6674713.10946  22139935.2834   22139940.2174
     -2275.7194      -1773.2874         25.0004         21.5004
  12450684.45444   9481149.68045  25225798.7444   25225807.7954
     -2871.8444      -2237.8004          7.0004          7.5004
 -14356580.82347 -11026559.41546  22397727.7914   22397733.4514
      2057.2344       1603.0404         27.7504         22.0004
 00  7  1 23 51  0.0020000  0  6G15G11G21G29G31G25
   1096908.63748    854733.37547  21208979.7214   21208985.6154
     -2278.2664      -1775.2724         32.0004         26.5004
 -13452738.72447  -7891431.43946  22552471.3774   22552476.4284
      1756.1564       1368.4334         23.0004         17.7504
   5995174.00847   4671561.15846  22223517.7994   22223523.7054
     -1513.0784      -1179.0224         24.7504         19.5004
   8634272.24447   6728003.70546  22152949.7524   22152954.7914
     -2283.5624      -1779.3994         25.0004         21.5004
  12536923.03745   9548348.43745  25242209.6434   25242218.7174
     -2877.3284      -2242.0744          7.5004          8.2504
 -14418074.14247 -11074476.20546  22386025.8144   22386031.6394
      2042.3754       1591.4614         27.5004         22.2504
 00  7  1 23 51 30.0020000  0  6G15G11G21G29G31G25
   1165545.74348    908216.80247  21222041.2444   21222047.1394
     -2297.4694      -1790.2354         32.0004         26.2504
 -13505171.98247  -7932288.47946  22542493.7364   22542499.3144
      1739.4384       1355.4064         23.0004         18.0004
   6040731.35447   4707060.37446  22232187.0334   22232193.1044
     -1524.0164      -1187.5454         25.2504         19.7504
   8702893.65447   6781474.92046  22166007.9714   22166013.1394
     -2291.1724      -1785.3294         25.0004         22.0004
  12623322.53245   9615672.59345  25258651.3614   25258661.9004
     -2882.5624      -2246.1534          8.0004          8.5004
 -14479123.22147 -11122046.85846  22374408.4004   22374414.2834
      2027.6094       1579.9554         27.5004         22.2504
 00  7  1 23 52  0.0020000  0  6G15G11G21G29G31G25
   1234760.70348    962150.49547  21235212.2294   21235218.1934
     -2316.7034      -1805.2234         31.7504         25.7504
 -13557099.81747  -7972751.69146  22532612.2444   22532617.6004
      1722.5474       1342.2444         23.5004         18.2504
   6086619.86947   4742817.64446  22240919.4164   22240925.1234
     -1535.0784      -1196.1654         25.2504         20.0004
   8771746.24447   6835126.25846  22179110.1894   22179115.1934
     -2298.8754      -1791.3314         25.0004         21.2504
  12709880.44245   9683120.17345  25275122.3694   25275132.7324
     -2887.8124      -2250.2444          8.2504          7.0004
 -14539725.20347 -11169269.11146  22362876.3384   22362882.2214
      2012.6724       1568.3164         27.7504         22.2504
 00  7  1 23 52 30.0020000  0  6G15G11G21G29G31G25
   1304555.24048   1016535.80747  21248493.5104   21248499.4164
     -2335.9374      -1820.2114         31.5004         26.0004
 -13608516.70147  -8012816.75846  22522827.9244   22522833.1394
      1705.5474       1328.9984         24.0004         18.5004
   6132843.66747   4778836.17746  22249715.4474   22249721.3544
     -1546.1874      -1204.8214         24.7504         19.2504
   8840831.50447   6888958.90346  22192256.7914   22192261.7714
     -2306.5164      -1797.2854         25.2504         21.5004
  12796597.14845   9750691.48845  25291624.4474   25291633.2054
     -2892.9694      -2254.2614          8.2504          7.5004
 -14599874.82047 -11216138.88346  22351429.9554   22351435.6044
      1997.6254       1556.5914         27.5004         22.2504
 00  7  1 23 53  0.0020000  0  6G15G11G21G29G31G25
   1374929.59048   1071372.92147  21261885.4944   21261891.4594
     -2355.4694      -1835.4304         31.5004         26.0004
 -13659418.80947  -8052480.69746  22513141.7444   22513146.7604
      1688.1254       1315.4224         24.2504         18.7504
   6179404.61547   4815117.41646  22258575.6974   22258581.6504
     -1557.6564      -1213.7584         24.5004         19.2504
   8910149.76747   6942973.11046  22205447.5334   22205452.3964
     -2314.4844      -1803.4944         25.0004         21.2504
  12883471.36545   9818385.56245  25308156.4164   25308166.9084
     -2898.4224      -2258.5114          8.7504          7.7504
 -14659568.30447 -11262653.23046  22340070.5964   22340076.1864
      1982.1254       1544.5134         27.5004         22.2504
 00  7  1 23 53 30.0020000  0  6G15G11G21G29G31G25
   1445878.80648   1126657.97947  21275386.7684   21275392.7794
     -2374.8914      -1850.5644         31.5004         26.0004
 -13709806.83047  -8091744.05346  22503552.9634   22503557.9324
      1670.6564       1301.8104         24.2504         18.7504
   6226300.21447   4851659.41746  22267499.6974   22267505.6974
     -1569.1254      -1222.6954         24.5004         19.2504
   8979696.33747   6997165.21246  22218681.8544   22218686.7994
     -2322.3594      -1809.6314         25.0004         21.2504
  12970497.14145   9886197.71045  25324716.9794   25324727.4944
     -2903.7034      -2262.6264          9.0004          7.5004
 -14718806.07147 -11308812.45346  22328798.1824   22328803.6314
      1966.6254       1532.4354         27.7504         22.2504
 00  7  1 23 54  0.0020000  0  6G15G11G21G29G31G25
   1517406.22448   1182393.58746  21288998.0724   21289004.0844
     -2393.8444      -1865.3334         31.2504         25.5004
 -13759674.04547  -8130601.58646  22494063.4324   22494068.5184
      1653.5634       1288.4904         24.2504         18.5004
   6273536.31847   4888466.75246  22276488.6354   22276494.3654
     -1580.2034      -1231.3274         24.7504         19.2504
   9049474.70947   7051537.95146  22231960.2754   22231965.3384
     -2329.7814      -1815.4144         24.7504         21.2504
  13057676.32145   9954129.43145  25341306.8694   25341315.2754
     -2908.4694      -2266.3394          9.5004          7.5004
 -14777581.27048 -11354611.26046  22317613.6044   22317619.1004
      1951.4694       1520.6254         28.2504         22.2504
 00  7  1 23 54 30.0020000  0  6G15G11G21G29G31G25
   1589509.23148   1238577.70846  21302718.5184   21302724.4364
     -2412.9694      -1880.2354         30.7504         25.5004
 -13809019.39547  -8169052.47146  22484673.5334   22484678.4674
      1636.1564       1274.9274         24.5004         18.7504
   6321112.62847   4925539.17946  22285541.8144   22285547.8034
     -1591.5004      -1240.1304         24.5004         18.5004
   9119482.26147   7106089.26746  22245282.2834   22245287.1584
     -2337.3444      -1821.3074         24.5004         20.7504
  13145004.67645  10022177.34245  25357924.9394   25357935.2914
     -2913.3594      -2270.1504         10.0004          7.7504
 -14835893.60948 -11400049.38046  22306517.3144   22306522.9044
      1936.0474       1508.6084         28.7504         22.7504
 00  7  1 23 55  0.0020000  0  7G20G15G11G21G29G31G25
    -75946.59443                  25856776.2294
      2618.5004                          5.7504
   1662185.05448   1295208.18146  21316548.2604   21316554.2014
     -2432.2194      -1895.2354         30.7504         25.2504
 -13857841.75947  -8207095.83446  22475382.8614   22475388.1114
      1618.5004       1261.1694         24.5004         19.0004
   6369028.33847   4962876.08246  22294660.0254   22294665.9084
     -1603.0004      -1249.0914         24.2504         18.7504
   9189716.13747   7160816.94146  22258647.4164   22258652.2324
     -2345.0474      -1827.3094         24.2504         20.0004
  13232478.24345  10090338.40845  25374570.7914   25374579.7484
     -2918.3444      -2274.0344         10.0004          7.2504
 -14893741.69548 -11445125.75846  22295508.8774   22295514.7834
      1920.3444       1496.3724         28.7504         22.7504
 00  7  1 23 55 30.0020000  0  7G20G15G11G21G29G31G25
   -154495.08243                  25841827.3304
      2618.0944                          5.7504
   1735437.16548   1352287.71446  21330487.9004   21330493.8894
     -2451.1724      -1910.0044         30.7504         25.5004
 -13906133.67947  -8244725.87746  22466193.0334   22466198.0614
      1601.0004       1247.5324         24.5004         18.7504
   6417289.16547   5000481.89746  22303843.6354   22303849.6584
     -1614.2974      -1257.8944         23.5004         18.2504
   9260180.50547   7215724.21146  22272056.1664   22272060.9474
     -2352.5004      -1833.1174         23.7504         20.2504
  13320099.24345  10158614.43545  25391244.0104   25391253.1314
     -2922.9694      -2277.6384         10.0004          6.0004
 -14951118.30648 -11489834.74546  22284590.3304   22284595.8734
      1904.8134       1484.2694         28.2504         22.7504
 00  7  1 23 56  0.0020000  0  7G20G15G11G21G29G31G25
   -233031.96143    -26515.70355  25826883.4164   25826887.5534
      2617.5004       2039.6104          5.7504          5.5004
   1809255.92248   1409808.78246  21344535.0414   21344541.0884
     -2470.2504      -1924.8704         30.5004         25.2504
 -13953901.07247  -8281947.18546  22457103.4004   22457108.7324
      1583.2974       1233.7384         24.7504         19.0004
   6465887.53847   5038350.73446  22313091.4084   22313097.2214
     -1625.7664      -1266.8304         23.2504         18.2504
   9330865.66747   7270803.52846  22285507.2294   22285512.3264
     -2360.0314      -1838.9854         23.7504         20.2504
  13407856.60345  10226996.69545  25407943.7294   25407950.4324
     -2927.6874      -2281.3154          9.7504          6.5004
 -15008029.20848 -11534180.84346  22273760.4634   22273765.9714
      1889.0634       1471.9974         28.2504         22.7504
 00  7  1 23 56 30.0020000  0  7G20G15G11G21G29G31G25
   -311548.83143    -87697.55845  25811942.1114   25811947.2324
      2617.0314       2039.2454          5.7504          6.0004
   1883647.51548   1467776.21946  21358691.7214   21358697.6974
     -2489.1254      -1939.5784         31.2504         25.2504
 -14001134.24847  -8318752.23246  22448115.2214   22448120.4244
      1565.6414       1219.9804         24.7504         19.0004
   6514832.39247   5076489.55846  22322405.3304   22322411.4364
     -1637.1414      -1275.6944         22.5004         17.7504
   9401778.23247   7326060.04546  22299001.5494   22299006.4004
     -2367.3914      -1844.7204         23.7504         20.2504
  13495755.73545  10295489.41545  25424671.3304   25424677.8934
     -2932.1564      -2284.7974          9.5004          5.2504
 -15064464.72448 -11578156.50546  22263020.9794   22263026.8964
      1873.3754       1459.7734         28.0004         22.7504
 00  7  1 23 57  0.0020000  0  7G20G15G11G21G29G31G25
   -390049.97643   -148867.18945  25797003.5644   25797010.1274
      2616.3284       2038.6974          6.0004          6.0004
   1958605.33848   1526184.87446  21372955.4474   21372961.4124
     -2508.1414      -1954.3954         30.7504         25.0004
 -14047835.77347  -8355143.00646  22439228.0574   22439233.2604
      1547.7034       1206.0024         24.7504         19.5004
   6564119.03047   5114894.70146  22331784.5494   22331790.4904
     -1648.7034      -1284.7044         23.0004         18.0004
   9472911.81347   7381488.78046  22312537.7754   22312542.8264
     -2374.9064      -1850.5764         24.0004         20.0004
  13583788.55545  10364086.36845  25441422.3544   25441432.5184
     -2936.7664      -2288.3894          9.2504          5.5004
 -15120427.51848 -11621763.80646  22252371.6194   22252377.3034
      1857.3914       1447.3174         28.5004         23.0004
 00  7  1 23 57 30.0020000  0  7G20G15G11G21G29G31G25
   -468528.55643   -210019.21945  25782069.2524   25782075.5804
      2615.6884       2038.1984          6.0004          5.7504
   2034133.57548   1585037.99646  21387328.0724   21387334.0614
     -2526.9694      -1969.0674         30.5004         25.0004
 -14093997.29447  -8391113.00246  22430443.6664   22430448.6934
      1529.8284       1192.0744         25.0004         19.5004
   6613754.02947   5153571.29946  22341229.8074   22341235.8304
     -1660.2034      -1293.6654         23.2504         18.0004
   9544271.22647   7437093.49346  22326117.1274   22326122.2714
     -2382.2504      -1856.2994         23.7504         20.2504
  13671958.42545  10432789.96345  25458201.2604   25458212.6784
     -2941.1094      -2291.7744          9.2504          5.5004
 -15175909.30548 -11664996.29946  22241813.8774   22241819.4674
      1841.5004       1434.9354         28.7504         23.0004
 00  7  1 23 58  0.0020000  0  7G20G15G11G21G29G31G25
   -546989.07343   -271157.24145  25767139.4864   25767148.2214
      2614.8914       2037.5774          6.0004          4.5004
   2110225.77648   1644330.58246  21401807.9394   21401813.7644
     -2545.9694      -1983.8724         30.5004         25.0004
 -14139621.69047  -8426664.45546  22421761.6664   22421766.6934
      1511.6564       1177.9144         25.0004         19.7504
   6663733.57847   5192516.37546  22350740.4864   22350746.3694
     -1671.9064      -1302.7844         22.7504         18.0004
   9615850.02447   7492869.14946  22339738.2604   22339743.1584
     -2389.7814      -1862.1674         24.0004         20.2504
  13760257.43745  10501594.30845  25475003.2444   25475017.0184
     -2945.5944      -2295.2684          8.7504          5.2504
 -15230913.35348 -11707856.53546  22231346.8224   22231352.4244
      1825.2974       1422.3094         28.5004         23.0004
 00  7  1 23 58 30.0020000  0  7G20G15G11G21G29G31G25
   -625432.79944   -332282.07845  25752211.4714   25752222.7364
      2614.4844       2037.2614          6.2504          4.7504
   2186878.60248   1704060.00346  21416394.5574   21416400.5454
     -2564.4534      -1998.2754         30.5004         24.7504
 -14184708.86647  -8461797.30346  22413181.7444   22413187.2754
      1493.8754       1164.0584         24.7504         19.2504
   6714056.10247   5231728.69846  22360316.7214   22360322.7684
     -1683.1874      -1311.5754         22.2504         17.5004
   9687644.90447   7548813.18046  22353400.3074   22353405.5924
     -2396.7974      -1867.6344         23.5004         20.5004
  13848680.90445  10570495.57844  25491830.1974   25491843.7604
     -2949.5164      -2298.3244          8.2504          3.5004
 -15285439.19048 -11750344.15546  22220970.6504   22220976.4164
      1809.5004       1410.0004         29.0004         22.7504
